[[{"header":{"parameterUnit":"m.s-1","parameterCategory":1,"la1":31.0,"la2":29.5877,"lo1":-88.7671,"lo2":-86.6584,"dy":0.0162,"dx":0.0185,"nx":115,"ny":88,"refTime":"2024-07-06T12:00:00:Z","depth":0,"parameterNumber":2,"parameterNumberName":"U-component_of_WINDS"},"data":[0.0,0.0,0.0,0.0,0.0,0.0,0.0,0.0,0.0,0.0,0.0,0.0,0.0,0.0,0.0,0.0,0.0,0.0,0.0,0.0,0.0,0.0,0.0,0.0,0.0,0.0,0.0,0.0,0.0,0.0,0.0,0.0,0.0,0.0,0.0,0.0,0.0,0.0,0.0,0.0,0.0,0.0,0.0,0.0,0.0,0.0,0.0,0.0,0.0,0.0,0.0,0.0,0.0,0.0,0.0,0.0,0.0,0.0,0.0,0.0,0.0,0.0,0.0,0.0,0.0,0.0,0.0,0.0,0.0,0.0,0.0,0.0,0.0,0.0,0.0,0.0,0.0,0.0,0.0,0.0,0.0,0.0,0.0,0.0,0.0,0.0,0.0,0.0,0.0,0.0,0.0,0.0,0.0,0.0,0.0,0.0,0.0,0.0,0.0,0.0,0.0,0.0,0.0,0.0,0.0,0.0,0.0,0.0,0.0,0.0,0.0,0.0,0.0,0.0,0.0,0.0,0.0,0.0,0.0,0.0,0.0,0.0,0.0,0.0,0.0,0.0,0.0,0.0,0.0,0.0,0.0,0.0,0.0,0.0,0.0,0.0,0.0,0.0,0.0,0.0,0.0,0.0,0.0,0.0,0.0,0.0,0.0,0.0,0.0,0.0,0.0,0.0,0.0,0.0,0.0,0.0,0.0,0.0,0.0,0.0,0.0,0.0,0.0,0.0,0.0,0.0,0.0,0.0,0.0,0.0,0.0,0.0,0.0,0.0,0.0,0.0,0.0,0.0,0.0,0.0,0.0,0.0,0.0,0.0,0.0,0.0,0.0,0.0,0.0,0.0,0.0,0.0,0.0,0.0,0.0,0.0,0.0,0.0,0.0,0.0,0.0,0.0,0.0,0.0,0.0,0.0,0.0,0.0,0.0,0.0,0.0,0.0,0.0,0.0,0.0,0.0,0.0,0.0,0.0,0.0,0.0,0.0,0.0,0.0,0.0,0.0,0.0,0.0,0.0,0.0,0.0,0.0,0.0,0.0,0.0,0.0,0.0,0.0,0.0,0.0,0.0,0.0,0.0,0.0,0.0,0.0,0.0,0.0,0.0,0.0,0.0,0.0,0.0,0.0,0.0,0.0,0.0,0.0,0.0,0.0,0.0,0.0,0.0,0.0,0.0,0.0,0.0,0.0,0.0,0.0,0.0,0.0,0.0,0.0,0.0,0.0,0.0,0.0,0.0,0.0,0.0,0.0,0.0,0.0,0.0,0.0,0.0,0.0,0.0,0.0,0.0,0.0,0.0,0.0,0.0,0.0,0.0,0.0,0.0,0.0,0.0,0.0,0.0,0.0,0.0,0.0,0.0,0.0,0.0,0.0,0.0,0.0,0.0,0.0,0.0,0.0,0.0,0.0,0.0,0.0,0.0,0.0,0.0,0.0,0.0,0.0,0.0,0.0,0.0,0.0,0.0,0.0,0.0,0.0,0.0,0.0,0.0,0.0,0.0,0.0,0.0,0.0,0.0,0.0,0.0,0.0,0.0,0.0,0.0,0.0,0.0,0.0,0.0,0.0,0.0,0.0,0.0,0.0,0.0,0.0,0.0,0.0,0.0,0.0,0.0,0.0,0.0,0.0,0.0,0.0,0.0,0.0,0.0,0.0,0.0,0.0,0.0,0.0,0.0,0.0,0.0,0.0,0.0,0.0,0.0,0.0,0.0,0.0,0.0,0.0,0.0,0.0,0.0,0.0,0.0,0.0,0.0,0.0,0.0,0.0,0.0,0.0,0.0,0.0,0.0,0.0,0.0,0.0,0.0,0.0,0.0,0.0,0.0,0.0,0.0,0.0,0.0,0.0,0.0,0.0,0.0,0.0,0.0,0.0,0.0,0.0,0.0,0.0,0.0,0.0,0.0,0.0,0.0,0.0,0.0,0.0,0.0,0.0,0.0,0.0,0.0,0.0,0.0,0.0,0.0,0.0,0.0,0.0,0.0,0.0,0.0,0.0,0.0,0.0,0.0,0.0,0.0,0.0,0.0,0.0,0.0,0.0,0.0,0.0,0.0,0.0,0.0,0.0,0.0,0.0,0.0,0.0,0.0,0.0,0.0,0.0,0.0,0.0,0.0,0.0,0.0,0.0,0.0,0.0,0.0,0.0,0.0,0.0,0.0,0.0,0.0,0.0,0.0,0.0,0.0,0.0,0.0,0.0,0.0,0.0,0.0,0.0,0.0,0.0,0.0,0.0,0.0,0.0,0.0,0.0,0.0,0.0,0.0,0.0,0.0,0.0,0.0,0.0,0.0,0.0,0.0,0.0,0.0,0.0,0.0,0.0,0.0,0.0,0.0,0.0,0.0,0.0,0.0,0.0,0.0,0.0,0.0,0.0,0.0,0.0,0.0,0.0,0.0,0.0,0.0,0.0,0.0,0.0,0.0,0.0,0.0,0.0,0.0,0.0,0.0,0.0,0.0,0.0,0.0,0.0,0.0,0.0,0.0,0.0,0.0,0.0,0.0,0.0,0.0,0.0,0.0,0.0,0.0,0.0,0.0,0.0,0.0,0.0,0.0,0.0,0.0,0.0,0.0,0.0,0.0,0.0,0.0,0.0,0.0,0.0,0.0,0.0,0.0,0.0,0.0,0.0,0.0,0.0,0.0,0.0,0.0,0.0,0.0,0.0,0.0,0.0,0.0,0.0,0.0,0.0,0.0,0.0,0.0,0.0,0.0,0.0,0.0,0.0,0.0,0.0,0.0,0.0,0.0,0.0,0.0,0.0,0.0,0.0,0.0,0.0,0.0,0.0,0.0,0.0,0.0,0.0,0.0,0.0,0.0,0.0,0.0,0.0,0.0,0.0,0.0,0.0,0.0,0.0,0.0,0.0,0.0,0.0,0.0,0.0,0.0,0.0,0.0,0.0,0.0,0.0,0.0,0.0,0.0,0.0,0.0,0.0,0.0,0.0,0.0,0.0,0.0,0.0,0.0,0.0,0.0,0.0,0.0,0.0,0.0,0.0,0.0,0.0,0.0,0.0,0.0,0.0,0.0,0.0,0.0,0.0,0.0,0.0,0.0,0.0,0.0,0.0,0.0,0.0,0.0,0.0,0.0,0.0,0.0,0.0,0.0,0.0,0.0,0.0,0.0,0.0,0.0,0.0,0.0,0.0,0.0,0.0,0.0,0.0,0.0,0.0,0.0,0.0,0.0,0.0,0.0,0.0,0.0,0.0,0.0,0.0,0.0,0.0,0.0,0.0,0.0,0.0,0.0,0.0,0.0,0.0,0.0,0.0,0.0,0.0,0.0,0.0,0.0,0.0,0.0,0.0,0.0,0.0,0.0,0.0,0.0,0.0,0.0,0.0,0.0,0.0,0.0,0.0,0.0,0.0,0.0,0.0,0.0,0.0,0.0,0.0,0.0,0.0,0.0,0.0,0.0,0.0,0.0,0.0,0.0,0.0,0.0,0.0,0.0,0.0,0.0,0.0,0.0,0.0,0.0,0.0,0.0,0.0,0.0,0.0,0.0,0.0,0.0,0.0,0.0,0.0,0.0,0.0,0.0,0.0,0.0,0.0,0.0,0.0,0.0,0.0,0.0,0.0,0.0,0.0,0.0,0.0,0.0,0.0,0.0,0.0,0.0,0.0,0.0,0.0,0.0,0.0,0.0,0.0,0.0,0.0,0.0,0.0,0.0,0.0,0.0,0.0,0.0,0.0,0.0,0.0,0.0,0.0,0.0,0.0,0.0,0.0,0.0,0.0,0.0,0.0,0.0,0.0,0.0,0.0,0.0,0.0,0.0,0.0,0.0,0.0,0.0,0.0,0.0,0.0,0.0,0.0,0.0,0.0,0.0,0.0,0.0,0.0,0.0,0.0,0.0,0.0,0.0,0.0,0.0,0.0,0.0,0.0,0.0,0.0,0.0,0.0,0.0,0.0,0.0,0.0,0.0,0.0,0.0,0.0,0.0,0.0,0.0,0.0,0.0,0.0,0.0,0.0,0.0,0.0,0.0,0.0,0.0,0.0,0.0,0.0,0.0,0.0,0.0,0.0,0.0,0.0,0.0,0.0,0.0,0.0,0.0,0.0,0.0,0.0,0.0,0.0,0.0,0.0,0.0,0.0,0.0,0.0,0.0,0.0,0.0,0.0,0.0,0.0,0.0,0.0,0.0,0.0,0.0,0.0,0.0,0.0,0.0,0.0,0.0,0.0,0.0,0.0,0.0,0.0,0.0,0.0,0.0,0.0,0.0,0.0,0.0,0.0,0.0,0.0,0.0,0.0,-0.8235,0.0,0.0,0.0,0.0,0.0,0.0,0.0,0.0,0.0,0.0,0.0,0.0,0.0,0.0,0.0,0.0,0.0,0.0,0.0,0.0,0.0,0.0,0.0,0.0,0.0,0.0,0.0,0.0,0.0,0.0,0.0,0.0,0.0,0.0,0.0,0.0,0.0,0.0,0.0,0.0,0.0,0.0,0.0,0.0,0.0,0.0,0.0,0.0,0.0,0.0,0.0,0.0,0.0,0.0,0.0,0.0,0.0,0.0,0.0,0.0,0.0,0.0,0.0,0.0,0.0,0.0,0.0,0.0,0.0,0.0,0.0,0.0,0.0,0.0,0.0,0.0,0.0,0.0,0.0,0.0,0.0,0.0,0.0,0.0,0.0,0.0,0.0,0.0,0.0,0.0,0.0,0.0,0.0,0.0,0.0,0.0,0.0,0.0,0.0,0.0,0.0,0.0,0.0,0.0,0.0,0.0,0.0,0.0,0.0,0.0,-0.862,-0.8742,-0.8259,-0.8082,-0.8284,0.0,0.0,0.0,0.0,0.0,0.0,0.0,0.0,0.0,0.0,0.0,0.0,0.0,0.0,0.0,0.0,0.0,0.0,0.0,0.0,0.0,0.0,0.0,0.0,0.0,0.0,0.0,0.0,0.0,0.0,0.0,0.0,0.0,0.0,0.0,0.0,0.0,0.0,0.0,0.0,0.0,0.0,0.0,0.0,0.0,0.0,0.0,0.0,0.0,0.0,0.0,0.0,0.0,0.0,0.0,0.0,0.0,0.0,0.0,0.0,0.0,0.0,0.0,0.0,0.0,0.0,0.0,0.0,0.0,0.0,0.0,0.0,0.0,0.0,0.0,0.0,0.0,0.0,0.0,0.0,0.0,0.0,0.0,0.0,0.0,0.0,0.0,0.0,0.0,0.0,0.0,0.0,0.0,0.0,0.0,0.0,0.0,0.0,0.0,0.0,0.0,0.0,0.0,0.0,0.0,0.0,0.0,0.0,0.0,0.0,0.0,0.0,-0.8993,-0.8823,-0.8633,0.0,0.0,0.0,0.0,0.0,0.0,0.0,0.0,0.0,0.0,0.0,0.0,0.0,0.0,0.0,0.0,0.0,0.0,0.0,0.0,0.0,0.0,0.0,0.0,0.0,0.0,0.0,0.0,0.0,0.0,0.0,0.0,0.0,0.0,0.0,0.0,0.0,0.0,0.0,0.0,0.0,0.0,0.0,0.0,0.0,0.0,0.0,0.0,0.0,0.0,0.0,0.0,0.0,0.0,0.0,0.0,0.0,0.0,0.0,0.0,0.0,0.0,0.0,0.0,0.0,0.0,0.0,0.0,0.0,0.0,0.0,0.0,0.0,0.0,0.0,0.0,0.0,0.0,0.0,0.0,0.0,0.0,0.0,0.0,0.0,0.0,0.0,0.0,0.0,0.0,0.0,0.0,0.0,0.0,0.0,0.0,0.0,0.0,0.0,0.0,0.0,0.0,0.0,0.0,0.0,0.0,0.0,0.0,0.0,0.0,-0.9009,-1.0025,-0.9699,0.0,-0.9565,0.0,0.0,0.0,0.0,0.0,0.0,0.0,0.0,0.0,0.0,0.0,0.0,0.0,0.0,0.0,0.0,0.0,0.0,0.0,0.0,0.0,0.0,0.0,0.0,0.0,0.0,0.0,0.0,0.0,0.0,0.0,0.0,0.0,0.0,0.0,0.0,0.0,0.0,0.0,0.0,0.0,0.0,0.0,0.0,0.0,0.0,0.0,0.0,0.0,0.0,0.0,0.0,0.0,0.0,0.0,0.0,0.0,0.0,0.0,0.0,0.0,0.0,0.0,0.0,0.0,0.0,0.0,0.0,0.0,0.0,0.0,0.0,0.0,0.0,0.0,0.0,0.0,0.0,0.0,0.0,0.0,0.0,0.0,0.0,0.0,0.0,0.0,0.0,0.0,0.0,0.0,0.0,0.0,0.0,0.0,0.0,0.0,0.0,0.0,0.0,0.0,0.0,0.0,0.0,0.0,0.0,0.0,0.0,0.0,0.0,0.0,-1.0191,-0.9838,-0.9681,0.0,0.0,0.0,0.0,0.0,0.0,0.0,0.0,0.0,0.0,0.0,0.0,0.0,0.0,0.0,0.0,0.0,0.0,0.0,0.0,0.0,0.0,0.0,0.0,0.0,0.0,0.0,0.0,0.0,0.0,0.0,0.0,0.0,0.0,0.0,0.0,0.0,0.0,0.0,0.0,0.0,0.0,0.0,0.0,0.0,0.0,0.0,0.0,0.0,0.0,0.0,0.0,0.0,0.0,0.0,0.0,0.0,0.0,0.0,0.0,0.0,0.0,0.0,0.0,0.0,0.0,0.0,0.0,0.0,0.0,0.0,0.0,0.0,0.0,0.0,0.0,0.0,0.0,0.0,0.0,0.0,0.0,0.0,0.0,0.0,0.0,0.0,0.0,0.0,0.0,0.0,0.0,0.0,0.0,0.0,0.0,0.0,0.0,0.0,0.0,0.0,0.0,0.0,0.0,0.0,0.0,0.0,0.0,0.0,0.0,-0.9938,0.0,-1.05,-1.0219,-0.997,-0.9752,0.0,0.0,0.0,0.0,0.0,0.0,0.0,0.0,0.0,0.0,0.0,0.0,0.0,0.0,0.0,0.0,0.0,0.0,0.0,0.0,0.0,0.0,0.0,0.0,0.0,0.0,0.0,0.0,0.0,0.0,0.0,0.0,0.0,0.0,0.0,0.0,0.0,0.0,0.0,0.0,0.0,0.0,0.0,0.0,0.0,0.0,0.0,0.0,0.0,0.0,0.0,0.0,0.0,0.0,0.0,0.0,0.0,0.0,0.0,0.0,0.0,0.0,0.0,0.0,0.0,0.0,0.0,0.0,0.0,0.0,0.0,0.0,0.0,0.0,0.0,0.0,0.0,0.0,0.0,0.0,0.0,0.0,0.0,0.0,0.0,0.0,0.0,0.0,0.0,0.0,0.0,0.0,0.0,0.0,0.0,0.0,0.0,0.0,0.0,0.0,0.0,0.0,0.0,0.0,0.0,0.0,0.0,0.0,0.0,-1.0738,-1.0685,-1.1322,-1.1093,-1.0614,0.0,0.0,0.0,0.0,0.0,0.0,0.0,0.0,0.0,0.0,0.0,0.0,0.0,0.0,0.0,0.0,0.0,0.0,0.0,0.0,0.0,0.0,0.0,0.0,0.0,0.0,0.0,0.0,0.0,0.0,0.0,0.0,0.0,0.0,0.0,0.0,0.0,0.0,0.0,0.0,0.0,0.0,0.0,0.0,0.0,0.0,0.0,0.0,0.0,0.0,0.0,0.0,0.0,0.0,0.0,0.0,0.0,0.0,0.0,0.0,0.0,0.0,0.0,0.0,0.0,0.0,0.0,0.0,0.0,0.0,0.0,0.0,0.0,0.0,0.0,0.0,0.0,0.0,0.0,0.0,0.0,0.0,0.0,0.0,0.0,0.0,0.0,0.0,0.0,0.0,0.0,0.0,0.0,0.0,0.0,0.0,0.0,0.0,0.0,0.0,0.0,0.0,0.0,0.0,0.0,0.0,0.0,0.0,0.0,-1.0107,-1.03,-1.1035,-1.2245,-1.1163,-1.0582,0.0,0.0,0.0,0.0,0.0,0.0,0.0,0.0,0.0,0.0,0.0,0.0,0.0,0.0,0.0,0.0,0.0,0.0,0.0,0.0,0.0,0.0,0.0,0.0,0.0,0.0,0.0,0.0,0.0,0.0,0.0,0.0,0.0,0.0,0.0,0.0,0.0,0.0,0.0,0.0,0.0,0.0,0.0,0.0,0.0,0.0,0.0,0.0,0.0,0.0,0.0,0.0,0.0,0.0,0.0,0.0,0.0,0.0,0.0,0.0,0.0,0.0,0.0,0.0,0.0,0.0,0.0,0.0,0.0,0.0,0.0,0.0,0.0,0.0,0.0,0.0,0.0,0.0,0.0,0.0,0.0,0.0,0.0,0.0,0.0,0.0,0.0,0.0,0.0,0.0,0.0,0.0,0.0,0.0,0.0,0.0,0.0,0.0,0.0,0.0,0.0,0.0,0.0,0.0,0.0,0.0,0.0,0.0,0.0,-1.018,0.0,-1.1729,0.0,-1.1347,-1.0651,0.0,0.0,0.0,0.0,0.0,0.0,0.0,0.0,0.0,0.0,0.0,0.0,0.0,0.0,0.0,0.0,0.0,0.0,0.0,0.0,0.0,0.0,0.0,0.0,0.0,0.0,0.0,0.0,0.0,0.0,0.0,0.0,0.0,0.0,0.0,0.0,0.0,0.0,0.0,0.0,0.0,0.0,0.0,0.0,0.0,0.0,0.0,0.0,0.0,0.0,0.0,0.0,0.0,0.0,0.0,0.0,0.0,0.0,0.0,0.0,0.0,0.0,0.0,0.0,0.0,0.0,0.0,0.0,0.0,0.0,0.0,0.0,0.0,0.0,0.0,0.0,0.0,0.0,0.0,0.0,0.0,0.0,0.0,0.0,0.0,0.0,0.0,0.0,0.0,0.0,0.0,0.0,0.0,0.0,0.0,0.0,0.0,0.0,0.0,0.0,0.0,0.0,0.0,0.0,0.0,0.0,0.0,0.0,-1.0313,-1.1905,-1.2707,-1.2711,-1.1957,-1.176,-1.0881,0.0,0.0,0.0,0.0,0.0,0.0,0.0,0.0,0.0,0.0,0.0,0.0,0.0,0.0,0.0,0.0,0.0,0.0,0.0,0.0,0.0,0.0,0.0,0.0,0.0,0.0,0.0,0.0,0.0,0.0,0.0,0.0,0.0,0.0,0.0,0.0,0.0,0.0,0.0,0.0,0.0,0.0,0.0,0.0,0.0,0.0,0.0,0.0,0.0,0.0,0.0,0.0,0.0,0.0,0.0,0.0,0.0,0.0,0.0,0.0,0.0,0.0,0.0,0.0,0.0,0.0,0.0,0.0,0.0,0.0,0.0,0.0,0.0,0.0,0.0,0.0,0.0,0.0,0.0,0.0,0.0,0.0,0.0,0.0,0.0,0.0,0.0,0.0,0.0,0.0,0.0,0.0,0.0,0.0,0.0,0.0,0.0,0.0,0.0,0.0,0.0,0.0,0.0,0.0,0.0,0.0,0.0,0.0,0.0,-1.1244,-1.208,-1.2699,-1.3025,-1.1815,-1.1122,0.0,0.0,0.0,0.0,0.0,0.0,0.0,0.0,0.0,0.0,0.0,0.0,0.0,0.0,0.0,0.0,0.0,0.0,0.0,0.0,0.0,0.0,0.0,0.0,0.0,0.0,0.0,0.0,0.0,0.0,0.0,0.0,0.0,0.0,0.0,0.0,0.0,0.0,0.0,0.0,0.0,0.0,0.0,0.0,0.0,0.0,0.0,0.0,0.0,0.0,0.0,0.0,0.0,0.0,0.0,0.0,0.0,0.0,0.0,0.0,0.0,0.0,0.0,0.0,0.0,0.0,0.0,0.0,0.0,0.0,0.0,0.0,0.0,0.0,0.0,0.0,0.0,0.0,0.0,0.0,0.0,0.0,0.0,0.0,0.0,0.0,0.0,0.0,0.0,0.0,0.0,0.0,0.0,0.0,0.0,0.0,0.0,0.0,0.0,0.0,0.0,0.0,0.0,0.0,0.0,0.0,0.0,0.0,0.0,-1.2489,-1.2952,-1.3468,-1.4017,-1.2232,-1.1283,-1.1273,0.0,0.0,0.0,0.0,0.0,0.0,0.0,0.0,0.0,0.0,0.0,0.0,0.0,0.0,0.0,0.0,0.0,0.0,0.0,0.0,0.0,0.0,0.0,0.0,0.0,0.0,0.0,0.0,0.0,0.0,0.0,0.0,0.0,0.0,0.0,0.0,0.0,0.0,0.0,0.0,0.0,0.0,0.0,0.0,0.0,0.0,0.0,0.0,0.0,0.0,0.0,0.0,0.0,0.0,0.0,0.0,0.0,0.0,0.0,0.0,0.0,0.0,0.0,0.0,0.0,0.0,0.0,0.0,0.0,0.0,0.0,0.0,0.0,0.0,0.0,0.0,0.0,0.0,0.0,0.0,0.0,0.0,0.0,0.0,0.0,0.0,0.0,0.0,0.0,0.0,0.0,0.0,0.0,0.0,0.0,0.0,0.0,0.0,0.0,0.0,0.0,0.0,0.0,0.0,0.0,0.0,0.0,0.0,-1.509,-1.5068,-1.498,-1.4859,-1.3012,-1.1494,0.0,0.0,0.0,0.0,0.0,0.0,0.0,0.0,0.0,0.0,0.0,0.0,0.0,0.0,0.0,0.0,0.0,0.0,0.0,0.0,0.0,0.0,0.0,0.0,0.0,0.0,0.0,0.0,0.0,0.0,0.0,0.0,0.0,0.0,0.0,0.0,0.0,0.0,0.0,0.0,0.0,0.0,0.0,0.0,0.0,0.0,0.0,0.0,0.0,0.0,0.0,0.0,0.0,0.0,0.0,0.0,0.0,0.0,0.0,0.0,0.0,0.0,0.0,0.0,0.0,0.0,0.0,0.0,0.0,0.0,0.0,0.0,0.0,0.0,0.0,0.0,0.0,0.0,0.0,0.0,0.0,0.0,0.0,0.0,0.0,0.0,0.0,0.0,0.0,0.0,0.0,0.0,0.0,0.0,0.0,0.0,0.0,0.0,0.0,0.0,0.0,0.0,0.0,0.0,0.0,0.0,0.0,0.0,0.0,-1.5011,-1.62,-1.6511,-1.5821,-1.4044,-1.2581,0.0,0.0,0.0,0.0,0.0,0.0,0.0,0.0,0.0,0.0,0.0,0.0,0.0,0.0,0.0,0.0,0.0,0.0,0.0,0.0,0.0,0.0,0.0,0.0,0.0,0.0,0.0,0.0,0.0,0.0,0.0,0.0,0.0,0.0,0.0,0.0,0.0,0.0,0.0,0.0,0.0,0.0,0.0,0.0,0.0,0.0,0.0,0.0,0.0,0.0,0.0,0.0,0.0,0.0,0.0,0.0,0.0,0.0,0.0,0.0,0.0,0.0,0.0,0.0,0.0,0.0,0.0,0.0,0.0,0.0,0.0,0.0,0.0,0.0,0.0,0.0,0.0,0.0,0.0,0.0,0.0,0.0,0.0,0.0,0.0,0.0,0.0,0.0,0.0,0.0,0.0,0.0,0.0,0.0,0.0,0.0,0.0,0.0,0.0,0.0,0.0,0.0,0.0,0.0,0.0,0.0,0.0,0.0,-1.496,-1.6628,-1.7926,-1.8137,-1.7174,-1.5324,-1.3679,0.0,0.0,0.0,0.0,0.0,0.0,0.0,0.0,0.0,0.0,0.0,0.0,0.0,0.0,0.0,0.0,0.0,0.0,0.0,0.0,0.0,0.0,0.0,0.0,0.0,0.0,0.0,0.0,0.0,0.0,0.0,0.0,0.0,0.0,0.0,0.0,0.0,0.0,0.0,0.0,0.0,0.0,0.0,0.0,0.0,0.0,0.0,0.0,0.0,0.0,0.0,0.0,0.0,0.0,0.0,0.0,0.0,0.0,0.0,0.0,0.0,0.0,0.0,0.0,0.0,0.0,0.0,0.0,0.0,0.0,0.0,0.0,0.0,0.0,0.0,0.0,0.0,0.0,0.0,0.0,0.0,0.0,0.0,0.0,0.0,0.0,0.0,0.0,0.0,0.0,0.0,0.0,0.0,0.0,0.0,0.0,0.0,0.0,0.0,0.0,0.0,0.0,0.0,0.0,0.0,0.0,0.0,0.0,-1.6309,-1.8834,-1.9772,-1.9763,-1.8753,-1.6744,-1.4733,0.0,0.0,0.0,0.0,0.0,0.0,0.0,0.0,0.0,0.0,0.0,0.0,0.0,0.0,0.0,0.0,0.0,0.0,0.0,0.0,0.0,0.0,0.0,0.0,0.0,0.0,0.0,0.0,0.0,0.0,0.0,0.0,0.0,0.0,0.0,0.0,0.0,0.0,0.0,0.0,0.0,0.0,0.0,0.0,0.0,0.0,0.0,0.0,0.0,0.0,0.0,0.0,0.0,0.0,0.0,0.0,0.0,0.0,0.0,0.0,0.0,0.0,0.0,0.0,0.0,0.0,0.0,0.0,0.0,0.0,0.0,0.0,0.0,0.0,0.0,0.0,0.0,0.0,0.0,0.0,0.0,0.0,0.0,0.0,0.0,0.0,0.0,0.0,0.0,0.0,0.0,0.0,0.0,0.0,0.0,0.0,0.0,0.0,0.0,0.0,0.0,0.0,0.0,0.0,0.0,0.0,0.0,0.0,-1.6928,-1.8867,-2.0341,-2.0904,-2.0465,-1.795,-1.567,0.0,0.0,0.0,0.0,0.0,0.0,0.0,0.0,0.0,0.0,0.0,0.0,0.0,0.0,0.0,0.0,0.0,0.0,0.0,0.0,0.0,0.0,0.0,0.0,0.0,0.0,0.0,0.0,0.0,0.0,0.0,0.0,0.0,0.0,0.0,0.0,0.0,0.0,0.0,0.0,0.0,0.0,0.0,0.0,0.0,0.0,0.0,0.0,-0.9891,0.0,0.0,0.0,0.0,0.0,0.0,0.0,0.0,0.0,0.0,0.0,0.0,0.0,0.0,0.0,0.0,0.0,0.0,0.0,0.0,0.0,0.0,0.0,0.0,0.0,0.0,0.0,0.0,0.0,0.0,0.0,0.0,0.0,0.0,0.0,0.0,0.0,0.0,0.0,0.0,0.0,0.0,0.0,0.0,0.0,0.0,0.0,0.0,0.0,0.0,0.0,0.0,0.0,0.0,0.0,0.0,0.0,0.0,0.0,-1.7554,-1.9991,-2.098,-2.1318,-2.096,-1.9485,-1.7387,0.0,0.0,0.0,0.0,0.0,0.0,0.0,0.0,0.0,0.0,0.0,0.0,0.0,0.0,0.0,0.0,0.0,0.0,0.0,0.0,0.0,0.0,0.0,0.0,0.0,0.0,0.0,0.0,0.0,0.0,0.0,0.0,0.0,0.0,0.0,0.0,0.0,0.0,0.0,0.0,0.0,0.0,0.0,0.0,0.0,0.0,0.0,0.0,0.0,0.0,0.0,0.0,0.0,0.0,0.0,0.0,0.0,0.0,0.0,0.0,0.0,0.0,0.0,0.0,0.0,0.0,0.0,0.0,0.0,0.0,0.0,0.0,0.0,0.0,0.0,0.0,0.0,0.0,0.0,0.0,0.0,0.0,0.0,0.0,0.0,0.0,0.0,0.0,0.0,0.0,0.0,0.0,0.0,0.0,0.0,0.0,0.0,0.0,0.0,0.0,0.0,0.0,0.0,0.0,0.0,0.0,0.0,-1.6133,-1.8225,-2.1431,-2.1778,-2.1727,-2.1406,-2.1085,-1.9268,-1.5766,0.0,0.0,0.0,0.0,0.0,0.0,0.0,0.0,0.0,0.0,0.0,0.0,0.0,0.0,0.0,0.0,0.0,0.0,0.0,0.0,0.0,0.0,0.0,0.0,0.0,0.0,0.0,0.0,0.0,0.0,0.0,0.0,0.0,0.0,0.0,0.0,0.0,0.0,-0.8597,-0.9545,0.0,0.0,0.0,0.0,0.0,0.0,0.0,0.0,-1.056,0.0,0.0,0.0,0.0,0.0,0.0,0.0,0.0,0.0,0.0,0.0,0.0,0.0,0.0,0.0,0.0,0.0,0.0,0.0,0.0,0.0,0.0,0.0,0.0,0.0,0.0,0.0,0.0,0.0,0.0,0.0,0.0,0.0,0.0,0.0,0.0,0.0,0.0,0.0,0.0,0.0,0.0,0.0,0.0,0.0,0.0,0.0,0.0,0.0,0.0,0.0,0.0,0.0,0.0,0.0,0.0,-1.6202,-1.7074,-1.9107,-2.2377,-2.3207,-2.3485,-2.3259,-2.2405,-2.0548,-1.7567,0.0,0.0,0.0,0.0,0.0,0.0,0.0,0.0,0.0,0.0,0.0,0.0,0.0,0.0,0.0,0.0,0.0,0.0,0.0,0.0,0.0,0.0,0.0,0.0,0.0,0.0,0.0,0.0,0.0,0.0,0.0,0.0,0.0,0.0,0.0,0.0,0.0,0.0,0.0,-1.0875,-1.1687,0.0,0.0,0.0,0.0,0.0,0.0,0.0,0.0,-1.1084,0.0,0.0,0.0,0.0,0.0,0.0,0.0,0.0,0.0,0.0,0.0,0.0,0.0,0.0,0.0,0.0,0.0,0.0,0.0,0.0,0.0,0.0,0.0,0.0,0.0,0.0,0.0,0.0,0.0,0.0,0.0,0.0,0.0,0.0,0.0,0.0,0.0,0.0,0.0,0.0,0.0,0.0,0.0,0.0,0.0,0.0,0.0,0.0,0.0,0.0,0.0,0.0,0.0,0.0,0.0,-1.5793,-1.7943,-2.0241,-2.2626,-2.3549,-2.3901,-2.367,-2.1928,-1.9812,0.0,0.0,0.0,0.0,0.0,0.0,0.0,0.0,0.0,0.0,0.0,0.0,0.0,0.0,0.0,0.0,0.0,0.0,0.0,0.0,0.0,0.0,0.0,0.0,0.0,0.0,0.0,0.0,0.0,0.0,0.0,0.0,0.0,0.0,0.0,0.0,0.0,0.0,0.0,0.0,-1.0962,-1.1694,-1.2219,0.0,0.0,0.0,0.0,0.0,0.0,-1.1967,-1.1519,0.0,0.0,0.0,0.0,0.0,0.0,0.0,0.0,0.0,0.0,0.0,0.0,0.0,0.0,0.0,0.0,0.0,0.0,0.0,0.0,0.0,0.0,0.0,0.0,0.0,0.0,0.0,0.0,0.0,0.0,0.0,0.0,0.0,0.0,0.0,0.0,0.0,0.0,0.0,0.0,0.0,0.0,0.0,0.0,0.0,0.0,0.0,0.0,0.0,0.0,0.0,0.0,0.0,0.0,0.0,-1.5286,-1.8615,-2.113,-2.2724,-2.3753,-2.411,-2.3737,-2.1499,-1.9214,0.0,0.0,0.0,0.0,0.0,0.0,0.0,0.0,0.0,0.0,0.0,0.0,0.0,0.0,0.0,0.0,0.0,0.0,0.0,0.0,0.0,0.0,0.0,0.0,0.0,0.0,0.0,0.0,0.0,0.0,0.0,0.0,0.0,0.0,0.0,0.0,0.0,0.0,0.0,0.0,0.0,-1.2275,-1.3002,-1.3071,0.0,0.0,0.0,0.0,-1.4394,-1.3358,0.0,0.0,0.0,0.0,0.0,0.0,0.0,0.0,0.0,0.0,0.0,0.0,0.0,0.0,0.0,0.0,0.0,0.0,0.0,0.0,0.0,0.0,0.0,0.0,0.0,0.0,0.0,0.0,0.0,0.0,0.0,0.0,0.0,0.0,0.0,0.0,0.0,0.0,0.0,0.0,0.0,0.0,0.0,0.0,0.0,0.0,0.0,0.0,0.0,0.0,0.0,0.0,0.0,0.0,0.0,0.0,-1.5332,-1.8712,-2.1274,-2.2929,-2.4439,-2.4831,-2.3981,-2.2645,-2.0389,0.0,0.0,0.0,0.0,0.0,0.0,0.0,0.0,0.0,0.0,0.0,0.0,0.0,0.0,0.0,0.0,0.0,0.0,0.0,0.0,0.0,0.0,0.0,0.0,0.0,0.0,0.0,0.0,0.0,0.0,0.0,0.0,0.0,0.0,0.0,0.0,0.0,0.0,0.0,0.0,0.0,-1.547,-1.5863,-1.533,-1.5179,0.0,0.0,-1.5317,-1.624,-1.6156,0.0,0.0,0.0,0.0,0.0,0.0,0.0,0.0,0.0,0.0,0.0,0.0,0.0,0.0,0.0,0.0,0.0,0.0,0.0,0.0,0.0,0.0,0.0,0.0,0.0,0.0,0.0,0.0,0.0,0.0,0.0,0.0,0.0,0.0,0.0,0.0,0.0,0.0,0.0,0.0,0.0,0.0,0.0,0.0,0.0,0.0,0.0,0.0,0.0,0.0,0.0,0.0,0.0,0.0,0.0,-1.4482,-1.542,-1.9657,-2.2265,-2.3026,-2.4529,-2.4908,-2.401,-2.1954,-1.9444,0.0,0.0,0.0,0.0,0.0,0.0,0.0,0.0,0.0,0.0,0.0,0.0,0.0,0.0,0.0,0.0,0.0,0.0,0.0,0.0,0.0,0.0,0.0,0.0,0.0,0.0,0.0,0.0,0.0,0.0,0.0,0.0,0.0,0.0,0.0,0.0,0.0,0.0,0.0,0.0,0.0,0.0,-1.6509,-1.6687,0.0,0.0,0.0,-1.6944,-1.7357,0.0,0.0,0.0,0.0,0.0,0.0,0.0,0.0,0.0,0.0,0.0,0.0,0.0,0.0,0.0,0.0,0.0,0.0,0.0,0.0,0.0,0.0,0.0,0.0,0.0,0.0,0.0,0.0,0.0,0.0,0.0,0.0,0.0,0.0,0.0,0.0,0.0,0.0,0.0,0.0,0.0,0.0,0.0,0.0,0.0,0.0,0.0,0.0,0.0,0.0,0.0,0.0,0.0,0.0,0.0,0.0,0.0,-1.5715,-2.0495,-2.312,-2.334,-2.4633,-2.4788,-2.3717,-2.1591,0.0,0.0,0.0,0.0,0.0,0.0,0.0,0.0,0.0,0.0,0.0,0.0,0.0,0.0,0.0,0.0,0.0,0.0,0.0,0.0,0.0,0.0,0.0,0.0,0.0,0.0,0.0,-0.484,0.0,0.0,0.0,0.0,0.0,0.0,0.0,0.0,0.0,0.0,0.0,0.0,0.0,0.0,-1.6463,-1.7578,-1.8395,-1.8814,0.0,0.0,-1.8652,-1.8925,-1.7671,-1.6224,0.0,0.0,0.0,0.0,0.0,0.0,0.0,0.0,0.0,0.0,0.0,0.0,0.0,0.0,0.0,0.0,0.0,0.0,0.0,0.0,0.0,0.0,0.0,0.0,0.0,0.0,0.0,0.0,0.0,0.0,0.0,0.0,0.0,0.0,0.0,0.0,0.0,0.0,0.0,0.0,0.0,0.0,0.0,0.0,0.0,0.0,0.0,0.0,0.0,0.0,0.0,0.0,0.0,0.0,0.0,-1.6631,-2.0864,-2.3452,-2.4197,-2.498,-2.4601,-2.2941,-2.244,-1.9925,0.0,0.0,0.0,0.0,0.0,0.0,0.0,0.0,0.0,0.0,0.0,0.0,0.0,0.0,0.0,0.0,0.0,0.0,0.0,0.0,0.0,0.0,0.0,0.0,0.0,0.0,0.0,0.0,0.0,0.0,0.0,0.0,0.0,0.0,0.0,0.0,0.0,0.0,0.0,0.0,0.0,-1.9107,-2.0123,-2.1046,-2.1867,0.0,0.0,-2.0622,-2.1406,-2.074,-1.9323,-1.6913,0.0,0.0,0.0,0.0,0.0,0.0,0.0,0.0,0.0,0.0,0.0,0.0,0.0,0.0,0.0,0.0,0.0,0.0,0.0,0.0,0.0,0.0,0.0,0.0,0.0,0.0,0.0,0.0,0.0,0.0,0.0,0.0,0.0,0.0,0.0,0.0,0.0,0.0,0.0,0.0,0.0,0.0,0.0,0.0,0.0,0.0,0.0,0.0,0.0,0.0,0.0,0.0,0.0,-1.5734,-1.6631,-2.0856,-2.3461,-2.4272,-2.4973,-2.4768,-2.3572,-2.2683,-2.0371,0.0,0.0,0.0,0.0,0.0,0.0,0.0,0.0,0.0,0.0,0.0,0.0,0.0,0.0,0.0,0.0,0.0,0.0,0.0,0.0,0.0,0.0,0.0,0.0,0.0,0.0,0.0,0.0,-0.7343,-0.779,-0.8915,0.0,0.0,0.0,0.0,0.0,0.0,0.0,0.0,0.0,0.0,-2.0598,-2.2399,-2.2651,0.0,0.0,-2.2709,-2.199,-2.1818,-2.0618,-1.9006,-1.7026,-1.5536,0.0,0.0,0.0,0.0,0.0,0.0,0.0,0.0,0.0,0.0,0.0,0.0,0.0,0.0,0.0,0.0,0.0,0.0,0.0,0.0,0.0,0.0,0.0,0.0,0.0,0.0,0.0,0.0,0.0,0.0,0.0,0.0,0.0,0.0,0.0,0.0,0.0,0.0,0.0,0.0,0.0,0.0,0.0,0.0,0.0,0.0,0.0,0.0,0.0,0.0,0.0,0.0,-1.5992,-1.7385,-2.1106,-2.3564,-2.4616,-2.5088,-2.4899,-2.3971,-2.2861,-2.081,0.0,0.0,0.0,0.0,0.0,0.0,0.0,0.0,0.0,0.0,0.0,0.0,0.0,0.0,0.0,0.0,0.0,0.0,0.0,0.0,0.0,0.0,0.0,0.0,0.0,0.0,0.0,0.0,-0.8648,-0.9066,-0.9607,0.0,0.0,0.0,0.0,0.0,0.0,0.0,0.0,0.0,0.0,-2.1972,-2.3846,-2.3984,-2.4,-2.4349,-2.3624,-2.2826,-2.2255,-2.0901,-1.9391,-1.7714,0.0,0.0,0.0,0.0,0.0,0.0,0.0,0.0,0.0,0.0,0.0,0.0,0.0,0.0,0.0,0.0,0.0,0.0,0.0,0.0,0.0,0.0,0.0,0.0,0.0,0.0,0.0,-0.8554,0.0,0.0,-0.8719,0.0,0.0,0.0,0.0,0.0,0.0,0.0,0.0,0.0,0.0,0.0,0.0,0.0,0.0,0.0,0.0,0.0,0.0,0.0,0.0,0.0,0.0,-1.6565,-1.9122,-2.1753,-2.3838,-2.5302,-2.5391,-2.494,-2.3949,-2.3056,-2.135,-1.8706,0.0,0.0,0.0,0.0,0.0,0.0,0.0,0.0,0.0,0.0,0.0,0.0,0.0,0.0,0.0,0.0,0.0,0.0,0.0,0.0,0.0,0.0,0.0,0.0,0.0,0.0,-0.8461,-0.9329,-0.9837,0.0,0.0,0.0,0.0,0.0,0.0,0.0,0.0,0.0,0.0,-2.142,-2.3379,-2.4282,-2.5095,-2.5542,-2.5545,-2.4181,-2.3091,-2.3001,-2.2207,-2.1087,0.0,0.0,0.0,0.0,0.0,0.0,0.0,0.0,0.0,0.0,0.0,0.0,0.0,0.0,0.0,0.0,0.0,0.0,0.0,0.0,0.0,0.0,0.0,0.0,0.0,0.0,0.0,-1.2976,-1.2202,0.0,0.0,0.0,0.0,0.0,0.0,0.0,0.0,0.0,0.0,0.0,-1.8348,-1.9008,0.0,0.0,0.0,0.0,0.0,0.0,0.0,0.0,0.0,0.0,0.0,0.0,-1.7169,-1.9239,-2.2306,-2.4402,-2.5352,-2.5352,-2.5144,-2.4784,-2.379,-2.1733,-1.8479,0.0,0.0,0.0,0.0,0.0,0.0,0.0,0.0,0.0,0.0,0.0,0.0,0.0,0.0,0.0,0.0,0.0,0.0,0.0,0.0,0.0,0.0,0.0,0.0,0.0,-0.9113,0.0,0.0,0.0,0.0,0.0,0.0,0.0,0.0,0.0,0.0,0.0,-1.9173,-2.1434,-2.2987,-2.4213,-2.5074,-2.5453,-2.5626,0.0,0.0,0.0,0.0,0.0,0.0,0.0,0.0,0.0,0.0,0.0,0.0,0.0,0.0,-1.9239,-1.5835,-1.4964,-1.4772,-1.4772,0.0,0.0,0.0,0.0,0.0,0.0,0.0,0.0,0.0,0.0,0.0,0.0,0.0,0.0,-1.568,0.0,-1.4945,0.0,0.0,0.0,0.0,0.0,0.0,0.0,0.0,-1.9699,-2.0656,-2.0993,-2.1611,-2.1592,0.0,-2.0589,-1.887,0.0,0.0,0.0,0.0,0.0,0.0,0.0,0.0,-1.8032,-2.0126,-2.2896,-2.4674,-2.5356,-2.5352,-2.5298,-2.5178,-2.4214,-2.2129,-1.8867,-1.6892,-1.4923,0.0,0.0,0.0,0.0,0.0,0.0,0.0,0.0,0.0,0.0,0.0,0.0,0.0,0.0,0.0,0.0,0.0,0.0,0.0,0.0,0.0,0.0,0.0,-0.9919,0.0,0.0,0.0,0.0,0.0,0.0,0.0,0.0,0.0,-1.7363,-1.9014,-2.0922,-2.3172,-2.4196,-2.4955,-2.5517,0.0,0.0,0.0,0.0,0.0,0.0,0.0,-2.2515,-2.2265,-2.1748,-2.136,-2.1333,-2.1974,-2.2329,-2.1772,0.0,0.0,-1.8503,-1.7632,-1.743,-1.7404,-1.782,-1.8155,-1.8141,-1.8734,-1.9253,0.0,0.0,0.0,0.0,0.0,0.0,0.0,0.0,-1.8187,-1.7739,0.0,-1.6976,0.0,0.0,0.0,0.0,0.0,-1.929,0.0,0.0,-2.2978,-2.4124,-2.358,-2.352,-2.3494,-2.3538,-2.3617,-2.2754,-2.091,-1.8003,0.0,0.0,0.0,0.0,0.0,0.0,-1.9198,-2.1756,-2.3548,-2.4749,-2.5372,-2.5383,-2.5321,-2.5191,-2.4281,-2.2595,-2.0069,-1.8945,-1.7262,-1.4733,-1.2214,0.0,0.0,0.0,0.0,0.0,0.0,0.0,0.0,0.0,0.0,0.0,0.0,0.0,0.0,0.0,0.0,0.0,0.0,0.0,0.0,-0.9919,0.0,0.0,0.0,0.0,0.0,0.0,0.0,0.0,0.0,0.0,-1.9413,-2.0851,-2.2493,-2.4129,0.0,0.0,0.0,0.0,-2.5602,-2.561,-2.4888,-2.4356,-2.4361,-2.4297,-2.4006,-2.3234,0.0,0.0,-2.3266,-2.357,-2.3568,-2.204,-2.2531,-2.2979,-2.2906,-2.2021,-2.1459,-2.1389,-2.1387,-2.1534,-2.1522,-2.1948,-2.2515,-2.4421,0.0,0.0,0.0,0.0,-2.2415,-2.3209,-2.4255,-2.3557,-2.2474,-2.1197,-2.1136,0.0,0.0,0.0,0.0,0.0,0.0,-2.26,-2.4159,-2.5131,-2.5502,-2.5447,-2.5395,-2.5111,-2.4596,-2.4611,-2.4042,-2.2937,-2.2021,-1.9969,-1.6857,0.0,0.0,0.0,0.0,-2.112,-2.2511,-2.4229,-2.5174,-2.5331,-2.5331,-2.5273,-2.5139,-2.4252,-2.3379,-2.2458,-2.0483,-1.8703,-1.7185,-1.4702,0.0,0.0,0.0,0.0,0.0,0.0,0.0,0.0,0.0,0.0,0.0,0.0,0.0,0.0,0.0,0.0,0.0,0.0,0.0,-0.9979,-1.0609,-1.1256,0.0,0.0,0.0,0.0,0.0,0.0,0.0,0.0,0.0,-2.2665,-2.3283,-2.3984,0.0,0.0,-2.5601,-2.5601,-2.5596,-2.5601,-2.5601,-2.5382,0.0,-2.5235,-2.4705,-2.4433,-2.4805,-2.5265,-2.5411,-2.4927,-2.4991,-2.4988,-2.45,-2.4655,-2.483,-2.4749,-2.3552,-2.2574,-2.2412,-2.2847,-2.3242,-2.3233,-2.381,-2.4353,-2.8595,-2.6038,-2.608,-2.608,-2.6101,-2.634,-2.6841,-2.7456,-2.6766,-2.5782,-2.4658,-2.4542,-2.3258,-2.1204,-2.186,0.0,0.0,0.0,-2.5084,-2.6605,-2.6586,-2.6643,-2.6709,-2.6709,-2.6491,-2.6013,-2.5649,-2.5239,-2.4753,-2.4378,-2.2779,-2.0007,0.0,0.0,-1.9624,-2.1216,-2.2451,-2.3373,-2.4744,-2.5437,-2.5326,-2.5279,-2.5193,-2.5051,-2.455,-2.4055,-2.3589,-2.2109,-2.0514,-1.8899,-1.6958,-1.4782,0.0,0.0,0.0,0.0,0.0,0.0,0.0,0.0,0.0,0.0,0.0,-0.9055,-0.7762,0.0,0.0,0.0,-1.0037,-1.1367,-1.208,-1.2943,0.0,0.0,0.0,0.0,0.0,0.0,0.0,-2.0161,-2.1328,-2.263,-2.4193,-2.4644,-2.5017,-2.5535,-2.5601,-2.5601,-2.5601,0.0,-2.5601,-2.5601,-2.5601,-2.5601,-2.5601,-2.5171,-2.5016,-2.5523,-2.5601,-2.5598,-2.5609,-2.5615,-2.5601,-2.5601,-2.5601,-2.5601,-2.5601,-2.4684,-2.3921,-2.3818,-2.4177,-2.4505,-2.4443,-2.4807,-2.5139,-3.2052,-3.1952,-3.0522,-2.9827,-2.962,-2.9622,-2.9279,-2.8713,-2.8503,-2.8082,-2.7484,-2.7298,-2.6777,-2.6038,-2.6169,0.0,-2.6354,-2.7214,-2.7619,-2.7695,-2.7695,-2.7665,-2.7581,-2.7608,-2.7583,-2.7578,-2.6721,-2.6374,-2.6435,-2.555,-2.47,-2.3885,-2.228,-2.1904,-2.2647,-2.2876,-2.3415,-2.4258,-2.512,-2.5508,-2.5394,-2.5253,-2.5124,-2.4999,-2.4993,-2.4594,-2.3765,-2.3507,-2.2334,-2.0032,-1.8818,-1.7168,-1.4825,0.0,0.0,0.0,0.0,0.0,0.0,0.0,0.0,0.0,0.0,0.0,0.0,0.0,0.0,0.0,-1.1851,0.0,-1.5235,-1.618,0.0,0.0,0.0,-1.8582,-1.9483,-2.0367,-2.121,-2.2015,0.0,0.0,-2.4492,-2.5131,-2.5611,-2.5609,-2.5596,-2.5613,-2.561,-2.561,-2.5604,-2.5604,-2.5601,-2.5601,-2.5601,-2.5562,-2.5543,-2.5582,-2.5601,-2.5601,-2.5601,-2.5601,-2.5601,-2.5601,-2.5601,-2.5601,-2.5601,-2.552,-2.557,-2.5343,-2.5333,-2.5327,-2.519,-2.5178,-2.5187,-3.6015,-3.5931,-3.498,-3.3372,-3.1494,-3.161,-3.1598,-3.1446,-3.1233,-3.0715,-3.0039,-2.9964,-2.955,-2.8871,-2.8307,-2.8417,-2.9031,-2.8619,-2.8749,-2.9309,-2.9328,-2.8995,-2.8427,-2.84,-2.8101,-2.7531,-2.73,-2.7198,-2.7177,-2.6344,-2.5818,-2.5572,-2.4593,-2.3917,-2.356,-2.4203,-2.4658,-2.4891,-2.5161,-2.5269,-2.5243,-2.5124,-2.5025,-2.4993,-2.4992,-2.4593,-2.3727,-2.3095,-2.213,-2.0765,-1.9295,-1.7887,-1.6544,-1.4185,0.0,0.0,0.0,0.0,0.0,0.0,0.0,0.0,0.0,-1.1065,-0.9681,0.0,-1.278,0.0,-1.3505,-1.4989,-1.6107,-1.7052,0.0,0.0,-2.0464,-2.1219,-2.2089,-2.2969,-2.3596,-2.3779,-2.4738,-2.5389,-2.537,-2.5505,-2.5609,-2.5612,-2.5609,-2.5602,-2.5613,-2.5604,-2.561,-2.561,-2.5601,-2.5601,-2.5601,-2.5601,-2.5601,-2.5601,-2.5601,-2.5601,-2.5601,-2.5601,-2.5601,-2.5601,-2.5601,-2.5601,-2.5601,-2.5601,-2.558,-2.5495,-2.5425,-2.5384,-2.5306,-2.5236,-2.5205,-3.7348,-3.731,-3.6875,-3.5823,-3.4412,-3.379,-3.3316,-3.2985,-3.2874,-3.2345,-3.1562,-3.1581,-3.1362,-3.0968,-3.056,-3.0598,-3.1014,-3.0579,-3.0389,-3.0484,-3.0484,-3.0029,-2.9252,-2.9233,-2.9068,-2.8729,-2.8329,-2.8174,-2.8211,-2.7351,-2.6905,-2.6905,-2.6473,-2.5831,-2.5041,-2.5063,-2.5082,-2.5082,-2.5159,-2.5187,-2.5147,-2.5095,-2.5031,-2.4992,-2.4998,-2.4605,-2.3708,-2.3272,-2.2426,-2.1142,-2.0176,-1.9088,-1.7816,-1.6084,-1.4734,0.0,0.0,0.0,0.0,0.0,0.0,0.0,0.0,0.0,0.0,0.0,-1.4526,-1.4878,-1.6493,-1.8014,-1.9333,-2.0256,-2.1327,-2.2662,-2.3239,-2.3715,-2.4191,-2.4679,-2.4976,-2.4985,-2.541,-2.5691,-2.5694,-2.5661,-2.5644,-2.5644,-2.5644,-2.5622,-2.5598,-2.5601,-2.5604,-2.561,-2.5601,-2.5601,-2.5601,-2.5601,-2.5601,-2.5601,-2.5601,-2.5601,-2.5601,-2.5601,-2.5601,-2.5601,-2.5601,-2.5601,-2.5601,-2.5601,-2.5589,-2.556,-2.5495,-2.54,-2.5312,-2.5228,-2.521,-3.7643,-3.7624,-3.753,-3.7507,-3.7428,-3.5874,-3.4756,-3.4017,-3.4017,-3.3543,-3.2728,-3.271,-3.272,-3.2701,-3.2615,-3.2577,-3.2558,-3.2435,-3.2019,-3.1355,-3.1242,-3.0806,-3.0067,-2.9934,-3.0015,-3.0208,-2.9445,-2.9142,-2.9272,-2.8403,-2.7952,-2.7952,-2.7837,-2.7409,-2.6638,-2.5854,-2.5341,-2.5124,-2.5179,-2.5174,-2.5112,-2.5106,-2.5076,-2.4991,-2.4998,-2.4543,-2.3613,-2.3651,-2.2931,-2.1314,-2.1193,-2.0502,-1.9015,-1.7914,-1.6941,0.0,-1.5305,0.0,0.0,0.0,0.0,0.0,0.0,0.0,0.0,-1.5738,-1.6659,-1.8239,-1.9847,-2.1459,-2.31,-2.394,-2.476,-2.5582,-2.5699,-2.5701,-2.5691,-2.5691,-2.5696,-2.5705,-2.5705,-2.5705,-2.5689,-2.5687,-2.5707,-2.5869,-2.5933,-2.6013,-2.5931,-2.5795,-2.5623,-2.5604,-2.561,-2.561,-2.561,-2.5604,-2.5601,-2.5601,-2.5601,-2.5601,-2.5601,-2.5601,-2.5601,-2.5601,-2.5601,-2.5601,-2.5601,-2.5601,-2.5601,-2.5598,-2.5534,-2.5464,-2.5361,-2.5276,-2.5225,-3.9405,-3.9348,-3.8715,-3.8441,-3.8367,-3.7382,-3.6462,-3.5732,-3.5732,-3.5259,-3.4434,-3.4415,-3.4434,-3.4377,-3.3752,-3.3449,-3.3411,-3.2728,-3.2303,-3.216,-3.1497,-3.1128,-3.092,-3.0229,-2.9921,-2.9969,-2.9912,-2.9882,-2.9924,-2.9155,-2.8771,-2.8745,-2.8119,-2.7661,-2.7408,0.0,0.0,0.0,-2.5219,-2.5206,-2.5171,-2.5185,-2.5111,-2.4998,-2.5063,0.0,-2.2842,-2.3354,-2.2931,-2.1333,-2.1846,0.0,0.0,0.0,0.0,0.0,0.0,0.0,0.0,0.0,0.0,0.0,-1.8004,-1.7282,-1.7175,-1.907,-2.0458,-2.0815,-2.1811,-2.2896,-2.3954,-2.4212,-2.4674,-2.5559,-2.5699,-2.5701,-2.5701,-2.5703,-2.5703,-2.5705,-2.5707,-2.5708,-2.5772,-2.5696,-2.5992,-2.6643,-2.6758,-2.7028,-2.7595,-2.6537,-2.5726,-2.5603,-2.5746,-2.5659,-2.56,-2.5676,-2.5765,-2.5601,-2.5601,-2.5621,-2.5604,-2.5601,-2.5601,-2.5601,-2.5601,-2.5601,-2.5601,-2.5601,-2.5601,-2.5601,-2.5538,-2.5488,-2.5445,-2.5415,-2.537,-3.99,0.0,-3.9456,-3.9286,0.0,-3.8831,-3.8186,-3.7401,-3.6984,-3.6548,-3.6102,-3.5704,-3.5533,-3.5495,-3.468,-3.4282,-3.4282,-3.3828,-3.343,-3.3032,-3.2615,-3.2217,-3.18,-3.1355,-3.0953,-3.0638,-3.0719,-3.0531,-3.0187,-2.9826,-2.964,-2.9647,-2.9225,-2.8798,-2.8281,-2.7923,-2.7132,-2.5913,-2.5425,-2.5212,-2.5212,-2.5212,-2.5145,-2.5063,-2.5082,0.0,0.0,0.0,0.0,0.0,0.0,0.0,0.0,0.0,0.0,-1.9993,-1.9165,-1.8861,-1.9259,-1.9297,-1.9858,-2.1119,-2.1301,-2.0852,-1.9617,-2.1507,-2.2782,-2.29,-2.3683,-2.4408,-2.4927,-2.499,-2.5191,-2.5638,-2.5699,-2.5699,-2.5738,-2.6069,-2.6281,-2.6361,-2.6671,-2.6946,-2.693,-2.6932,-2.711,-2.7505,-2.7599,-2.7755,-2.8065,-2.7518,-2.6938,-2.688,-2.6883,-2.6896,-2.6894,-2.6865,-2.6678,-2.6386,-2.624,-2.6073,-2.5662,-2.5613,-2.5601,-2.5601,-2.5601,-2.5601,-2.5601,-2.5601,-2.5601,-2.5598,-2.558,-2.5541,-2.5557,-2.5476,-2.5391,-4.0127,-4.0108,-3.9957,-3.99,-3.99,-3.99,-3.9532,-3.8841,0.0,0.0,0.0,-3.6718,-3.6405,-3.6358,-3.5514,-3.5135,-3.5116,-3.4946,-3.4548,-3.3922,-3.3771,-3.3316,-3.2644,-3.2454,-3.2117,-3.1588,-3.144,-3.1087,-3.0509,-3.0375,-3.0312,-3.0312,-3.0312,-2.9947,-2.9225,-2.8338,-2.7579,-2.6924,-2.5959,-2.536,-2.519,-2.5201,-2.5162,-2.5082,-2.5095,-2.4664,-2.3733,-2.384,-2.3563,-2.276,-2.2836,-2.288,-2.2722,-2.2722,-2.2646,-2.2514,-2.2501,-2.2552,-2.271,-2.2703,-2.2779,-2.2917,-2.3727,-2.3655,-2.2246,-2.3458,-2.4328,-2.4502,-2.5143,-2.5578,-2.5695,-2.5699,-2.5699,-2.5699,-2.5835,-2.5933,-2.5972,-2.6632,-2.7141,-2.7197,-2.7723,-2.8191,-2.8132,-2.8113,-2.8288,-2.8407,-2.8437,-2.8532,-2.8645,-2.8416,-2.8064,-2.8041,-2.7975,-2.8106,-2.8164,-2.81,-2.7907,-2.724,-2.6991,-2.6629,-2.6053,-2.5718,-2.5623,-2.5601,-2.5601,-2.5601,-2.5601,-2.5601,-2.5601,-2.5601,-2.5601,-2.5601,-2.5595,-2.5517,-2.5433,-4.1018,-4.0961,-4.0222,-3.99,-3.99,-3.99,-3.9824,-3.9597,-3.8073,-3.739,-3.739,-3.7287,-3.7249,-3.7192,-3.6386,-3.6026,-3.595,-3.5249,-3.4832,-3.4699,-3.4017,-3.3638,-3.3486,-3.2747,-3.2349,-3.2224,-3.1686,-3.1348,-3.118,-3.0603,-3.0312,-3.0312,-3.0312,-3.0228,-3.0037,-2.9134,-2.865,-2.8612,-2.7104,-2.5939,-2.5131,-2.5174,-2.5128,-2.5018,-2.507,-2.4664,-2.3771,-2.4416,-2.4416,-2.3613,-2.4238,-2.4321,-2.3594,-2.3525,-2.324,-2.2577,-2.2501,-2.2798,-2.3487,-2.3537,-2.3853,-2.4581,-2.4946,-2.4985,-2.4721,-2.5062,-2.5308,-2.5346,-2.5525,-2.5673,-2.5699,-2.5718,-2.5757,-2.5777,-2.6342,-2.6729,-2.6732,-2.7489,-2.8015,-2.8015,-2.8113,-2.8269,-2.8349,-2.831,-2.8624,-2.9152,-2.9313,-2.9567,-2.9918,-2.9178,-2.8382,-2.8278,-2.825,-2.8205,-2.8381,-2.8209,-2.8242,-2.8061,-2.7457,-2.7039,-2.6766,-2.6173,-2.5765,-2.5621,-2.5723,-2.5682,-2.5623,-2.5601,-2.5604,-2.5604,-2.5607,-2.5601,-2.5604,-2.5586,-2.5554,-4.1598,-4.1169,-4.0772,-4.0317,-3.99,-3.99,-3.99,-3.9843,-3.9085,-3.8774,-3.8717,-3.83,-3.8102,-3.8026,-3.723,-3.6604,-3.6187,-3.5789,-3.5363,-3.4889,-3.4529,-3.4339,-3.432,-3.3941,-3.3524,-3.3107,-3.279,-3.2169,-3.1323,-3.094,-3.0544,-3.0125,-3.0068,-3.0087,-3.0041,-2.9646,-2.922,-2.881,-2.7293,-2.6295,-2.5853,-2.5439,-2.5145,-2.507,-2.5082,-2.4911,-2.4416,-2.4795,-2.4814,-2.4435,-2.4776,-2.4814,-2.4435,-2.4442,-2.4303,-2.3947,-2.3909,-2.4074,-2.4436,-2.4423,-2.4574,-2.4973,-2.5116,-2.5208,-2.5269,-2.537,-2.5443,-2.5514,-2.5549,-2.5612,-2.5716,-2.6108,-2.6361,-2.634,-2.71,-2.7587,-2.7704,-2.8385,-2.8892,-2.895,-2.934,-2.9602,-2.9622,-2.9604,-2.9709,-3.0148,-3.0205,-3.0369,-3.0742,-3.0171,-2.9637,-2.9666,-2.9624,-2.9599,-2.9597,-2.9605,-2.9439,-2.9048,-2.8611,-2.8135,-2.7712,-2.6987,-2.6531,-2.6348,-2.6409,-2.6254,-2.5804,-2.5613,-2.5596,-2.56,-2.5599,-2.561,-2.5601,-2.5609,-2.5601,-4.2302,-4.1768,-4.1548,-4.098,-4.0203,-4.0203,-4.0089,-3.99,-3.9881,-3.99,-3.9805,-3.9229,-3.8974,-3.8879,-3.8083,-3.7344,-3.6775,-3.6377,-3.5846,-3.523,-3.4984,-3.4908,-3.4908,-3.4908,-3.4586,-3.3979,-3.379,-3.3013,-3.1848,-3.1393,-3.0758,-2.9991,-2.9916,-2.9916,-2.9916,-2.9921,-2.9633,-2.8966,-2.7714,-2.6942,-2.6713,-2.5876,-2.5421,-2.5355,-2.5171,-2.5057,-2.4998,-2.4984,-2.4984,-2.4984,-2.4984,-2.4984,-2.4991,-2.5057,-2.5082,-2.5082,-2.5088,-2.5119,-2.5118,-2.5075,-2.5063,-2.5063,-2.5132,-2.522,-2.5313,-2.5395,-2.5456,-2.552,-2.5543,-2.5661,-2.6005,-2.6496,-2.6963,-2.7178,-2.7976,-2.8483,-2.8561,-2.9262,-2.9808,-2.9886,-3.0392,-3.0754,-3.0796,-3.0783,-3.0732,-3.0711,-3.08,-3.0801,-3.08,-3.0797,-3.0799,-3.0801,-3.0801,-3.0702,-3.0799,-3.0736,-3.0456,-2.9929,-2.9626,-2.9148,-2.8554,-2.803,-2.7582,-2.732,-2.7495,-2.7186,-2.6223,-2.5936,-2.5858,-2.5706,-2.561,-2.5615,-2.561,-2.5595,-2.5608,-4.341,-4.3348,-4.259,-4.1832,-4.1101,-4.1056,-4.0609,-3.9965,-3.9889,-3.99,-3.987,-3.9805,-3.9767,-3.9673,-3.8936,-3.85,-3.8273,-3.6889,-3.6159,-3.5979,-3.5249,-3.4908,-3.4908,-3.4908,-3.487,-3.468,-3.4074,-3.3619,-3.3259,-3.1905,-3.0768,-2.9991,-2.9916,-2.9934,-2.9924,-3.0007,-3.0022,-2.9953,-2.9117,-2.827,-2.7417,-2.6611,-2.6174,-2.6105,-2.5463,-2.5063,-2.5048,-2.4984,-2.4984,-2.4984,-2.4984,-2.5003,-2.4991,-2.4998,-2.5044,-2.5082,-2.5094,-2.5124,-2.519,-2.523,-2.5239,-2.5212,-2.5337,-2.5432,-2.5408,-2.5513,-2.5601,-2.5634,-2.568,-2.6024,-2.6671,-2.6924,-2.7353,-2.8054,-2.8873,-2.9379,-2.9457,-3.0139,-3.0682,-3.0684,-3.0704,-3.0801,-3.0793,-3.08,-3.079,-3.08,-3.0794,-3.08,-3.08,-3.08,-3.0801,-3.0799,-3.0801,-3.08,-3.0799,-3.0799,-3.0718,-3.0582,-3.0068,-2.9646,-2.9364,-2.9131,-2.8741,-2.826,-2.8577,-2.8386,-2.7305,-2.6751,-2.6494,-2.5956,-2.5738,-2.5595,-2.5598,-2.5598,-2.5609,-4.3796,-4.3372,-4.3032,-4.2417,-4.1663,-4.1173,-4.077,-4.04,-3.9885,-3.9658,-3.967,-3.9758,-3.9826,-3.9881,-3.9551,-3.9153,-3.8671,-3.7969,-3.7116,-3.6234,-3.5817,-3.541,-3.4946,-3.4908,-3.4908,-3.4908,-3.4548,-3.415,-3.3562,-3.2501,-3.1469,-3.0749,-3.0673,-3.0427,-2.9953,-2.9953,-2.9996,-2.9969,-2.9654,-2.9289,-2.8832,-2.7675,-2.6999,-2.6894,-2.6163,-2.5746,-2.5655,-2.5269,-2.4984,-2.501,-2.5037,-2.5051,-2.507,-2.5122,-2.5201,-2.5233,-2.5219,-2.5208,-2.5217,-2.5224,-2.5229,-2.5212,-2.5274,-2.5322,-2.5382,-2.589,-2.6257,-2.6311,-2.6389,-2.6576,-2.6963,-2.7801,-2.86,-2.9028,-2.9749,-3.0253,-3.0275,-3.0587,-3.0801,-3.0801,-3.0801,-3.0791,-3.0792,-3.0788,-3.08,-3.0789,-3.0795,-3.0798,-3.08,-3.0801,-3.0801,-3.0799,-3.0798,-3.0799,-3.0799,-3.0795,-3.0793,-3.0732,-3.0552,-3.031,-3.0211,-3.0191,-2.9858,-2.9115,-2.9593,-2.938,-2.7947,-2.7661,-2.7402,-2.6635,-2.5896,-2.5657,-2.5623,-2.563,-2.5653,-4.4097,-4.36,-4.3557,-4.3106,-4.2286,-4.1717,-4.1342,-4.1022,-4.0215,-3.984,-3.9833,-3.9724,-3.9712,-3.9792,-3.9867,-3.957,-3.905,-3.8822,-3.8064,-3.6908,-3.6434,-3.5855,-3.5287,-3.5003,-3.4908,-3.4908,-3.4889,-3.4472,-3.3714,-3.3107,-3.2236,-3.1355,-3.1185,-3.0768,-2.9991,-2.9929,-2.9953,-2.9953,-2.9945,-2.9953,-2.9782,-2.8772,-2.8055,-2.779,-2.7023,-2.6472,-2.6197,-2.5648,-2.5231,-2.5029,-2.5057,-2.5076,-2.5088,-2.5201,-2.525,-2.5293,-2.5335,-2.534,-2.5284,-2.5279,-2.5279,-2.5279,-2.5298,-2.5399,-2.5744,-2.6309,-2.6838,-2.7179,-2.7409,-2.7622,-2.7722,-2.8715,-2.9518,-2.9815,-3.0433,-3.0764,-3.075,-3.0772,-3.0769,-3.0769,-3.0796,-3.0791,-3.0799,-3.0799,-3.079,-3.079,-3.0795,-3.0798,-3.0801,-3.0801,-3.08,-3.0795,-3.0798,-3.0799,-3.0799,-3.0796,-3.0788,-3.0786,-3.0747,-3.0722,-3.08,-3.0781,-3.0742,-2.9989,-3.0543,-3.031,-2.9015,-2.8576,-2.8145,-2.7247,-2.6528,-2.5976,-2.5684,-2.5705,-2.5708,-4.435,-4.443,-4.4426,-4.3886,-4.3131,-4.3037,-4.2624,-4.1865,-4.1085,-4.0728,-4.0559,-3.989,-3.9526,-3.9551,-3.977,-3.9862,-3.973,-3.9058,-3.866,-3.831,-3.6984,-3.6215,-3.6112,-3.5306,-3.4927,-3.5003,-3.4927,-3.451,-3.379,-3.3657,-3.2804,-3.1355,-3.128,-3.0806,-3.0102,-3.0057,-3.0087,-3.0053,-3.0064,-3.0079,-3.0072,-2.9858,-2.9347,-2.8654,-2.7909,-2.7136,-2.6401,-2.6197,-2.5818,-2.5041,-2.5067,-2.5069,-2.5095,-2.5119,-2.5185,-2.5307,-2.5436,-2.5522,-2.5514,-2.5549,-2.5568,-2.5572,-2.5676,-2.5843,-2.6539,-2.6885,-2.7315,-2.7985,-2.8743,-2.9198,-2.9198,-2.9383,-2.9839,-3.0467,-3.0639,-3.0698,-3.0703,-3.0722,-3.0706,-3.0709,-3.0745,-3.0779,-3.0786,-3.0796,-3.0792,-3.0798,-3.0788,-3.0796,-3.0797,-3.0797,-3.0798,-3.08,-3.0801,-3.08,-3.0799,-3.0796,-3.0797,-3.0795,-3.0786,-3.08,-3.08,-3.0781,-3.0742,-3.0721,-3.0761,-3.0468,-2.9826,-2.9223,-2.8621,-2.7924,-2.7302,-2.6755,-2.6386,-2.5878,-2.5839,-4.4147,-4.4173,-4.4173,-4.3987,-4.367,-4.3166,-4.2756,-4.2439,-4.1656,-4.1017,-4.0565,-4.0291,-3.9881,-3.937,-3.9563,-3.9682,-3.9732,-3.946,-3.9107,-3.8679,-3.8064,-3.7514,-3.6908,-3.6102,-3.5732,-3.5647,-3.5173,-3.4756,-3.451,-3.4453,-3.3922,-3.288,-3.2227,-3.1545,-3.0795,-3.023,-2.9961,-2.9969,-2.9961,-2.9969,-2.9961,-2.994,-2.9745,-2.9461,-2.8704,-2.8135,-2.782,-2.7229,-2.6526,-2.574,-2.574,-2.5549,-2.5114,-2.5149,-2.5293,-2.5408,-2.5456,-2.572,-2.6184,-2.6261,-2.6532,-2.7039,-2.7101,-2.7155,-2.7565,-2.8042,-2.8554,-2.8926,-2.967,-3.0143,-3.0175,-3.0195,-3.0348,-3.063,-3.0701,-3.0694,-3.0707,-3.0711,-3.0711,-3.0695,-3.0719,-3.0762,-3.0796,-3.0793,-3.0802,-3.0784,-3.0794,-3.0786,-3.08,-3.0784,-3.0785,-3.0795,-3.0799,-3.0801,-3.0799,-3.0794,-3.079,-3.0789,-3.0784,-3.0801,-3.08,-3.08,-3.0761,-3.0761,-3.0781,-3.0722,-3.0157,-2.9774,-2.9174,-2.8826,-2.8203,-2.7675,-2.7379,-2.6828,-2.6576,-4.4005,-4.4005,-4.4005,-4.4005,-4.3931,-4.341,-4.3188,-4.3095,-4.2333,-4.1664,-4.1192,-4.0738,-4.0202,-3.9674,-3.9449,-3.9452,-3.9556,-3.9604,-3.941,-3.8968,-3.8685,-3.825,-3.7646,-3.6841,-3.6323,-3.5964,-3.5266,-3.485,-3.4821,-3.4869,-3.4405,-3.3564,-3.2949,-3.2279,-3.1523,-3.0881,-3.0522,-3.0296,-3.0239,-3.0126,-2.9908,-2.9832,-2.9832,-2.9775,-2.9303,-2.8912,-2.8714,-2.8091,-2.7344,-2.6646,-2.6548,-2.6309,-2.5846,-2.5953,-2.6121,-2.6183,-2.6007,-2.6245,-2.6921,-2.6846,-2.7039,-2.789,-2.7969,-2.8038,-2.8388,-2.8958,-2.9364,-2.9747,-3.0192,-3.0617,-3.0612,-3.0621,-3.0661,-3.0668,-3.0661,-3.0661,-3.0672,-3.0672,-3.068,-3.0694,-3.0695,-3.0736,-3.0751,-3.0773,-3.0756,-3.0756,-3.0776,-3.0772,-3.0774,-3.0761,-3.0767,-3.0767,-3.0773,-3.0762,-3.0773,-3.0799,-3.0834,-3.0829,-3.0805,-3.0803,-3.08,-3.08,-3.08,-3.08,-3.08,-3.08,-3.061,-3.0246,-2.9918,-2.9628,-2.9101,-2.8493,-2.8136,-2.7717,-2.7501,-4.4005,-4.4005,-4.4005,-4.4005,-4.3986,-4.3931,-4.3949,-4.3782,-4.3132,-4.2705,-4.2348,-4.1177,-4.0597,-4.0248,-3.9626,-3.9253,-3.9436,-3.9477,-3.9477,-3.9351,-3.8749,-3.8418,-3.8268,-3.746,-3.6558,-3.5837,-3.5151,-3.4756,-3.4645,-3.4728,-3.4314,-3.3534,-3.3327,-3.2838,-3.2132,-3.1946,-3.1616,-3.1063,-3.0866,-3.0481,-2.9823,-2.9748,-2.971,-2.9701,-2.9626,-2.9349,-2.8774,-2.8698,-2.8261,-2.7442,-2.732,-2.7318,-2.7161,-2.7312,-2.7579,-2.7391,-2.701,-2.7142,-2.7754,-2.7223,-2.7262,-2.8068,-2.8063,-2.8472,-2.9149,-2.9366,-2.9703,-3.0288,-3.052,-3.0617,-3.0617,-3.0607,-3.0606,-3.0613,-3.0619,-3.0615,-3.0617,-3.0606,-3.0622,-3.0676,-3.0671,-3.0694,-3.0694,-3.084,-3.0863,-3.0746,-3.0821,-3.0827,-3.0801,-3.0843,-3.0785,-3.0831,-3.1123,-3.1373,-3.1081,-3.0791,-3.0839,-3.0871,-3.0846,-3.0822,-3.0801,-3.08,-3.08,-3.08,-3.08,-3.08,-3.0784,-3.046,-3.031,-3.0,-2.9569,-2.9306,-2.9021,-2.8672,-2.8349,-4.4005,-4.4005,-4.4005,-4.4005,-4.4005,-4.4005,-4.4005,-4.3986,-4.3708,-4.3318,-4.2779,-4.2277,-4.1757,-4.1126,-4.0378,-4.0016,-4.0021,-3.9541,-3.9324,-3.9421,-3.922,-3.9076,-3.8939,-3.8269,-3.7162,-3.5991,-3.5611,-3.516,-3.4706,-3.4682,-3.4465,-3.4151,-3.3577,-3.3202,-3.29,-3.2403,-3.1934,-3.1709,-3.1175,-3.0743,-3.048,-2.9983,-2.9701,-2.9701,-2.9701,-2.9588,-2.9407,-2.9397,-2.9,-2.8242,-2.81,-2.7836,-2.7444,-2.7377,-2.7431,-2.7482,-2.7312,-2.7612,-2.8424,-2.8294,-2.8409,-2.9236,-2.9429,-2.9595,-2.9927,-3.0015,-3.0191,-3.0545,-3.0617,-3.0617,-3.0617,-3.0617,-3.0607,-3.0616,-3.0607,-3.0602,-3.0616,-3.0601,-3.06,-3.0618,-3.0626,-3.0638,-3.0819,-3.1098,-3.1363,-3.0978,-3.1246,-3.1444,-3.0976,-3.1308,-3.1631,-3.1779,-3.2041,-3.2098,-3.1801,-3.1464,-3.1297,-3.1092,-3.0897,-3.0849,-3.0806,-3.0803,-3.0801,-3.0784,-3.0784,-3.0786,-3.0788,-3.0716,-3.0527,-3.0526,-3.0299,-3.0107,-2.9948,-2.9641,-2.9228,-4.4005,-4.4005,-4.4005,-4.4005,-4.4005,-4.4005,-4.4005,-4.4005,-4.4005,-4.3689,-4.328,-4.2909,-4.2537,-4.1943,-4.12,-4.068,-4.0364,-3.9821,-3.9476,-3.9375,-3.9363,-3.9363,-3.9232,-3.8527,-3.7704,-3.6732,-3.6318,-3.5757,-3.4966,-3.4944,-3.4795,-3.4386,-3.3908,-3.3635,-3.3597,-3.3167,-3.2783,-3.2409,-3.1942,-3.1402,-3.0822,-3.0279,-2.9887,-2.9653,-2.9597,-2.9598,-2.9608,-2.9617,-2.9439,-2.9069,-2.8894,-2.8576,-2.8149,-2.8173,-2.8185,-2.8167,-2.8048,-2.8277,-2.9074,-2.8828,-2.9061,-2.9877,-3.0102,-3.0103,-3.0209,-3.0322,-3.0447,-3.05,-3.0515,-3.055,-3.0588,-3.0617,-3.0617,-3.0617,-3.0617,-3.0617,-3.0617,-3.0617,-3.0607,-3.0673,-3.0871,-3.1024,-3.1254,-3.1824,-3.2173,-3.1805,-3.2057,-3.2329,-3.1841,-3.2081,-3.2398,-3.2617,-3.2704,-3.2671,-3.2544,-3.2201,-3.1813,-3.1388,-3.0991,-3.0898,-3.0833,-3.0848,-3.0864,-3.0811,-3.0793,-3.0798,-3.0799,-3.0801,-3.0701,-3.0785,-3.0792,-3.0609,-3.0345,-3.0267,-2.9966,-4.4005,-4.4005,-4.4005,-4.4005,-4.4005,-4.4005,-4.4005,-4.4005,-4.4005,-4.3968,-4.3782,-4.3262,-4.2909,-4.2705,-4.2036,-4.1293,-4.0564,-4.0341,-3.9821,-3.931,-3.9124,-3.9137,-3.9026,-3.8468,-3.8003,-3.7649,-3.7181,-3.646,-3.5616,-3.5503,-3.5136,-3.4468,-3.4264,-3.4172,-3.4085,-3.4153,-3.3731,-3.3155,-3.2969,-3.2169,-3.0961,-3.0708,-3.031,-2.9613,-2.9576,-2.9561,-2.952,-2.9512,-2.9569,-2.9617,-2.9467,-2.9362,-2.9437,-2.9561,-2.942,-2.9336,-2.894,-2.9088,-2.948,-2.9116,-2.9022,-2.9844,-3.0011,-3.009,-3.0102,-3.0267,-3.0383,-3.0417,-3.0422,-3.0449,-3.055,-3.0583,-3.0622,-3.0675,-3.0675,-3.0617,-3.0617,-3.0656,-3.0815,-3.0912,-3.1352,-3.1874,-3.1923,-3.2658,-3.3006,-3.2967,-3.3006,-3.3093,-3.3055,-3.3059,-3.3175,-3.3407,-3.3698,-3.3674,-3.3673,-3.3147,-3.2796,-3.2547,-3.1886,-3.1332,-3.0957,-3.0858,-3.0857,-3.0819,-3.0781,-3.0781,-3.08,-3.0797,-3.0793,-3.0787,-3.0799,-3.0795,-3.0721,-3.0579,-3.0507,-4.4005,-4.4005,-4.4005,-4.4005,-4.4005,-4.4005,-4.4005,-4.4005,-4.4005,-4.4005,-4.3931,-4.3801,-4.3652,-4.3578,-4.2835,-4.2036,-4.1311,-4.0694,-3.9937,-3.9194,-3.9101,-3.9101,-3.9101,-3.8897,-3.8451,-3.7963,-3.7729,-3.719,-3.6383,-3.5901,-3.5454,-3.5157,-3.4531,-3.4234,-3.4216,-3.4216,-3.4135,-3.3807,-3.3262,-3.2841,-3.2351,-3.1719,-3.1087,-3.0363,-3.0288,-2.9983,-2.9522,-2.9481,-2.9502,-2.9531,-2.954,-2.9481,-2.945,-2.9451,-2.9461,-2.9415,-2.9314,-2.9308,-2.9522,-2.9345,-2.9345,-2.9642,-2.9803,-2.9905,-2.9958,-3.0189,-3.0336,-3.039,-3.0396,-3.0389,-3.0433,-3.0488,-3.0746,-3.1279,-3.1057,-3.0752,-3.081,-3.1139,-3.1507,-3.1579,-3.2256,-3.2662,-3.2933,-3.3441,-3.3828,-3.3494,-3.3673,-3.4002,-3.3944,-3.4002,-3.4118,-3.4795,-3.5095,-3.4974,-3.4752,-3.4182,-3.3838,-3.3767,-3.3048,-3.2018,-3.1429,-3.083,-3.0832,-3.0792,-3.0777,-3.0775,-3.0793,-3.0789,-3.0787,-3.0774,-3.0781,-3.0778,-3.0798,-3.0701,-3.0697,-4.4005,-4.4005,-4.4005,-4.4005,-4.4005,-4.4005,-4.4005,-4.4005,-4.4005,-4.4005,-4.4005,-4.4005,-4.4005,-4.3949,-4.3503,-4.2853,-4.2073,-4.1274,-4.0457,-3.9677,-3.9287,-3.912,-3.9101,-3.9082,-3.8841,-3.8469,-3.8395,-3.7949,-3.7275,-3.6718,-3.6197,-3.551,-3.4996,-3.4587,-3.4216,-3.4216,-3.4216,-3.4123,-3.3707,-3.338,-3.2983,-3.2574,-3.1924,-3.1273,-3.1087,-3.0716,-3.0002,-2.9626,-2.9481,-2.955,-2.954,-2.9472,-2.946,-2.9427,-2.9388,-2.9388,-2.9388,-2.9421,-2.9491,-2.9431,-2.9421,-2.9522,-2.9636,-2.9761,-2.9878,-3.0044,-3.0189,-3.0254,-3.026,-3.0248,-3.0324,-3.0585,-3.1278,-3.2014,-3.1888,-3.1637,-3.1657,-3.2082,-3.2295,-3.2527,-3.3049,-3.3634,-3.3673,-3.4408,-3.4563,-3.4466,-3.4679,-3.4814,-3.4814,-3.4911,-3.5027,-3.5472,-3.5626,-3.5336,-3.4988,-3.4457,-3.4075,-3.4061,-3.3738,-3.273,-3.2063,-3.1221,-3.0897,-3.0884,-3.0816,-3.0759,-3.0768,-3.0755,-3.0752,-3.073,-3.0756,-3.0753,-3.0753,-3.0781,-3.0778,-4.4005,-4.4005,-4.4005,-4.4005,-4.4005,-4.4005,-4.4005,-4.4005,-4.4005,-4.4005,-4.4005,-4.4005,-4.4005,-4.4005,-4.3893,-4.3503,-4.2705,-4.2036,-4.1177,-4.029,-3.9565,-3.9101,-3.9101,-3.9101,-3.9045,-3.8971,-3.9064,-3.8655,-3.8079,-3.7894,-3.7127,-3.6142,-3.5696,-3.5083,-3.455,-3.4309,-3.4216,-3.4216,-3.4141,-3.3807,-3.3373,-3.315,-3.2723,-3.2035,-3.1682,-3.1385,-3.0734,-3.0198,-2.987,-2.9945,-2.9662,-2.9491,-2.9481,-2.9419,-2.9407,-2.9388,-2.9388,-2.9388,-2.9407,-2.9399,-2.9388,-2.944,-2.9532,-2.9654,-2.9779,-2.9918,-3.0106,-3.0393,-3.0208,-3.0369,-3.0632,-3.1221,-3.2096,-3.2872,-3.3111,-3.3321,-3.3343,-3.3276,-3.3223,-3.3281,-3.4002,-3.4452,-3.4742,-3.5148,-3.5646,-3.5104,-3.5317,-3.5298,-3.5317,-3.5356,-3.5414,-3.5588,-3.5568,-3.54,-3.5032,-3.4645,-3.4311,-3.408,-3.3877,-3.3261,-3.2803,-3.2063,-3.1356,-3.1055,-3.1213,-3.1045,-3.0728,-3.0701,-3.0766,-3.0711,-3.0724,-3.0711,-3.0701,-3.0717,-3.074,-4.4005,-4.4005,-4.4005,-4.4005,-4.4005,-4.4005,-4.4005,-4.4005,-4.4005,-4.4005,-4.4005,-4.4005,-4.4005,-4.4005,-4.3968,-4.3559,-4.2909,-4.2519,-4.1809,-4.0378,-3.9491,-3.912,-3.9101,-3.9101,-3.9101,-3.9101,-3.9101,-3.8971,-3.8729,-3.8209,-3.7764,-3.7294,-3.6179,-3.5436,-3.5213,-3.4606,-3.4216,-3.4216,-3.4216,-3.4123,-3.3974,-3.3844,-3.351,-3.2778,-3.2165,-3.1794,-3.1589,-3.1385,-3.1325,-3.1049,-3.0248,-2.9634,-2.9531,-2.9473,-2.9444,-2.9388,-2.9388,-2.9388,-2.9407,-2.9444,-2.9407,-2.9492,-2.967,-2.9608,-2.9663,-2.9925,-3.0345,-3.0788,-3.0921,-3.1085,-3.1698,-3.2738,-3.3288,-3.3692,-3.4263,-3.4737,-3.4808,-3.4442,-3.4146,-3.4292,-3.4814,-3.54,-3.54,-3.5452,-3.5704,-3.5704,-3.5704,-3.5704,-3.5704,-3.5704,-3.5704,-3.5704,-3.5646,-3.5516,-3.54,-3.5085,-3.4891,-3.4601,-3.4311,-3.4123,-3.3637,-3.3188,-3.2582,-3.21,-3.175,-3.1495,-3.127,-3.099,-3.1107,-3.0916,-3.0741,-3.0754,-3.0769,-3.0738,-3.0695,-4.4005,-4.4005,-4.4005,-4.4005,-4.4005,-4.4005,-4.4005,-4.4005,-4.4005,-4.4005,-4.4005,-4.4005,-4.4005,-4.4005,-4.3986,-4.3726,-4.3355,-4.2909,-4.1924,-4.062,-3.9863,-3.951,-3.9101,-3.9101,-3.9101,-3.9101,-3.9101,-3.9101,-3.8952,-3.8655,-3.8284,-3.7912,-3.6978,-3.6495,-3.5993,-3.525,-3.4897,-3.4729,-3.4383,-3.4216,-3.4216,-3.4197,-3.4086,-3.3491,-3.2816,-3.237,-3.2351,-3.1961,-3.1831,-3.1608,-3.1013,-3.0326,-3.0028,-2.9954,-2.9805,-2.9463,-2.9388,-2.9388,-2.9425,-2.9731,-2.9973,-2.9973,-3.0367,-3.0626,-3.0743,-3.0885,-3.1109,-3.152,-3.1674,-3.1902,-3.2722,-3.3241,-3.3821,-3.4401,-3.4898,-3.5319,-3.5332,-3.5098,-3.495,-3.5055,-3.5394,-3.5607,-3.5704,-3.5687,-3.5698,-3.5698,-3.5704,-3.5704,-3.5704,-3.5704,-3.5704,-3.5704,-3.5704,-3.5684,-3.5684,-3.5588,-3.5549,-3.5336,-3.5143,-3.5027,-3.4817,-3.44,-3.3955,-3.3272,-3.2518,-3.2436,-3.2215,-3.1859,-3.151,-3.14,-3.128,-3.1036,-3.0808,-3.0722,-3.066,-4.4005,-4.4005,-4.4005,-4.4005,-4.4005,-4.4005,-4.4005,-4.4005,-4.4005,-4.4005,-4.4005,-4.4005,-4.4005,-4.4005,-4.4005,-4.4005,-4.3763,-4.3132,-4.2017,-4.114,-4.0457,-3.9974,-3.9491,-3.9231,-3.9101,-3.9101,-3.9101,-3.9101,-3.9101,-3.9045,-3.8692,-3.8154,-3.7894,-3.7405,-3.6792,-3.6123,-3.5677,-3.5572,-3.4934,-3.4531,-3.442,-3.4346,-3.416,-3.3974,-3.3566,-3.3206,-3.3076,-3.2685,-3.2258,-3.2165,-3.2165,-3.1738,-3.118,-3.0772,-3.0549,-2.9824,-2.9816,-2.9834,-3.0047,-3.0307,-3.0567,-3.0753,-3.134,-3.1759,-3.1869,-3.1846,-3.2019,-3.2324,-3.255,-3.2909,-3.3477,-3.3728,-3.414,-3.4633,-3.503,-3.5195,-3.5258,-3.5328,-3.5347,-3.5507,-3.5482,-3.5527,-3.5596,-3.5622,-3.5645,-3.5668,-3.5698,-3.5704,-3.5704,-3.5704,-3.5704,-3.5704,-3.5704,-3.5704,-3.5704,-3.5704,-3.5704,-3.5684,-3.5612,-3.5593,-3.5568,-3.5231,-3.4642,-3.3867,-3.3316,-3.3219,-3.3021,-3.2658,-3.2343,-3.2082,-3.1724,-3.1423,-3.1085,-3.0738,-3.0665,-4.4005,-4.4005,-4.4005,-4.4005,-4.4005,-4.4005,-4.4005,-4.4005,-4.4005,-4.4005,-4.4005,-4.4005,-4.4005,-4.4005,-4.4005,-4.4005,-4.3801,-4.3243,-4.2667,-4.1999,-4.12,-4.0378,-4.0025,-3.9491,-3.9175,-3.9101,-3.9101,-3.9101,-3.9101,-3.9064,-3.8971,-3.8748,-3.8265,-3.7819,-3.7554,-3.6941,-3.6513,-3.6389,-3.5714,-3.5274,-3.5033,-3.4531,-3.4216,-3.4197,-3.3956,-3.3918,-3.3937,-3.3844,-3.3788,-3.3807,-3.3788,-3.3305,-3.2611,-3.1979,-3.1589,-3.1162,-3.0679,-3.0586,-3.1032,-3.0883,-3.1069,-3.1422,-3.1868,-3.1905,-3.1961,-3.2002,-3.2491,-3.3108,-3.3667,-3.4135,-3.4218,-3.418,-3.4325,-3.4609,-3.4722,-3.4812,-3.4925,-3.5024,-3.5136,-3.5304,-3.5333,-3.5402,-3.5463,-3.5509,-3.5534,-3.559,-3.5639,-3.5668,-3.5704,-3.5704,-3.5704,-3.5704,-3.5704,-3.5704,-3.5704,-3.5704,-3.5704,-3.5704,-3.5665,-3.5665,-3.5665,-3.5684,-3.5206,-3.451,-3.4104,-3.3973,-3.3717,-3.3474,-3.3184,-3.2972,-3.243,-3.185,-3.1444,-3.112,-3.0733,-4.4005,-4.4005,-4.4005,-4.4005,-4.4005,-4.4005,-4.4005,-4.4005,-4.4005,-4.4005,-4.4005,-4.4005,-4.4005,-4.4005,-4.4005,-4.4005,-4.3875,-4.367,-4.3188,-4.2667,-4.1999,-4.1084,-4.0546,-3.9937,-3.9491,-3.9231,-3.9101,-3.9101,-3.9101,-3.9101,-3.9101,-3.9008,-3.8655,-3.8525,-3.8321,-3.7726,-3.7373,-3.7151,-3.6556,-3.59,-3.5473,-3.4643,-3.4253,-3.4216,-3.4216,-3.4216,-3.4216,-3.4216,-3.4197,-3.4179,-3.4197,-3.3974,-3.3603,-3.3213,-3.2648,-3.1942,-3.1459,-3.1348,-3.1849,-3.1719,-3.2091,-3.2388,-3.2741,-3.3039,-3.3045,-3.3173,-3.3272,-3.3769,-3.4042,-3.4401,-3.4379,-3.4386,-3.442,-3.4465,-3.4539,-3.4628,-3.4703,-3.4743,-3.487,-3.5053,-3.5195,-3.5274,-3.5338,-3.5381,-3.543,-3.5477,-3.5566,-3.5628,-3.5687,-3.5704,-3.5704,-3.5704,-3.5704,-3.5704,-3.5704,-3.5704,-3.5704,-3.5704,-3.5704,-3.5704,-3.5698,-3.5679,-3.5602,-3.5226,-3.4949,-3.4643,-3.4814,-3.4698,-3.4292,-3.3866,-3.346,-3.2938,-3.2082,-3.1483,-3.1096,-4.3942,-4.3942,-4.3971,-4.4005,-4.4005,-4.4005,-4.4005,-4.4005,-4.4005,-4.4005,-4.4005,-4.4005,-4.4005,-4.4005,-4.4005,-4.4005,-4.4005,-4.3968,-4.3596,-4.3169,-4.276,-4.198,-4.12,-4.0453,-4.0044,-3.9547,-3.9138,-3.9101,-3.9101,-3.9101,-3.9101,-3.9064,-3.9082,-3.9101,-3.8859,-3.8414,-3.8191,-3.7894,-3.7336,-3.65,-3.5547,-3.4711,-3.4216,-3.4216,-3.4216,-3.4216,-3.4216,-3.4216,-3.4216,-3.4216,-3.4216,-3.4197,-3.4197,-3.4197,-3.3584,-3.2518,-3.2147,-3.2109,-3.2425,-3.2555,-3.2871,-3.3213,-3.3788,-3.4067,-3.4123,-3.3949,-3.4134,-3.4335,-3.4293,-3.4281,-3.4363,-3.4363,-3.4363,-3.4397,-3.4454,-3.4528,-3.4531,-3.4575,-3.4647,-3.4821,-3.5044,-3.513,-3.5147,-3.5235,-3.5281,-3.5374,-3.5456,-3.5496,-3.5566,-3.5693,-3.5704,-3.5704,-3.5704,-3.5704,-3.5704,-3.5704,-3.5704,-3.5704,-3.5704,-3.5704,-3.5673,-3.5643,-3.556,-3.5465,-3.5471,-3.5266,-3.5599,-3.5684,-3.5143,-3.4698,-3.4529,-3.4046,-3.3189,-3.2174,-3.1468,-4.3629,-4.3662,-4.3892,-4.4005,-4.4005,-4.4005,-4.4005,-4.4005,-4.4005,-4.4005,-4.4005,-4.4005,-4.4005,-4.4005,-4.4005,-4.4005,-4.4005,-4.3986,-4.3912,-4.3652,-4.3169,-4.2742,-4.224,-4.094,-4.062,-4.0123,-3.951,-3.9138,-3.9175,-3.9175,-3.9101,-3.9101,-3.9101,-3.9101,-3.9064,-3.8878,-3.8971,-3.8785,-3.8116,-3.7021,-3.572,-3.4804,-3.4364,-3.429,-3.4234,-3.4216,-3.4216,-3.4216,-3.4216,-3.4216,-3.4216,-3.4216,-3.4216,-3.4216,-3.416,-3.3763,-3.3429,-3.3169,-3.3547,-3.3398,-3.3361,-3.377,-3.4141,-3.4197,-3.4216,-3.4216,-3.4228,-3.4209,-3.4209,-3.4245,-3.4316,-3.43,-3.4323,-3.4305,-3.4328,-3.4363,-3.4404,-3.4439,-3.4484,-3.4572,-3.4763,-3.487,-3.4908,-3.5035,-3.5138,-3.5227,-3.5323,-3.5374,-3.5463,-3.5578,-3.5704,-3.5704,-3.5698,-3.5698,-3.5651,-3.5656,-3.5639,-3.5651,-3.5645,-3.5645,-3.5596,-3.554,-3.5534,-3.5477,-3.5522,-3.556,-3.5584,-3.5595,-3.5571,-3.5364,-3.4961,-3.4643,-3.4278,-3.3198,-3.206,-4.3284,-4.3614,-4.373,-4.386,-4.3989,-4.4005,-4.4005,-4.4005,-4.4005,-4.4005,-4.4005,-4.4005,-4.4005,-4.4005,-4.4005,-4.4005,-4.4005,-4.4005,-4.4005,-4.4005,-4.3596,-4.3225,-4.2723,-4.2092,-4.1627,-4.0903,-4.0327,-3.9918,-3.9714,-3.9342,-3.9101,-3.9101,-3.9101,-3.9101,-3.9101,-3.9101,-3.9082,-3.8841,-3.8302,-3.7559,-3.6705,-3.5683,-3.494,-3.4884,-3.4476,-3.4309,-3.429,-3.4216,-3.4216,-3.4216,-3.4216,-3.4216,-3.4216,-3.4216,-3.4197,-3.416,-3.39,-3.3856,-3.4067,-3.3826,-3.3918,-3.403,-3.4216,-3.4216,-3.4216,-3.4216,-3.4216,-3.4197,-3.4216,-3.4233,-3.4269,-3.4233,-3.4245,-3.4245,-3.4245,-3.4245,-3.4288,-3.43,-3.4347,-3.4416,-3.4495,-3.4596,-3.473,-3.4812,-3.4963,-3.5113,-3.5195,-3.5251,-3.534,-3.547,-3.5596,-3.5704,-3.5698,-3.5687,-3.5602,-3.5572,-3.5496,-3.5489,-3.5456,-3.5456,-3.5437,-3.5409,-3.5402,-3.5395,-3.5388,-3.5423,-3.5489,-3.5509,-3.552,-3.5411,-3.5282,-3.4934,-3.4581,-3.4145,-3.2973,-4.292,-4.3355,-4.346,-4.3614,-4.3814,-4.3814,-4.3828,-4.3892,-4.3892,-4.3942,-4.3989,-4.4005,-4.4005,-4.4005,-4.4005,-4.4005,-4.4005,-4.4005,-4.4005,-4.4005,-4.3949,-4.3633,-4.3206,-4.2872,-4.2389,-4.1869,-4.107,-4.0717,-4.0494,-4.0123,-3.9695,-3.9138,-3.9101,-3.9101,-3.9101,-3.9101,-3.9082,-3.9027,-3.8302,-3.7856,-3.7522,-3.6476,-3.5956,-3.5621,-3.5219,-3.481,-3.481,-3.4884,-3.4903,-3.4587,-3.4618,-3.4562,-3.429,-3.4216,-3.4216,-3.4197,-3.4086,-3.4123,-3.4197,-3.4123,-3.4197,-3.4216,-3.4216,-3.4216,-3.4216,-3.4216,-3.4216,-3.4216,-3.4216,-3.4216,-3.4216,-3.4209,-3.4209,-3.4209,-3.4209,-3.4216,-3.4216,-3.424,-3.4264,-3.4293,-3.4363,-3.4409,-3.452,-3.4626,-3.4762,-3.4954,-3.5062,-3.5138,-3.5243,-3.5355,-3.5437,-3.5554,-3.556,-3.5547,-3.5496,-3.543,-3.5374,-3.5338,-3.53,-3.5308,-3.5311,-3.5296,-3.5285,-3.5258,-3.5243,-3.5243,-3.5293,-3.5374,-3.545,-3.5366,-3.5251,-3.5071,-3.4757,-3.4423,-3.3742,-4.2512,-4.2788,-4.3087,-4.3232,-4.3286,-4.3269,-4.3427,-4.3664,-4.3664,-4.3795,-4.3989,-4.4005,-4.4005,-4.4005,-4.4005,-4.4005,-4.4005,-4.4005,-4.4005,-4.4005,-4.3986,-4.3912,-4.3615,-4.3225,-4.2835,-4.2593,-4.1906,-4.1553,-4.146,-4.12,-4.0327,-3.9342,-3.9398,-3.9212,-3.9101,-3.9101,-3.9101,-3.8971,-3.8395,-3.8061,-3.7814,-3.7164,-3.6649,-3.6593,-3.6538,-3.6532,-3.6482,-3.6309,-3.5993,-3.5417,-3.5398,-3.5157,-3.4773,-3.4643,-3.4643,-3.4643,-3.4624,-3.4643,-3.4624,-3.4346,-3.4216,-3.4216,-3.4216,-3.4216,-3.4216,-3.4234,-3.4234,-3.4401,-3.4587,-3.455,-3.4439,-3.4253,-3.4624,-3.4661,-3.4791,-3.4736,-3.4606,-3.4265,-3.4258,-3.4221,-3.4257,-3.4316,-3.4351,-3.4443,-3.4623,-3.4811,-3.4889,-3.4944,-3.5094,-3.5208,-3.5258,-3.5304,-3.5352,-3.5345,-3.533,-3.5274,-3.5251,-3.5219,-3.5187,-3.5211,-3.5251,-3.5211,-3.5138,-3.5113,-3.5088,-3.5079,-3.5107,-3.5187,-3.5258,-3.5308,-3.5239,-3.5074,-3.481,-3.4423,-3.3777,-4.2351,-4.2472,-4.2591,-4.2862,-4.3214,-4.3214,-4.3357,-4.358,-4.3614,-4.3763,-4.3989,-4.4005,-4.4005,-4.3989,-4.4005,-4.4005,-4.4005,-4.4005,-4.4005,-4.4005,-4.4005,-4.4005,-4.3838,-4.3729,-4.354,-4.3321,-4.2708,-4.2333,-4.2314,-4.1954,-4.1423,-4.0661,-4.0164,-3.9528,-3.9305,-3.912,-3.9101,-3.9045,-3.8822,-3.8637,-3.8469,-3.7894,-3.7429,-3.7429,-3.6816,-3.6755,-3.6681,-3.6699,-3.6495,-3.6315,-3.6235,-3.5943,-3.5665,-3.5603,-3.5603,-3.559,-3.5584,-3.5572,-3.5349,-3.4847,-3.4234,-3.4216,-3.4216,-3.4271,-3.4439,-3.4661,-3.4922,-3.5126,-3.5386,-3.5497,-3.572,-3.5751,-3.5826,-3.5665,-3.5516,-3.5386,-3.52,-3.4878,-3.4767,-3.4952,-3.4525,-3.4233,-3.4257,-3.4262,-3.4461,-3.4645,-3.4691,-3.4783,-3.4935,-3.5051,-3.5086,-3.5136,-3.5195,-3.5207,-3.519,-3.5155,-3.5147,-3.5113,-3.507,-3.5051,-3.506,-3.5034,-3.4982,-3.4945,-3.4945,-3.4954,-3.4982,-3.5018,-3.5079,-3.5147,-3.5171,-3.5141,-3.4811,-3.4462,-3.3955,-4.2205,-4.2166,-4.2121,-4.2432,-4.29,-4.2938,-4.3069,-4.3303,-4.3302,-4.3494,-4.3763,-4.3846,-4.3894,-4.3876,-4.3876,-4.3958,-4.3974,-4.4005,-4.4005,-4.3974,-4.3908,-4.3942,-4.3926,-4.3825,-4.3619,-4.368,-4.3335,-4.2881,-4.283,-4.2343,-4.2004,-4.1647,-4.1245,-4.0537,-3.964,-3.9194,-3.9101,-3.9101,-3.9101,-3.9101,-3.8971,-3.8581,-3.8247,-3.8209,-3.7782,-3.7615,-3.7615,-3.7634,-3.7392,-3.7182,-3.7015,-3.6904,-3.6773,-3.6718,-3.6718,-3.6723,-3.6723,-3.6742,-3.6352,-3.5807,-3.4959,-3.5163,-3.5107,-3.507,-3.5107,-3.5497,-3.5807,-3.59,-3.6365,-3.6736,-3.6773,-3.6513,-3.6439,-3.6235,-3.6147,-3.6036,-3.5999,-3.5807,-3.5751,-3.5751,-3.5213,-3.4692,-3.4742,-3.4785,-3.4675,-3.475,-3.4615,-3.468,-3.4743,-3.4851,-3.4926,-3.4981,-3.5051,-3.5044,-3.5037,-3.5048,-3.503,-3.4936,-3.4898,-3.4831,-3.4821,-3.4812,-3.4841,-3.4879,-3.4879,-3.486,-3.4889,-3.4936,-3.4982,-3.5018,-3.5035,-3.5044,-3.4959,-3.4647,-3.4478,-4.1917,-4.1892,-4.1719,-4.1931,-4.2328,-4.2328,-4.2494,-4.2789,-4.2845,-4.3032,-4.3322,-4.3512,-4.3614,-4.3614,-4.3595,-4.3697,-4.386,-4.3923,-4.3939,-4.3892,-4.3779,-4.3777,-4.373,-4.3632,-4.3479,-4.3512,-4.3296,-4.3119,-4.3158,-4.2973,-4.2711,-4.2441,-4.206,-4.1431,-4.0387,-3.951,-3.9138,-3.9101,-3.9101,-3.9101,-3.9064,-3.8952,-3.8897,-3.8822,-3.8711,-3.8562,-3.8544,-3.8562,-3.8302,-3.7981,-3.7875,-3.762,-3.7129,-3.7076,-3.7026,-3.6917,-3.6888,-3.6859,-3.6747,-3.6668,-3.6569,-3.6309,-3.6055,-3.6185,-3.6458,-3.6662,-3.6681,-3.6718,-3.6946,-3.6928,-3.6835,-3.6866,-3.6996,-3.7039,-3.7002,-3.7002,-3.7002,-3.663,-3.6538,-3.6476,-3.5956,-3.5473,-3.5473,-3.5411,-3.5119,-3.4916,-3.4667,-3.4688,-3.49,-3.4697,-3.4788,-3.5142,-3.523,-3.5002,-3.5001,-3.4952,-3.4893,-3.4806,-3.4739,-3.4718,-3.4689,-3.471,-3.4749,-3.4788,-3.4769,-3.4751,-3.481,-3.4859,-3.486,-3.486,-3.4908,-3.4927,-3.4898,-3.4832,-3.4643,-4.2044,-4.1895,-4.1827,-4.1805,-4.1845,-4.1845,-4.213,-4.2655,-4.292,-4.3087,-4.3214,-4.3322,-4.3321,-4.3321,-4.3321,-4.3391,-4.3495,-4.3697,-4.373,-4.3714,-4.3579,-4.3646,-4.3597,-4.3391,-4.3251,-4.3286,-4.3233,-4.316,-4.3196,-4.3142,-4.3123,-4.29,-4.243,-4.1659,-4.0511,-3.9602,-3.9101,-3.9101,-3.9101,-3.9101,-3.9101,-3.9101,-3.9101,-3.9101,-3.9101,-3.9101,-3.9101,-3.9101,-3.8897,-3.8637,-3.8581,-3.8377,-3.8049,-3.8025,-3.8035,-3.7915,-3.7908,-3.8093,-3.8136,-3.81,-3.7708,-3.7219,-3.6866,-3.6885,-3.6736,-3.7257,-3.7405,-3.7628,-3.7875,-3.8005,-3.8339,-3.8321,-3.8395,-3.8414,-3.8414,-3.8395,-3.8265,-3.7559,-3.7188,-3.7151,-3.6829,-3.6383,-3.6216,-3.6272,-3.605,-3.582,-3.5639,-3.5736,-3.5951,-3.5057,-3.4719,-3.5329,-3.5526,-3.5168,-3.5015,-3.5295,-3.5238,-3.5114,-3.487,-3.4645,-3.4634,-3.4733,-3.4653,-3.4693,-3.4674,-3.4655,-3.4697,-3.4728,-3.4708,-3.4718,-3.474,-3.4761,-3.4761,-3.4761,-3.4733,-4.2061,-4.1874,-4.1723,-4.1679,-4.1675,-4.1626,-4.1913,-4.2356,-4.2731,-4.2863,-4.2787,-4.2844,-4.2957,-4.2995,-4.305,-4.3142,-4.3214,-4.3375,-4.3461,-4.3443,-4.3302,-4.3355,-4.3303,-4.3087,-4.292,-4.2957,-4.2919,-4.2862,-4.2842,-4.2881,-4.2884,-4.2796,-4.2499,-4.191,-4.0988,-4.031,-3.9621,-3.9547,-3.9417,-3.9101,-3.9101,-3.9101,-3.9101,-3.9101,-3.9101,-3.9101,-3.9101,-3.9101,-3.9101,-3.9101,-3.9073,-3.8989,-3.8921,-3.8862,-3.8785,-3.8588,-3.8525,-3.8661,-3.8726,-3.8762,-3.8285,-3.7819,-3.7541,-3.7522,-3.7559,-3.8061,-3.8247,-3.8488,-3.8859,-3.8952,-3.9045,-3.9101,-3.9082,-3.9064,-3.9064,-3.9008,-3.8878,-3.8154,-3.8005,-3.7949,-3.7634,-3.7257,-3.6904,-3.7071,-3.7034,-3.6866,-3.6699,-3.6838,-3.6851,-3.5919,-3.5215,-3.5759,-3.6166,-3.5976,-3.5871,-3.6016,-3.5848,-3.5454,-3.5274,-3.5124,-3.4948,-3.5089,-3.4836,-3.4592,-3.4555,-3.4528,-3.455,-3.4561,-3.4528,-3.4539,-3.4583,-3.4594,-3.4602,-3.4634,-3.4676,-4.1874,-4.1809,-4.1391,-4.1458,-4.1766,-4.1609,-4.1587,-4.1653,-4.2151,-4.221,-4.1938,-4.2295,-4.2496,-4.2653,-4.2674,-4.2844,-4.3068,-4.3142,-4.316,-4.3087,-4.2902,-4.2976,-4.2844,-4.2555,-4.2494,-4.2514,-4.2494,-4.2432,-4.2328,-4.247,-4.2554,-4.2604,-4.2414,-4.2222,-4.1832,-4.1246,-4.0481,-4.0032,-3.9663,-3.9296,-3.9119,-3.9069,-3.9082,-3.9101,-3.9101,-3.9101,-3.9101,-3.9101,-3.9101,-3.9082,-3.9055,-3.8946,-3.8848,-3.8792,-3.8621,-3.8462,-3.8382,-3.8559,-3.8652,-3.8695,-3.8869,-3.8558,-3.8748,-3.898,-3.8934,-3.8785,-3.8804,-3.8841,-3.9027,-3.9045,-3.9101,-3.9101,-3.9101,-3.9082,-3.9082,-3.9082,-3.9082,-3.8897,-3.8878,-3.8692,-3.8284,-3.7907,-3.7522,-3.7559,-3.7856,-3.7856,-3.7689,-3.7591,-3.7476,-3.6839,-3.6348,-3.6553,-3.6864,-3.6893,-3.6832,-3.6721,-3.6503,-3.6129,-3.6193,-3.6075,-3.5802,-3.5448,-3.5192,-3.4923,-3.4542,-3.4416,-3.4427,-3.4374,-3.4316,-3.434,-3.4427,-3.445,-3.445,-3.4528,-3.4561,-4.1569,-4.1391,-4.1255,-4.1186,-4.1221,-4.1255,-4.1323,-4.1368,-4.1679,-4.1762,-4.1714,-4.1938,-4.2107,-4.213,-4.2313,-4.2472,-4.2611,-4.271,-4.2711,-4.2634,-4.2496,-4.2438,-4.2274,-4.2065,-4.1998,-4.2065,-4.2086,-4.2124,-4.2249,-4.2287,-4.2308,-4.2382,-4.2537,-4.2741,-4.257,-4.2184,-4.1233,-4.0458,-4.0052,-3.9589,-3.9186,-3.9085,-3.9091,-3.9064,-3.9027,-3.9027,-3.9045,-3.9045,-3.9059,-3.9055,-3.8931,-3.8773,-3.8559,-3.8512,-3.8399,-3.8186,-3.8252,-3.8382,-3.8334,-3.859,-3.8833,-3.8888,-3.8902,-3.8974,-3.9045,-3.9101,-3.9101,-3.9101,-3.9101,-3.9101,-3.9087,-3.9073,-3.9059,-3.9045,-3.9045,-3.9045,-3.9059,-3.9087,-3.9087,-3.9008,-3.8599,-3.8525,-3.8172,-3.8265,-3.8544,-3.8674,-3.8655,-3.8451,-3.8167,-3.7551,-3.734,-3.7525,-3.7575,-3.7591,-3.736,-3.721,-3.703,-3.6868,-3.6991,-3.6922,-3.6508,-3.6111,-3.5684,-3.5213,-3.474,-3.4442,-3.4281,-3.4245,-3.4233,-3.4221,-3.43,-3.4293,-3.4316,-3.4404,-3.4439,-4.1515,-4.1346,-4.1232,-4.1088,-4.0942,-4.1041,-4.1088,-4.1117,-4.134,-4.1453,-4.1436,-4.1569,-4.1723,-4.1917,-4.1998,-4.2061,-4.2184,-4.219,-4.2172,-4.211,-4.2089,-4.2005,-4.1792,-4.1697,-4.1719,-4.1762,-4.1852,-4.1998,-4.2145,-4.2267,-4.2308,-4.2348,-4.2747,-4.2881,-4.2813,-4.2486,-4.1844,-4.1069,-4.0435,-3.9945,-3.9516,-3.9182,-3.9113,-3.8951,-3.8914,-3.8914,-3.8914,-3.8914,-3.8862,-3.8826,-3.8664,-3.851,-3.8269,-3.8153,-3.8052,-3.7862,-3.7932,-3.8119,-3.8236,-3.8446,-3.868,-3.8844,-3.8873,-3.8974,-3.9045,-3.9101,-3.9101,-3.9101,-3.9101,-3.9101,-3.9059,-3.9031,-3.9003,-3.8974,-3.8974,-3.8974,-3.9003,-3.9059,-3.9073,-3.9101,-3.9045,-3.9027,-3.9027,-3.9101,-3.9082,-3.899,-3.8952,-3.8878,-3.8711,-3.8409,-3.8236,-3.8353,-3.8334,-3.8306,-3.8024,-3.7838,-3.7851,-3.7865,-3.8,-3.7819,-3.7281,-3.6736,-3.6253,-3.5566,-3.4872,-3.4649,-3.4456,-3.4277,-3.4209,-3.4216,-3.4216,-3.4252,-3.4257,-3.4281,-3.4281,-4.1538,-4.1475,-4.1277,-4.1065,-4.0894,-4.0894,-4.0918,-4.0918,-4.1111,-4.1186,-4.1186,-4.1209,-4.144,-4.1701,-4.1719,-4.1784,-4.1827,-4.1827,-4.1744,-4.1604,-4.1613,-4.1569,-4.152,-4.1538,-4.1493,-4.1587,-4.1719,-4.1788,-4.1956,-4.2082,-4.2225,-4.2287,-4.2412,-4.2573,-4.2715,-4.2718,-4.2231,-4.176,-4.1125,-4.0596,-3.9882,-3.95,-3.9279,-3.8853,-3.8759,-3.8759,-3.8704,-3.8615,-3.849,-3.8508,-3.8352,-3.8254,-3.7984,-3.7792,-3.7685,-3.7703,-3.7757,-3.7897,-3.8136,-3.835,-3.8618,-3.8826,-3.9027,-3.8989,-3.8974,-3.9073,-3.9101,-3.9101,-3.9101,-3.9101,-3.9073,-3.9017,-3.8974,-3.8921,-3.8877,-3.8877,-3.8906,-3.8974,-3.9087,-3.9101,-3.9101,-3.9101,-3.9101,-3.9101,-3.9101,-3.9101,-3.9101,-3.9101,-3.9027,-3.8878,-3.8878,-3.8915,-3.8822,-3.8729,-3.8748,-3.8637,-3.8804,-3.8897,-3.8841,-3.8655,-3.8079,-3.7448,-3.6816,-3.6333,-3.59,-3.5083,-3.4711,-3.4476,-3.4271,-3.4216,-3.4216,-3.4216,-3.4209,-3.4221,-3.4209,-4.1059,-4.1059,-4.1012,-4.0942,-4.0894,-4.0894,-4.0894,-4.0894,-4.0942,-4.0971,-4.0995,-4.1134,-4.1277,-4.1391,-4.152,-4.1587,-4.1609,-4.1542,-4.1453,-4.1346,-4.13,-4.1249,-4.1111,-4.1152,-4.1198,-4.1255,-4.1391,-4.1591,-4.1849,-4.1977,-4.2124,-4.2308,-4.2394,-4.2575,-4.2634,-4.2653,-4.2473,-4.2221,-4.1891,-4.1194,-4.0402,-4.0344,-4.0246,-4.0047,-4.0029,-3.9904,-3.9758,-3.9465,-3.9336,-3.9207,-3.8424,-3.8021,-3.7685,-3.7631,-3.7595,-3.7631,-3.7739,-3.7845,-3.7966,-3.8219,-3.851,-3.8541,-3.8631,-3.8725,-3.8848,-3.9003,-3.9087,-3.9087,-3.9101,-3.9101,-3.9073,-3.9017,-3.895,-3.8862,-3.8773,-3.8773,-3.8773,-3.8931,-3.9087,-3.9101,-3.9101,-3.9101,-3.9101,-3.9101,-3.9101,-3.9101,-3.9101,-3.9101,-3.9101,-3.9008,-3.899,-3.9027,-3.9045,-3.9008,-3.9101,-3.9101,-3.9101,-3.9101,-3.899,-3.8878,-3.8767,-3.8209,-3.7578,-3.7466,-3.7076,-3.6123,-3.5213,-3.4569,-3.4401,-3.442,-3.4216,-3.4216,-3.4216,-3.4209,-3.4209,-4.0894,-4.0894,-4.0894,-4.0894,-4.0894,-4.0894,-4.0894,-4.0894,-4.0894,-4.0894,-4.0894,-4.1018,-4.1094,-4.114,-4.1272,-4.1363,-4.1386,-4.1295,-4.118,-4.1088,-4.1047,-4.1012,-4.0918,-4.0894,-4.0965,-4.1065,-4.1186,-4.1413,-4.1719,-4.1874,-4.2023,-4.2166,-4.2376,-4.2534,-4.2534,-4.2534,-4.2516,-4.2496,-4.2369,-4.1855,-4.1042,-4.1031,-4.0636,-4.0528,-4.0384,-4.0402,-4.0239,-3.9842,-3.9554,-3.9066,-3.8276,-3.7864,-3.7649,-3.7595,-3.7595,-3.7631,-3.7721,-3.781,-3.788,-3.8103,-3.843,-3.8478,-3.8559,-3.8777,-3.8743,-3.8892,-3.8844,-3.8859,-3.9073,-3.9101,-3.9045,-3.8989,-3.8906,-3.8837,-3.8683,-3.8603,-3.8755,-3.8946,-3.9059,-3.9101,-3.9101,-3.9101,-3.9101,-3.9101,-3.9101,-3.9101,-3.9101,-3.9101,-3.9101,-3.9101,-3.9101,-3.9101,-3.9101,-3.9101,-3.9101,-3.9101,-3.9101,-3.9101,-3.9101,-3.9027,-3.8915,-3.8692,-3.8395,-3.8005,-3.7541,-3.6872,-3.603,-3.5293,-3.4952,-3.499,-3.4606,-3.4216,-3.4234,-3.429,-3.4253,-4.0894,-4.0894,-4.0894,-4.0894,-4.0894,-4.0894,-4.0894,-4.0894,-4.0894,-4.0894,-4.0894,-4.0894,-4.1018,-4.1041,-4.0995,-4.1065,-4.1088,-4.1082,-4.0942,-4.0918,-4.0918,-4.0918,-4.0918,-4.0894,-4.0918,-4.0965,-4.1065,-4.1272,-4.152,-4.1657,-4.1766,-4.1895,-4.2082,-4.2267,-4.2287,-4.2308,-4.2348,-4.2351,-4.2308,-4.2308,-4.1968,-4.1645,-4.1022,-4.0485,-4.0159,-4.0159,-4.0157,-3.9905,-3.9603,-3.9093,-3.8488,-3.8023,-3.7755,-3.7683,-3.7595,-3.7613,-3.7613,-3.7739,-3.788,-3.817,-3.8446,-3.8637,-3.8732,-3.8732,-3.8683,-3.8606,-3.8575,-3.8649,-3.884,-3.9003,-3.8946,-3.895,-3.8866,-3.8777,-3.8621,-3.8446,-3.8646,-3.8873,-3.8927,-3.8984,-3.9013,-3.9013,-3.9059,-3.9059,-3.9101,-3.9101,-3.9101,-3.9101,-3.9101,-3.9101,-3.9101,-3.9101,-3.9101,-3.9101,-3.9101,-3.9101,-3.9101,-3.9101,-3.9101,-3.9101,-3.9045,-3.8878,-3.8581,-3.8154,-3.7671,-3.7281,-3.6829,-3.6179,-3.59,-3.5659,-3.5473,-3.5107,-3.4661,-3.4661,-3.4414,-4.0894,-4.0894,-4.0894,-4.0894,-4.0894,-4.0894,-4.0894,-4.0894,-4.0894,-4.0894,-4.0894,-4.0894,-4.0942,-4.0948,-4.0918,-4.0942,-4.0965,-4.0912,-4.0912,-4.0894,-4.0894,-4.0894,-4.0894,-4.0894,-4.0894,-4.0918,-4.0989,-4.1088,-4.1295,-4.1368,-4.1547,-4.1831,-4.1895,-4.2082,-4.2269,-4.2287,-4.2267,-4.2287,-4.2308,-4.2308,-4.2308,-4.207,-4.1967,-4.1653,-4.1534,-4.1428,-4.1198,-4.0623,-4.0468,-4.0028,-3.919,-3.8496,-3.8106,-3.7769,-3.7611,-3.7595,-3.7595,-3.7631,-3.7827,-3.8136,-3.8382,-3.8449,-3.8481,-3.8462,-3.8382,-3.8236,-3.8203,-3.8153,-3.8364,-3.8631,-3.868,-3.8788,-3.8762,-3.8716,-3.8606,-3.8366,-3.8348,-3.8491,-3.8585,-3.8676,-3.8785,-3.8815,-3.8892,-3.8979,-3.9101,-3.9101,-3.9101,-3.9101,-3.9101,-3.9101,-3.9101,-3.9101,-3.9101,-3.9101,-3.9101,-3.9101,-3.9101,-3.9101,-3.9101,-3.9101,-3.9101,-3.9101,-3.8804,-3.8469,-3.8172,-3.7838,-3.7368,-3.7015,-3.6699,-3.6476,-3.6476,-3.6185,-3.559,-3.5052,-3.481]},{"header":{"parameterUnit":"m.s-1","parameterCategory":1,"la1":31.0,"la2":29.5877,"lo1":-88.7671,"lo2":-86.6584,"dy":0.0162,"dx":0.0185,"nx":115,"ny":88,"refTime":"2024-07-06T12:00:00:Z","depth":0,"parameterNumber":3,"parameterNumberName":"V-component_of_WINDS"},"data":[0.0,0.0,0.0,0.0,0.0,0.0,0.0,0.0,0.0,0.0,0.0,0.0,0.0,0.0,0.0,0.0,0.0,0.0,0.0,0.0,0.0,0.0,0.0,0.0,0.0,0.0,0.0,0.0,0.0,0.0,0.0,0.0,0.0,0.0,0.0,0.0,0.0,0.0,0.0,0.0,0.0,0.0,0.0,0.0,0.0,0.0,0.0,0.0,0.0,0.0,0.0,0.0,0.0,0.0,0.0,0.0,0.0,0.0,0.0,0.0,0.0,0.0,0.0,0.0,0.0,0.0,0.0,0.0,0.0,0.0,0.0,0.0,0.0,0.0,0.0,0.0,0.0,0.0,0.0,0.0,0.0,0.0,0.0,0.0,0.0,0.0,0.0,0.0,0.0,0.0,0.0,0.0,0.0,0.0,0.0,0.0,0.0,0.0,0.0,0.0,0.0,0.0,0.0,0.0,0.0,0.0,0.0,0.0,0.0,0.0,0.0,0.0,0.0,0.0,0.0,0.0,0.0,0.0,0.0,0.0,0.0,0.0,0.0,0.0,0.0,0.0,0.0,0.0,0.0,0.0,0.0,0.0,0.0,0.0,0.0,0.0,0.0,0.0,0.0,0.0,0.0,0.0,0.0,0.0,0.0,0.0,0.0,0.0,0.0,0.0,0.0,0.0,0.0,0.0,0.0,0.0,0.0,0.0,0.0,0.0,0.0,0.0,0.0,0.0,0.0,0.0,0.0,0.0,0.0,0.0,0.0,0.0,0.0,0.0,0.0,0.0,0.0,0.0,0.0,0.0,0.0,0.0,0.0,0.0,0.0,0.0,0.0,0.0,0.0,0.0,0.0,0.0,0.0,0.0,0.0,0.0,0.0,0.0,0.0,0.0,0.0,0.0,0.0,0.0,0.0,0.0,0.0,0.0,0.0,0.0,0.0,0.0,0.0,0.0,0.0,0.0,0.0,0.0,0.0,0.0,0.0,0.0,0.0,0.0,0.0,0.0,0.0,0.0,0.0,0.0,0.0,0.0,0.0,0.0,0.0,0.0,0.0,0.0,0.0,0.0,0.0,0.0,0.0,0.0,0.0,0.0,0.0,0.0,0.0,0.0,0.0,0.0,0.0,0.0,0.0,0.0,0.0,0.0,0.0,0.0,0.0,0.0,0.0,0.0,0.0,0.0,0.0,0.0,0.0,0.0,0.0,0.0,0.0,0.0,0.0,0.0,0.0,0.0,0.0,0.0,0.0,0.0,0.0,0.0,0.0,0.0,0.0,0.0,0.0,0.0,0.0,0.0,0.0,0.0,0.0,0.0,0.0,0.0,0.0,0.0,0.0,0.0,0.0,0.0,0.0,0.0,0.0,0.0,0.0,0.0,0.0,0.0,0.0,0.0,0.0,0.0,0.0,0.0,0.0,0.0,0.0,0.0,0.0,0.0,0.0,0.0,0.0,0.0,0.0,0.0,0.0,0.0,0.0,0.0,0.0,0.0,0.0,0.0,0.0,0.0,0.0,0.0,0.0,0.0,0.0,0.0,0.0,0.0,0.0,0.0,0.0,0.0,0.0,0.0,0.0,0.0,0.0,0.0,0.0,0.0,0.0,0.0,0.0,0.0,0.0,0.0,0.0,0.0,0.0,0.0,0.0,0.0,0.0,0.0,0.0,0.0,0.0,0.0,0.0,0.0,0.0,0.0,0.0,0.0,0.0,0.0,0.0,0.0,0.0,0.0,0.0,0.0,0.0,0.0,0.0,0.0,0.0,0.0,0.0,0.0,0.0,0.0,0.0,0.0,0.0,0.0,0.0,0.0,0.0,0.0,0.0,0.0,0.0,0.0,0.0,0.0,0.0,0.0,0.0,0.0,0.0,0.0,0.0,0.0,0.0,0.0,0.0,0.0,0.0,0.0,0.0,0.0,0.0,0.0,0.0,0.0,0.0,0.0,0.0,0.0,0.0,0.0,0.0,0.0,0.0,0.0,0.0,0.0,0.0,0.0,0.0,0.0,0.0,0.0,0.0,0.0,0.0,0.0,0.0,0.0,0.0,0.0,0.0,0.0,0.0,0.0,0.0,0.0,0.0,0.0,0.0,0.0,0.0,0.0,0.0,0.0,0.0,0.0,0.0,0.0,0.0,0.0,0.0,0.0,0.0,0.0,0.0,0.0,0.0,0.0,0.0,0.0,0.0,0.0,0.0,0.0,0.0,0.0,0.0,0.0,0.0,0.0,0.0,0.0,0.0,0.0,0.0,0.0,0.0,0.0,0.0,0.0,0.0,0.0,0.0,0.0,0.0,0.0,0.0,0.0,0.0,0.0,0.0,0.0,0.0,0.0,0.0,0.0,0.0,0.0,0.0,0.0,0.0,0.0,0.0,0.0,0.0,0.0,0.0,0.0,0.0,0.0,0.0,0.0,0.0,0.0,0.0,0.0,0.0,0.0,0.0,0.0,0.0,0.0,0.0,0.0,0.0,0.0,0.0,0.0,0.0,0.0,0.0,0.0,0.0,0.0,0.0,0.0,0.0,0.0,0.0,0.0,0.0,0.0,0.0,0.0,0.0,0.0,0.0,0.0,0.0,0.0,0.0,0.0,0.0,0.0,0.0,0.0,0.0,0.0,0.0,0.0,0.0,0.0,0.0,0.0,0.0,0.0,0.0,0.0,0.0,0.0,0.0,0.0,0.0,0.0,0.0,0.0,0.0,0.0,0.0,0.0,0.0,0.0,0.0,0.0,0.0,0.0,0.0,0.0,0.0,0.0,0.0,0.0,0.0,0.0,0.0,0.0,0.0,0.0,0.0,0.0,0.0,0.0,0.0,0.0,0.0,0.0,0.0,0.0,0.0,0.0,0.0,0.0,0.0,0.0,0.0,0.0,0.0,0.0,0.0,0.0,0.0,0.0,0.0,0.0,0.0,0.0,0.0,0.0,0.0,0.0,0.0,0.0,0.0,0.0,0.0,0.0,0.0,0.0,0.0,0.0,0.0,0.0,0.0,0.0,0.0,0.0,0.0,0.0,0.0,0.0,0.0,0.0,0.0,0.0,0.0,0.0,0.0,0.0,0.0,0.0,0.0,0.0,0.0,0.0,0.0,0.0,0.0,0.0,0.0,0.0,0.0,0.0,0.0,0.0,0.0,0.0,0.0,0.0,0.0,0.0,0.0,0.0,0.0,0.0,0.0,0.0,0.0,0.0,0.0,0.0,0.0,0.0,0.0,0.0,0.0,0.0,0.0,0.0,0.0,0.0,0.0,0.0,0.0,0.0,0.0,0.0,0.0,0.0,0.0,0.0,0.0,0.0,0.0,0.0,0.0,0.0,0.0,0.0,0.0,0.0,0.0,0.0,0.0,0.0,0.0,0.0,0.0,0.0,0.0,0.0,0.0,0.0,0.0,0.0,0.0,0.0,0.0,0.0,0.0,0.0,0.0,0.0,0.0,0.0,0.0,0.0,0.0,0.0,0.0,0.0,0.0,0.0,0.0,0.0,0.0,0.0,0.0,0.0,0.0,0.0,0.0,0.0,0.0,0.0,0.0,0.0,0.0,0.0,0.0,0.0,0.0,0.0,0.0,0.0,0.0,0.0,0.0,0.0,0.0,0.0,0.0,0.0,0.0,0.0,0.0,0.0,0.0,0.0,0.0,0.0,0.0,0.0,0.0,0.0,0.0,0.0,0.0,0.0,0.0,0.0,0.0,0.0,0.0,0.0,0.0,0.0,0.0,0.0,0.0,0.0,0.0,0.0,0.0,0.0,0.0,0.0,0.0,0.0,0.0,0.0,0.0,0.0,0.0,0.0,0.0,0.0,0.0,0.0,0.0,0.0,0.0,0.0,0.0,0.0,0.0,0.0,0.0,0.0,0.0,0.0,0.0,0.0,0.0,0.0,0.0,0.0,0.0,0.0,0.0,0.0,0.0,0.0,0.0,0.0,0.0,0.0,0.0,0.0,0.0,0.0,0.0,0.0,0.0,0.0,0.0,0.0,0.0,0.0,0.0,0.0,0.0,0.0,0.0,0.0,0.0,0.0,0.0,0.0,0.0,0.0,0.0,0.0,0.0,0.0,0.0,0.0,0.0,0.0,0.0,0.0,0.0,0.0,0.0,0.0,0.0,0.0,0.0,0.0,0.0,0.0,0.0,0.0,0.0,0.0,0.0,0.0,0.0,0.0,0.0,0.0,0.0,0.0,0.0,0.0,0.0,0.0,0.0,0.0,0.0,0.0,0.0,0.0,0.0,0.0,0.0,0.0,0.0,0.0,0.0,0.0,0.0,0.0,0.0,0.0,0.6011,0.0,0.0,0.0,0.0,0.0,0.0,0.0,0.0,0.0,0.0,0.0,0.0,0.0,0.0,0.0,0.0,0.0,0.0,0.0,0.0,0.0,0.0,0.0,0.0,0.0,0.0,0.0,0.0,0.0,0.0,0.0,0.0,0.0,0.0,0.0,0.0,0.0,0.0,0.0,0.0,0.0,0.0,0.0,0.0,0.0,0.0,0.0,0.0,0.0,0.0,0.0,0.0,0.0,0.0,0.0,0.0,0.0,0.0,0.0,0.0,0.0,0.0,0.0,0.0,0.0,0.0,0.0,0.0,0.0,0.0,0.0,0.0,0.0,0.0,0.0,0.0,0.0,0.0,0.0,0.0,0.0,0.0,0.0,0.0,0.0,0.0,0.0,0.0,0.0,0.0,0.0,0.0,0.0,0.0,0.0,0.0,0.0,0.0,0.0,0.0,0.0,0.0,0.0,0.0,0.0,0.0,0.0,0.0,0.0,0.0,0.5518,0.5396,0.5428,0.562,0.5977,0.0,0.0,0.0,0.0,0.0,0.0,0.0,0.0,0.0,0.0,0.0,0.0,0.0,0.0,0.0,0.0,0.0,0.0,0.0,0.0,0.0,0.0,0.0,0.0,0.0,0.0,0.0,0.0,0.0,0.0,0.0,0.0,0.0,0.0,0.0,0.0,0.0,0.0,0.0,0.0,0.0,0.0,0.0,0.0,0.0,0.0,0.0,0.0,0.0,0.0,0.0,0.0,0.0,0.0,0.0,0.0,0.0,0.0,0.0,0.0,0.0,0.0,0.0,0.0,0.0,0.0,0.0,0.0,0.0,0.0,0.0,0.0,0.0,0.0,0.0,0.0,0.0,0.0,0.0,0.0,0.0,0.0,0.0,0.0,0.0,0.0,0.0,0.0,0.0,0.0,0.0,0.0,0.0,0.0,0.0,0.0,0.0,0.0,0.0,0.0,0.0,0.0,0.0,0.0,0.0,0.0,0.0,0.0,0.0,0.0,0.0,0.0,0.5511,0.5743,0.6059,0.0,0.0,0.0,0.0,0.0,0.0,0.0,0.0,0.0,0.0,0.0,0.0,0.0,0.0,0.0,0.0,0.0,0.0,0.0,0.0,0.0,0.0,0.0,0.0,0.0,0.0,0.0,0.0,0.0,0.0,0.0,0.0,0.0,0.0,0.0,0.0,0.0,0.0,0.0,0.0,0.0,0.0,0.0,0.0,0.0,0.0,0.0,0.0,0.0,0.0,0.0,0.0,0.0,0.0,0.0,0.0,0.0,0.0,0.0,0.0,0.0,0.0,0.0,0.0,0.0,0.0,0.0,0.0,0.0,0.0,0.0,0.0,0.0,0.0,0.0,0.0,0.0,0.0,0.0,0.0,0.0,0.0,0.0,0.0,0.0,0.0,0.0,0.0,0.0,0.0,0.0,0.0,0.0,0.0,0.0,0.0,0.0,0.0,0.0,0.0,0.0,0.0,0.0,0.0,0.0,0.0,0.0,0.0,0.0,0.0,0.5521,0.54,0.5929,0.0,0.6286,0.0,0.0,0.0,0.0,0.0,0.0,0.0,0.0,0.0,0.0,0.0,0.0,0.0,0.0,0.0,0.0,0.0,0.0,0.0,0.0,0.0,0.0,0.0,0.0,0.0,0.0,0.0,0.0,0.0,0.0,0.0,0.0,0.0,0.0,0.0,0.0,0.0,0.0,0.0,0.0,0.0,0.0,0.0,0.0,0.0,0.0,0.0,0.0,0.0,0.0,0.0,0.0,0.0,0.0,0.0,0.0,0.0,0.0,0.0,0.0,0.0,0.0,0.0,0.0,0.0,0.0,0.0,0.0,0.0,0.0,0.0,0.0,0.0,0.0,0.0,0.0,0.0,0.0,0.0,0.0,0.0,0.0,0.0,0.0,0.0,0.0,0.0,0.0,0.0,0.0,0.0,0.0,0.0,0.0,0.0,0.0,0.0,0.0,0.0,0.0,0.0,0.0,0.0,0.0,0.0,0.0,0.0,0.0,0.0,0.0,0.0,0.5462,0.6,0.6287,0.0,0.0,0.0,0.0,0.0,0.0,0.0,0.0,0.0,0.0,0.0,0.0,0.0,0.0,0.0,0.0,0.0,0.0,0.0,0.0,0.0,0.0,0.0,0.0,0.0,0.0,0.0,0.0,0.0,0.0,0.0,0.0,0.0,0.0,0.0,0.0,0.0,0.0,0.0,0.0,0.0,0.0,0.0,0.0,0.0,0.0,0.0,0.0,0.0,0.0,0.0,0.0,0.0,0.0,0.0,0.0,0.0,0.0,0.0,0.0,0.0,0.0,0.0,0.0,0.0,0.0,0.0,0.0,0.0,0.0,0.0,0.0,0.0,0.0,0.0,0.0,0.0,0.0,0.0,0.0,0.0,0.0,0.0,0.0,0.0,0.0,0.0,0.0,0.0,0.0,0.0,0.0,0.0,0.0,0.0,0.0,0.0,0.0,0.0,0.0,0.0,0.0,0.0,0.0,0.0,0.0,0.0,0.0,0.0,0.0,0.5396,0.0,0.5671,0.6125,0.6306,0.6138,0.0,0.0,0.0,0.0,0.0,0.0,0.0,0.0,0.0,0.0,0.0,0.0,0.0,0.0,0.0,0.0,0.0,0.0,0.0,0.0,0.0,0.0,0.0,0.0,0.0,0.0,0.0,0.0,0.0,0.0,0.0,0.0,0.0,0.0,0.0,0.0,0.0,0.0,0.0,0.0,0.0,0.0,0.0,0.0,0.0,0.0,0.0,0.0,0.0,0.0,0.0,0.0,0.0,0.0,0.0,0.0,0.0,0.0,0.0,0.0,0.0,0.0,0.0,0.0,0.0,0.0,0.0,0.0,0.0,0.0,0.0,0.0,0.0,0.0,0.0,0.0,0.0,0.0,0.0,0.0,0.0,0.0,0.0,0.0,0.0,0.0,0.0,0.0,0.0,0.0,0.0,0.0,0.0,0.0,0.0,0.0,0.0,0.0,0.0,0.0,0.0,0.0,0.0,0.0,0.0,0.0,0.0,0.0,0.0,0.5252,0.5401,0.5957,0.6372,0.6378,0.0,0.0,0.0,0.0,0.0,0.0,0.0,0.0,0.0,0.0,0.0,0.0,0.0,0.0,0.0,0.0,0.0,0.0,0.0,0.0,0.0,0.0,0.0,0.0,0.0,0.0,0.0,0.0,0.0,0.0,0.0,0.0,0.0,0.0,0.0,0.0,0.0,0.0,0.0,0.0,0.0,0.0,0.0,0.0,0.0,0.0,0.0,0.0,0.0,0.0,0.0,0.0,0.0,0.0,0.0,0.0,0.0,0.0,0.0,0.0,0.0,0.0,0.0,0.0,0.0,0.0,0.0,0.0,0.0,0.0,0.0,0.0,0.0,0.0,0.0,0.0,0.0,0.0,0.0,0.0,0.0,0.0,0.0,0.0,0.0,0.0,0.0,0.0,0.0,0.0,0.0,0.0,0.0,0.0,0.0,0.0,0.0,0.0,0.0,0.0,0.0,0.0,0.0,0.0,0.0,0.0,0.0,0.0,0.0,0.4713,0.4899,0.5264,0.5857,0.5796,0.5806,0.0,0.0,0.0,0.0,0.0,0.0,0.0,0.0,0.0,0.0,0.0,0.0,0.0,0.0,0.0,0.0,0.0,0.0,0.0,0.0,0.0,0.0,0.0,0.0,0.0,0.0,0.0,0.0,0.0,0.0,0.0,0.0,0.0,0.0,0.0,0.0,0.0,0.0,0.0,0.0,0.0,0.0,0.0,0.0,0.0,0.0,0.0,0.0,0.0,0.0,0.0,0.0,0.0,0.0,0.0,0.0,0.0,0.0,0.0,0.0,0.0,0.0,0.0,0.0,0.0,0.0,0.0,0.0,0.0,0.0,0.0,0.0,0.0,0.0,0.0,0.0,0.0,0.0,0.0,0.0,0.0,0.0,0.0,0.0,0.0,0.0,0.0,0.0,0.0,0.0,0.0,0.0,0.0,0.0,0.0,0.0,0.0,0.0,0.0,0.0,0.0,0.0,0.0,0.0,0.0,0.0,0.0,0.0,0.0,0.436,0.0,0.5009,0.0,0.5291,0.5296,0.0,0.0,0.0,0.0,0.0,0.0,0.0,0.0,0.0,0.0,0.0,0.0,0.0,0.0,0.0,0.0,0.0,0.0,0.0,0.0,0.0,0.0,0.0,0.0,0.0,0.0,0.0,0.0,0.0,0.0,0.0,0.0,0.0,0.0,0.0,0.0,0.0,0.0,0.0,0.0,0.0,0.0,0.0,0.0,0.0,0.0,0.0,0.0,0.0,0.0,0.0,0.0,0.0,0.0,0.0,0.0,0.0,0.0,0.0,0.0,0.0,0.0,0.0,0.0,0.0,0.0,0.0,0.0,0.0,0.0,0.0,0.0,0.0,0.0,0.0,0.0,0.0,0.0,0.0,0.0,0.0,0.0,0.0,0.0,0.0,0.0,0.0,0.0,0.0,0.0,0.0,0.0,0.0,0.0,0.0,0.0,0.0,0.0,0.0,0.0,0.0,0.0,0.0,0.0,0.0,0.0,0.0,0.0,0.4088,0.4466,0.4547,0.4595,0.471,0.4886,0.4901,0.0,0.0,0.0,0.0,0.0,0.0,0.0,0.0,0.0,0.0,0.0,0.0,0.0,0.0,0.0,0.0,0.0,0.0,0.0,0.0,0.0,0.0,0.0,0.0,0.0,0.0,0.0,0.0,0.0,0.0,0.0,0.0,0.0,0.0,0.0,0.0,0.0,0.0,0.0,0.0,0.0,0.0,0.0,0.0,0.0,0.0,0.0,0.0,0.0,0.0,0.0,0.0,0.0,0.0,0.0,0.0,0.0,0.0,0.0,0.0,0.0,0.0,0.0,0.0,0.0,0.0,0.0,0.0,0.0,0.0,0.0,0.0,0.0,0.0,0.0,0.0,0.0,0.0,0.0,0.0,0.0,0.0,0.0,0.0,0.0,0.0,0.0,0.0,0.0,0.0,0.0,0.0,0.0,0.0,0.0,0.0,0.0,0.0,0.0,0.0,0.0,0.0,0.0,0.0,0.0,0.0,0.0,0.0,0.0,0.394,0.3969,0.4019,0.4091,0.414,0.4325,0.0,0.0,0.0,0.0,0.0,0.0,0.0,0.0,0.0,0.0,0.0,0.0,0.0,0.0,0.0,0.0,0.0,0.0,0.0,0.0,0.0,0.0,0.0,0.0,0.0,0.0,0.0,0.0,0.0,0.0,0.0,0.0,0.0,0.0,0.0,0.0,0.0,0.0,0.0,0.0,0.0,0.0,0.0,0.0,0.0,0.0,0.0,0.0,0.0,0.0,0.0,0.0,0.0,0.0,0.0,0.0,0.0,0.0,0.0,0.0,0.0,0.0,0.0,0.0,0.0,0.0,0.0,0.0,0.0,0.0,0.0,0.0,0.0,0.0,0.0,0.0,0.0,0.0,0.0,0.0,0.0,0.0,0.0,0.0,0.0,0.0,0.0,0.0,0.0,0.0,0.0,0.0,0.0,0.0,0.0,0.0,0.0,0.0,0.0,0.0,0.0,0.0,0.0,0.0,0.0,0.0,0.0,0.0,0.0,0.3566,0.3653,0.3767,0.3904,0.4004,0.4289,0.4785,0.0,0.0,0.0,0.0,0.0,0.0,0.0,0.0,0.0,0.0,0.0,0.0,0.0,0.0,0.0,0.0,0.0,0.0,0.0,0.0,0.0,0.0,0.0,0.0,0.0,0.0,0.0,0.0,0.0,0.0,0.0,0.0,0.0,0.0,0.0,0.0,0.0,0.0,0.0,0.0,0.0,0.0,0.0,0.0,0.0,0.0,0.0,0.0,0.0,0.0,0.0,0.0,0.0,0.0,0.0,0.0,0.0,0.0,0.0,0.0,0.0,0.0,0.0,0.0,0.0,0.0,0.0,0.0,0.0,0.0,0.0,0.0,0.0,0.0,0.0,0.0,0.0,0.0,0.0,0.0,0.0,0.0,0.0,0.0,0.0,0.0,0.0,0.0,0.0,0.0,0.0,0.0,0.0,0.0,0.0,0.0,0.0,0.0,0.0,0.0,0.0,0.0,0.0,0.0,0.0,0.0,0.0,0.0,0.3311,0.3583,0.3857,0.4086,0.4322,0.4659,0.0,0.0,0.0,0.0,0.0,0.0,0.0,0.0,0.0,0.0,0.0,0.0,0.0,0.0,0.0,0.0,0.0,0.0,0.0,0.0,0.0,0.0,0.0,0.0,0.0,0.0,0.0,0.0,0.0,0.0,0.0,0.0,0.0,0.0,0.0,0.0,0.0,0.0,0.0,0.0,0.0,0.0,0.0,0.0,0.0,0.0,0.0,0.0,0.0,0.0,0.0,0.0,0.0,0.0,0.0,0.0,0.0,0.0,0.0,0.0,0.0,0.0,0.0,0.0,0.0,0.0,0.0,0.0,0.0,0.0,0.0,0.0,0.0,0.0,0.0,0.0,0.0,0.0,0.0,0.0,0.0,0.0,0.0,0.0,0.0,0.0,0.0,0.0,0.0,0.0,0.0,0.0,0.0,0.0,0.0,0.0,0.0,0.0,0.0,0.0,0.0,0.0,0.0,0.0,0.0,0.0,0.0,0.0,0.0,0.3483,0.3889,0.4097,0.4036,0.4094,0.4317,0.0,0.0,0.0,0.0,0.0,0.0,0.0,0.0,0.0,0.0,0.0,0.0,0.0,0.0,0.0,0.0,0.0,0.0,0.0,0.0,0.0,0.0,0.0,0.0,0.0,0.0,0.0,0.0,0.0,0.0,0.0,0.0,0.0,0.0,0.0,0.0,0.0,0.0,0.0,0.0,0.0,0.0,0.0,0.0,0.0,0.0,0.0,0.0,0.0,0.0,0.0,0.0,0.0,0.0,0.0,0.0,0.0,0.0,0.0,0.0,0.0,0.0,0.0,0.0,0.0,0.0,0.0,0.0,0.0,0.0,0.0,0.0,0.0,0.0,0.0,0.0,0.0,0.0,0.0,0.0,0.0,0.0,0.0,0.0,0.0,0.0,0.0,0.0,0.0,0.0,0.0,0.0,0.0,0.0,0.0,0.0,0.0,0.0,0.0,0.0,0.0,0.0,0.0,0.0,0.0,0.0,0.0,0.0,0.3695,0.3591,0.4056,0.4354,0.4501,0.4722,0.4962,0.0,0.0,0.0,0.0,0.0,0.0,0.0,0.0,0.0,0.0,0.0,0.0,0.0,0.0,0.0,0.0,0.0,0.0,0.0,0.0,0.0,0.0,0.0,0.0,0.0,0.0,0.0,0.0,0.0,0.0,0.0,0.0,0.0,0.0,0.0,0.0,0.0,0.0,0.0,0.0,0.0,0.0,0.0,0.0,0.0,0.0,0.0,0.0,0.0,0.0,0.0,0.0,0.0,0.0,0.0,0.0,0.0,0.0,0.0,0.0,0.0,0.0,0.0,0.0,0.0,0.0,0.0,0.0,0.0,0.0,0.0,0.0,0.0,0.0,0.0,0.0,0.0,0.0,0.0,0.0,0.0,0.0,0.0,0.0,0.0,0.0,0.0,0.0,0.0,0.0,0.0,0.0,0.0,0.0,0.0,0.0,0.0,0.0,0.0,0.0,0.0,0.0,0.0,0.0,0.0,0.0,0.0,0.0,0.3765,0.3725,0.4113,0.4608,0.5245,0.5725,0.6027,0.0,0.0,0.0,0.0,0.0,0.0,0.0,0.0,0.0,0.0,0.0,0.0,0.0,0.0,0.0,0.0,0.0,0.0,0.0,0.0,0.0,0.0,0.0,0.0,0.0,0.0,0.0,0.0,0.0,0.0,0.0,0.0,0.0,0.0,0.0,0.0,0.0,0.0,0.0,0.0,0.0,0.0,0.0,0.0,0.0,0.0,0.0,0.0,0.0,0.0,0.0,0.0,0.0,0.0,0.0,0.0,0.0,0.0,0.0,0.0,0.0,0.0,0.0,0.0,0.0,0.0,0.0,0.0,0.0,0.0,0.0,0.0,0.0,0.0,0.0,0.0,0.0,0.0,0.0,0.0,0.0,0.0,0.0,0.0,0.0,0.0,0.0,0.0,0.0,0.0,0.0,0.0,0.0,0.0,0.0,0.0,0.0,0.0,0.0,0.0,0.0,0.0,0.0,0.0,0.0,0.0,0.0,0.0,0.3772,0.386,0.4254,0.4874,0.5723,0.5811,0.5995,0.0,0.0,0.0,0.0,0.0,0.0,0.0,0.0,0.0,0.0,0.0,0.0,0.0,0.0,0.0,0.0,0.0,0.0,0.0,0.0,0.0,0.0,0.0,0.0,0.0,0.0,0.0,0.0,0.0,0.0,0.0,0.0,0.0,0.0,0.0,0.0,0.0,0.0,0.0,0.0,0.0,0.0,0.0,0.0,0.0,0.0,0.0,0.0,0.2778,0.0,0.0,0.0,0.0,0.0,0.0,0.0,0.0,0.0,0.0,0.0,0.0,0.0,0.0,0.0,0.0,0.0,0.0,0.0,0.0,0.0,0.0,0.0,0.0,0.0,0.0,0.0,0.0,0.0,0.0,0.0,0.0,0.0,0.0,0.0,0.0,0.0,0.0,0.0,0.0,0.0,0.0,0.0,0.0,0.0,0.0,0.0,0.0,0.0,0.0,0.0,0.0,0.0,0.0,0.0,0.0,0.0,0.0,0.0,0.3651,0.4113,0.4149,0.4726,0.5837,0.6074,0.6307,0.0,0.0,0.0,0.0,0.0,0.0,0.0,0.0,0.0,0.0,0.0,0.0,0.0,0.0,0.0,0.0,0.0,0.0,0.0,0.0,0.0,0.0,0.0,0.0,0.0,0.0,0.0,0.0,0.0,0.0,0.0,0.0,0.0,0.0,0.0,0.0,0.0,0.0,0.0,0.0,0.0,0.0,0.0,0.0,0.0,0.0,0.0,0.0,0.0,0.0,0.0,0.0,0.0,0.0,0.0,0.0,0.0,0.0,0.0,0.0,0.0,0.0,0.0,0.0,0.0,0.0,0.0,0.0,0.0,0.0,0.0,0.0,0.0,0.0,0.0,0.0,0.0,0.0,0.0,0.0,0.0,0.0,0.0,0.0,0.0,0.0,0.0,0.0,0.0,0.0,0.0,0.0,0.0,0.0,0.0,0.0,0.0,0.0,0.0,0.0,0.0,0.0,0.0,0.0,0.0,0.0,0.0,0.3191,0.3481,0.4287,0.4036,0.4495,0.5836,0.6321,0.6611,0.6794,0.0,0.0,0.0,0.0,0.0,0.0,0.0,0.0,0.0,0.0,0.0,0.0,0.0,0.0,0.0,0.0,0.0,0.0,0.0,0.0,0.0,0.0,0.0,0.0,0.0,0.0,0.0,0.0,0.0,0.0,0.0,0.0,0.0,0.0,0.0,0.0,0.0,0.0,0.5333,0.43,0.0,0.0,0.0,0.0,0.0,0.0,0.0,0.0,0.2694,0.0,0.0,0.0,0.0,0.0,0.0,0.0,0.0,0.0,0.0,0.0,0.0,0.0,0.0,0.0,0.0,0.0,0.0,0.0,0.0,0.0,0.0,0.0,0.0,0.0,0.0,0.0,0.0,0.0,0.0,0.0,0.0,0.0,0.0,0.0,0.0,0.0,0.0,0.0,0.0,0.0,0.0,0.0,0.0,0.0,0.0,0.0,0.0,0.0,0.0,0.0,0.0,0.0,0.0,0.0,0.0,0.293,0.2934,0.3326,0.4122,0.4144,0.4671,0.5772,0.6108,0.6405,0.6721,0.0,0.0,0.0,0.0,0.0,0.0,0.0,0.0,0.0,0.0,0.0,0.0,0.0,0.0,0.0,0.0,0.0,0.0,0.0,0.0,0.0,0.0,0.0,0.0,0.0,0.0,0.0,0.0,0.0,0.0,0.0,0.0,0.0,0.0,0.0,0.0,0.0,0.0,0.0,0.4771,0.421,0.0,0.0,0.0,0.0,0.0,0.0,0.0,0.0,0.2242,0.0,0.0,0.0,0.0,0.0,0.0,0.0,0.0,0.0,0.0,0.0,0.0,0.0,0.0,0.0,0.0,0.0,0.0,0.0,0.0,0.0,0.0,0.0,0.0,0.0,0.0,0.0,0.0,0.0,0.0,0.0,0.0,0.0,0.0,0.0,0.0,0.0,0.0,0.0,0.0,0.0,0.0,0.0,0.0,0.0,0.0,0.0,0.0,0.0,0.0,0.0,0.0,0.0,0.0,0.0,0.2661,0.2822,0.3296,0.4066,0.4232,0.4781,0.5737,0.5773,0.5939,0.0,0.0,0.0,0.0,0.0,0.0,0.0,0.0,0.0,0.0,0.0,0.0,0.0,0.0,0.0,0.0,0.0,0.0,0.0,0.0,0.0,0.0,0.0,0.0,0.0,0.0,0.0,0.0,0.0,0.0,0.0,0.0,0.0,0.0,0.0,0.0,0.0,0.0,0.0,0.0,0.4359,0.3828,0.3721,0.0,0.0,0.0,0.0,0.0,0.0,0.1722,0.1811,0.0,0.0,0.0,0.0,0.0,0.0,0.0,0.0,0.0,0.0,0.0,0.0,0.0,0.0,0.0,0.0,0.0,0.0,0.0,0.0,0.0,0.0,0.0,0.0,0.0,0.0,0.0,0.0,0.0,0.0,0.0,0.0,0.0,0.0,0.0,0.0,0.0,0.0,0.0,0.0,0.0,0.0,0.0,0.0,0.0,0.0,0.0,0.0,0.0,0.0,0.0,0.0,0.0,0.0,0.0,0.237,0.2554,0.304,0.3726,0.4082,0.4632,0.5453,0.5485,0.5623,0.0,0.0,0.0,0.0,0.0,0.0,0.0,0.0,0.0,0.0,0.0,0.0,0.0,0.0,0.0,0.0,0.0,0.0,0.0,0.0,0.0,0.0,0.0,0.0,0.0,0.0,0.0,0.0,0.0,0.0,0.0,0.0,0.0,0.0,0.0,0.0,0.0,0.0,0.0,0.0,0.0,0.3462,0.3469,0.2943,0.0,0.0,0.0,0.0,0.1307,0.1271,0.0,0.0,0.0,0.0,0.0,0.0,0.0,0.0,0.0,0.0,0.0,0.0,0.0,0.0,0.0,0.0,0.0,0.0,0.0,0.0,0.0,0.0,0.0,0.0,0.0,0.0,0.0,0.0,0.0,0.0,0.0,0.0,0.0,0.0,0.0,0.0,0.0,0.0,0.0,0.0,0.0,0.0,0.0,0.0,0.0,0.0,0.0,0.0,0.0,0.0,0.0,0.0,0.0,0.0,0.0,0.0,0.19,0.1905,0.2189,0.2688,0.3353,0.3905,0.4364,0.5489,0.5847,0.0,0.0,0.0,0.0,0.0,0.0,0.0,0.0,0.0,0.0,0.0,0.0,0.0,0.0,0.0,0.0,0.0,0.0,0.0,0.0,0.0,0.0,0.0,0.0,0.0,0.0,0.0,0.0,0.0,0.0,0.0,0.0,0.0,0.0,0.0,0.0,0.0,0.0,0.0,0.0,0.0,0.3911,0.294,0.2342,0.1864,0.0,0.0,0.129,0.0976,0.0705,0.0,0.0,0.0,0.0,0.0,0.0,0.0,0.0,0.0,0.0,0.0,0.0,0.0,0.0,0.0,0.0,0.0,0.0,0.0,0.0,0.0,0.0,0.0,0.0,0.0,0.0,0.0,0.0,0.0,0.0,0.0,0.0,0.0,0.0,0.0,0.0,0.0,0.0,0.0,0.0,0.0,0.0,0.0,0.0,0.0,0.0,0.0,0.0,0.0,0.0,0.0,0.0,0.0,0.0,0.0,0.2068,0.1825,0.2066,0.2291,0.2522,0.3556,0.4168,0.4315,0.5271,0.553,0.0,0.0,0.0,0.0,0.0,0.0,0.0,0.0,0.0,0.0,0.0,0.0,0.0,0.0,0.0,0.0,0.0,0.0,0.0,0.0,0.0,0.0,0.0,0.0,0.0,0.0,0.0,0.0,0.0,0.0,0.0,0.0,0.0,0.0,0.0,0.0,0.0,0.0,0.0,0.0,0.0,0.0,0.2763,0.2086,0.0,0.0,0.0,0.0555,0.0455,0.0,0.0,0.0,0.0,0.0,0.0,0.0,0.0,0.0,0.0,0.0,0.0,0.0,0.0,0.0,0.0,0.0,0.0,0.0,0.0,0.0,0.0,0.0,0.0,0.0,0.0,0.0,0.0,0.0,0.0,0.0,0.0,0.0,0.0,0.0,0.0,0.0,0.0,0.0,0.0,0.0,0.0,0.0,0.0,0.0,0.0,0.0,0.0,0.0,0.0,0.0,0.0,0.0,0.0,0.0,0.0,0.0,0.1825,0.2131,0.2379,0.253,0.3654,0.4287,0.4289,0.5109,0.0,0.0,0.0,0.0,0.0,0.0,0.0,0.0,0.0,0.0,0.0,0.0,0.0,0.0,0.0,0.0,0.0,0.0,0.0,0.0,0.0,0.0,0.0,0.0,0.0,0.0,0.0,0.3017,0.0,0.0,0.0,0.0,0.0,0.0,0.0,0.0,0.0,0.0,0.0,0.0,0.0,0.0,0.2424,0.2353,0.1731,0.113,0.0,0.0,-0.0081,-0.0206,-0.0424,-0.0443,0.0,0.0,0.0,0.0,0.0,0.0,0.0,0.0,0.0,0.0,0.0,0.0,0.0,0.0,0.0,0.0,0.0,0.0,0.0,0.0,0.0,0.0,0.0,0.0,0.0,0.0,0.0,0.0,0.0,0.0,0.0,0.0,0.0,0.0,0.0,0.0,0.0,0.0,0.0,0.0,0.0,0.0,0.0,0.0,0.0,0.0,0.0,0.0,0.0,0.0,0.0,0.0,0.0,0.0,0.0,0.1895,0.1757,0.1974,0.2597,0.3289,0.3732,0.3968,0.5078,0.5176,0.0,0.0,0.0,0.0,0.0,0.0,0.0,0.0,0.0,0.0,0.0,0.0,0.0,0.0,0.0,0.0,0.0,0.0,0.0,0.0,0.0,0.0,0.0,0.0,0.0,0.0,0.0,0.0,0.0,0.0,0.0,0.0,0.0,0.0,0.0,0.0,0.0,0.0,0.0,0.0,0.0,0.1882,0.1451,0.108,0.0596,0.0,0.0,-0.036,-0.0911,-0.0951,-0.0696,-0.0166,0.0,0.0,0.0,0.0,0.0,0.0,0.0,0.0,0.0,0.0,0.0,0.0,0.0,0.0,0.0,0.0,0.0,0.0,0.0,0.0,0.0,0.0,0.0,0.0,0.0,0.0,0.0,0.0,0.0,0.0,0.0,0.0,0.0,0.0,0.0,0.0,0.0,0.0,0.0,0.0,0.0,0.0,0.0,0.0,0.0,0.0,0.0,0.0,0.0,0.0,0.0,0.0,0.0,0.1827,0.1895,0.2054,0.2311,0.2631,0.3621,0.4173,0.4209,0.5498,0.5697,0.0,0.0,0.0,0.0,0.0,0.0,0.0,0.0,0.0,0.0,0.0,0.0,0.0,0.0,0.0,0.0,0.0,0.0,0.0,0.0,0.0,0.0,0.0,0.0,0.0,0.0,0.0,0.0,0.2995,0.3138,0.3534,0.0,0.0,0.0,0.0,0.0,0.0,0.0,0.0,0.0,0.0,0.1057,0.1002,0.0494,0.0,0.0,-0.1066,-0.1345,-0.1287,-0.1374,-0.1183,-0.0409,-0.0593,0.0,0.0,0.0,0.0,0.0,0.0,0.0,0.0,0.0,0.0,0.0,0.0,0.0,0.0,0.0,0.0,0.0,0.0,0.0,0.0,0.0,0.0,0.0,0.0,0.0,0.0,0.0,0.0,0.0,0.0,0.0,0.0,0.0,0.0,0.0,0.0,0.0,0.0,0.0,0.0,0.0,0.0,0.0,0.0,0.0,0.0,0.0,0.0,0.0,0.0,0.0,0.0,0.1804,0.1827,0.2102,0.2451,0.2886,0.3777,0.4334,0.4632,0.5594,0.5722,0.0,0.0,0.0,0.0,0.0,0.0,0.0,0.0,0.0,0.0,0.0,0.0,0.0,0.0,0.0,0.0,0.0,0.0,0.0,0.0,0.0,0.0,0.0,0.0,0.0,0.0,0.0,0.0,0.302,0.3066,0.3296,0.0,0.0,0.0,0.0,0.0,0.0,0.0,0.0,0.0,0.0,0.012,0.026,0.0,-0.0445,-0.1116,-0.1497,-0.1721,-0.1752,-0.1783,-0.1547,-0.0851,0.0,0.0,0.0,0.0,0.0,0.0,0.0,0.0,0.0,0.0,0.0,0.0,0.0,0.0,0.0,0.0,0.0,0.0,0.0,0.0,0.0,0.0,0.0,0.0,0.0,0.0,0.0,0.5689,0.0,0.0,0.5396,0.0,0.0,0.0,0.0,0.0,0.0,0.0,0.0,0.0,0.0,0.0,0.0,0.0,0.0,0.0,0.0,0.0,0.0,0.0,0.0,0.0,0.0,0.1778,0.1715,0.1664,0.2269,0.3528,0.3597,0.409,0.5036,0.5191,0.5027,0.4577,0.0,0.0,0.0,0.0,0.0,0.0,0.0,0.0,0.0,0.0,0.0,0.0,0.0,0.0,0.0,0.0,0.0,0.0,0.0,0.0,0.0,0.0,0.0,0.0,0.0,0.0,0.278,0.2752,0.2751,0.0,0.0,0.0,0.0,0.0,0.0,0.0,0.0,0.0,0.0,-0.0514,-0.0944,-0.0848,-0.0383,-0.0502,-0.1758,-0.1347,-0.1261,-0.2392,-0.2089,-0.166,0.0,0.0,0.0,0.0,0.0,0.0,0.0,0.0,0.0,0.0,0.0,0.0,0.0,0.0,0.0,0.0,0.0,0.0,0.0,0.0,0.0,0.0,0.0,0.0,0.0,0.0,0.0,0.6364,0.6167,0.0,0.0,0.0,0.0,0.0,0.0,0.0,0.0,0.0,0.0,0.0,0.5785,0.5698,0.0,0.0,0.0,0.0,0.0,0.0,0.0,0.0,0.0,0.0,0.0,0.0,0.1823,0.1726,0.2074,0.2699,0.3591,0.3987,0.4518,0.524,0.5657,0.5823,0.576,0.0,0.0,0.0,0.0,0.0,0.0,0.0,0.0,0.0,0.0,0.0,0.0,0.0,0.0,0.0,0.0,0.0,0.0,0.0,0.0,0.0,0.0,0.0,0.0,0.0,0.2656,0.0,0.0,0.0,0.0,0.0,0.0,0.0,0.0,0.0,0.0,0.0,-0.0502,-0.1147,-0.1356,-0.1481,-0.1479,-0.1334,-0.1399,0.0,0.0,0.0,0.0,0.0,0.0,0.0,0.0,0.0,0.0,0.0,0.0,0.0,0.0,-0.2875,-0.2526,-0.2404,-0.2373,-0.2373,0.0,0.0,0.0,0.0,0.0,0.0,0.0,0.0,0.0,0.0,0.0,0.0,0.0,0.0,0.6797,0.0,0.6479,0.0,0.0,0.0,0.0,0.0,0.0,0.0,0.0,0.6306,0.6389,0.6218,0.612,0.6115,0.0,0.5565,0.5189,0.0,0.0,0.0,0.0,0.0,0.0,0.0,0.0,0.1836,0.1672,0.2054,0.2729,0.3564,0.3987,0.4546,0.5266,0.573,0.6007,0.6085,0.5591,0.5193,0.0,0.0,0.0,0.0,0.0,0.0,0.0,0.0,0.0,0.0,0.0,0.0,0.0,0.0,0.0,0.0,0.0,0.0,0.0,0.0,0.0,0.0,0.0,0.26,0.0,0.0,0.0,0.0,0.0,0.0,0.0,0.0,0.0,-0.0057,-0.0602,-0.1211,-0.1798,-0.1984,-0.2046,-0.212,0.0,0.0,0.0,0.0,0.0,0.0,0.0,-0.2342,-0.2095,-0.2358,-0.2481,-0.2195,-0.2771,-0.3213,-0.2963,0.0,0.0,-0.3034,-0.2911,-0.2936,-0.3088,-0.3202,-0.3324,-0.3608,-0.411,-0.4556,0.0,0.0,0.0,0.0,0.0,0.0,0.0,0.0,0.7279,0.7032,0.0,0.673,0.0,0.0,0.0,0.0,0.0,0.6175,0.0,0.0,0.7273,0.7404,0.6622,0.6689,0.6709,0.6555,0.6108,0.5858,0.5725,0.4572,0.0,0.0,0.0,0.0,0.0,0.0,0.1954,0.1617,0.175,0.2383,0.3594,0.3652,0.4181,0.5297,0.5439,0.5529,0.5542,0.5634,0.5526,0.5145,0.4643,0.0,0.0,0.0,0.0,0.0,0.0,0.0,0.0,0.0,0.0,0.0,0.0,0.0,0.0,0.0,0.0,0.0,0.0,0.0,0.0,0.2751,0.0,0.0,0.0,0.0,0.0,0.0,0.0,0.0,0.0,0.0,-0.0233,-0.107,-0.1721,-0.1846,0.0,0.0,0.0,0.0,-0.2043,-0.2607,-0.215,-0.1944,-0.2534,-0.2581,-0.255,-0.2416,0.0,0.0,-0.2986,-0.3628,-0.3891,-0.3294,-0.3317,-0.3486,-0.3449,-0.3291,-0.3351,-0.3771,-0.3892,-0.4064,-0.4428,-0.4866,-0.5276,0.9192,0.0,0.0,0.0,0.0,0.791,0.7822,0.8204,0.8429,0.8208,0.7663,0.7771,0.0,0.0,0.0,0.0,0.0,0.0,0.6775,0.6871,0.7236,0.7072,0.6522,0.6568,0.6494,0.6304,0.6165,0.6022,0.5852,0.549,0.484,0.3911,0.0,0.0,0.0,0.0,0.3109,0.2889,0.3002,0.3454,0.4239,0.4239,0.4684,0.5631,0.5655,0.5856,0.6281,0.5801,0.5696,0.6001,0.5406,0.0,0.0,0.0,0.0,0.0,0.0,0.0,0.0,0.0,0.0,0.0,0.0,0.0,0.0,0.0,0.0,0.0,0.0,0.0,0.2442,0.2026,0.1846,0.0,0.0,0.0,0.0,0.0,0.0,0.0,0.0,0.0,-0.0692,-0.1322,-0.194,0.0,0.0,-0.2691,-0.2691,-0.2549,-0.2493,-0.2691,-0.2528,0.0,-0.2624,-0.2624,-0.2595,-0.2607,-0.2711,-0.2811,-0.2923,-0.3041,-0.3068,-0.2873,-0.2891,-0.2911,-0.2929,-0.3205,-0.355,-0.3927,-0.4157,-0.4386,-0.4833,-0.5306,-0.565,0.9881,0.9995,0.9492,0.9203,0.9083,0.8495,0.827,0.8394,0.8826,0.8627,0.7982,0.8271,0.7923,0.7044,0.6657,0.0,0.0,0.0,0.6898,0.7036,0.7031,0.689,0.6628,0.6628,0.6452,0.6185,0.6276,0.6147,0.5828,0.5965,0.56,0.4849,0.0,0.0,0.3859,0.3741,0.3581,0.3363,0.3285,0.3547,0.4153,0.4543,0.5097,0.5841,0.5837,0.597,0.6293,0.6079,0.5979,0.605,0.5881,0.5472,0.0,0.0,0.0,0.0,0.0,0.0,0.0,0.0,0.0,0.0,0.0,0.3442,0.2941,0.0,0.0,0.0,0.2283,0.2222,0.2008,0.179,0.0,0.0,0.0,0.0,0.0,0.0,0.0,0.077,-0.0023,-0.0543,-0.0554,-0.1076,-0.1749,-0.2571,-0.2691,-0.2691,-0.2691,0.0,-0.2691,-0.2691,-0.2691,-0.2691,-0.2691,-0.2673,-0.2657,-0.2683,-0.2691,-0.2719,-0.2805,-0.2749,-0.2691,-0.2691,-0.2691,-0.2691,-0.2691,-0.2976,-0.3389,-0.3932,-0.4154,-0.4431,-0.5056,-0.5414,-0.5631,1.0569,1.0498,0.9587,0.919,0.9197,0.9127,0.8708,0.8064,0.8646,0.8485,0.7816,0.8378,0.8411,0.8023,0.7442,0.0,0.7216,0.6943,0.6854,0.6873,0.6873,0.6833,0.6845,0.6819,0.659,0.6177,0.6415,0.6271,0.583,0.6105,0.613,0.5927,0.5503,0.5057,0.4582,0.4111,0.3735,0.3517,0.3112,0.316,0.371,0.468,0.5426,0.5973,0.6,0.599,0.5925,0.6299,0.622,0.5602,0.6046,0.5932,0.5177,0.0,0.0,0.0,0.0,0.0,0.0,0.0,0.0,0.0,0.0,0.0,0.0,0.0,0.0,0.0,0.2183,0.0,0.1888,0.1879,0.0,0.0,0.0,0.1381,0.1064,0.0978,0.0926,0.0841,0.0,0.0,0.0027,-0.0521,-0.1314,-0.241,-0.2549,-0.2579,-0.2607,-0.2607,-0.2663,-0.2663,-0.2691,-0.2691,-0.2691,-0.2687,-0.2685,-0.2689,-0.2691,-0.2691,-0.2691,-0.2691,-0.2691,-0.2691,-0.2691,-0.2691,-0.2691,-0.271,-0.297,-0.3788,-0.3984,-0.4267,-0.5011,-0.5266,-0.5411,0.965,0.9586,0.9209,0.9098,0.9068,0.8581,0.8245,0.8132,0.8772,0.8807,0.8401,0.8663,0.8334,0.7635,0.7321,0.7283,0.7407,0.7202,0.7168,0.7342,0.7346,0.7229,0.7088,0.7114,0.6941,0.6641,0.668,0.6687,0.6525,0.6477,0.6407,0.6346,0.6075,0.5797,0.5439,0.5338,0.5269,0.5206,0.4749,0.4598,0.4736,0.5426,0.5864,0.6,0.6087,0.6075,0.5916,0.5865,0.5852,0.5881,0.5624,0.5426,0.5335,0.4695,0.0,0.0,0.0,0.0,0.0,0.0,0.0,0.0,0.0,0.3422,0.273,0.0,0.3157,0.0,0.2686,0.2609,0.2425,0.215,0.0,0.0,0.1611,0.1461,0.1327,0.1329,0.1314,0.1194,0.0648,0.0277,0.0166,-0.039,-0.0894,-0.1286,-0.1342,-0.1482,-0.1903,-0.2015,-0.2184,-0.2607,-0.2691,-0.2691,-0.2691,-0.2691,-0.2691,-0.2691,-0.2691,-0.2691,-0.2691,-0.2691,-0.2691,-0.2691,-0.2691,-0.2691,-0.2691,-0.2691,-0.2886,-0.3413,-0.3771,-0.4162,-0.4719,-0.5077,-0.5329,0.9572,0.9562,0.9451,0.9306,0.914,0.8582,0.8307,0.8262,0.8617,0.8629,0.8383,0.8462,0.822,0.7793,0.7655,0.7664,0.7769,0.766,0.7612,0.7636,0.7636,0.7522,0.7327,0.7323,0.7012,0.6402,0.6573,0.6375,0.5932,0.5938,0.5965,0.5965,0.5839,0.5667,0.5437,0.5614,0.5704,0.5704,0.5262,0.5124,0.5317,0.565,0.5923,0.6087,0.6146,0.6106,0.5911,0.5802,0.5722,0.569,0.5595,0.5496,0.532,0.4975,0.4646,0.0,0.0,0.0,0.0,0.0,0.0,0.0,0.0,0.0,0.0,0.0,0.2857,0.2323,0.2355,0.2332,0.216,0.1973,0.1842,0.1808,0.1701,0.1606,0.1506,0.1536,0.1473,0.1309,0.0998,0.0785,0.0673,0.0392,0.0168,0.0084,0.0056,-0.0391,-0.1538,-0.179,-0.2015,-0.2607,-0.2691,-0.2691,-0.2691,-0.2691,-0.2691,-0.2691,-0.2691,-0.2691,-0.2691,-0.2691,-0.2691,-0.2691,-0.2691,-0.2691,-0.2691,-0.2691,-0.2802,-0.3054,-0.3413,-0.3938,-0.4577,-0.5018,-0.5301,0.9911,0.9906,0.9881,0.9656,0.9332,0.8944,0.8666,0.8481,0.8481,0.8363,0.816,0.8155,0.8196,0.8191,0.8132,0.8122,0.8118,0.8125,0.802,0.7854,0.7826,0.7717,0.7531,0.7498,0.6999,0.6112,0.6326,0.5962,0.5063,0.5264,0.5338,0.5338,0.5316,0.5266,0.5238,0.5466,0.5531,0.5426,0.5066,0.5093,0.5481,0.5508,0.5732,0.6173,0.6146,0.6034,0.5887,0.5897,0.5717,0.5339,0.5728,0.5734,0.5251,0.5264,0.5179,0.0,0.4515,0.0,0.0,0.0,0.0,0.0,0.0,0.0,0.0,0.297,0.2434,0.1917,0.1933,0.1901,0.1717,0.1753,0.1786,0.1789,0.1797,0.1769,0.1628,0.1628,0.1543,0.1375,0.1375,0.1375,0.1318,0.1346,0.1347,0.1243,0.1104,0.0397,-0.1161,-0.1521,-0.1764,-0.2465,-0.2607,-0.2607,-0.2607,-0.2663,-0.2691,-0.2691,-0.2691,-0.2691,-0.2691,-0.2691,-0.2691,-0.2691,-0.2691,-0.2691,-0.2691,-0.2691,-0.2691,-0.2719,-0.3107,-0.3635,-0.4301,-0.477,-0.5132,0.9962,0.9947,0.9742,0.9629,0.9522,0.9277,0.9091,0.8868,0.8868,0.875,0.8585,0.8581,0.8585,0.8571,0.8415,0.834,0.833,0.816,0.8091,0.8018,0.7853,0.7797,0.7745,0.7607,0.7391,0.7195,0.6837,0.6522,0.6327,0.5799,0.5527,0.5555,0.5402,0.5502,0.5857,0.0,0.0,0.0,0.4759,0.4928,0.5007,0.5038,0.5395,0.6146,0.5873,0.0,0.5669,0.5796,0.5717,0.5344,0.5548,0.0,0.0,0.0,0.0,0.0,0.0,0.0,0.0,0.0,0.0,0.0,0.4239,0.3891,0.3651,0.3534,0.3423,0.3297,0.2968,0.2634,0.228,0.2251,0.2132,0.1843,0.1797,0.1769,0.1769,0.1741,0.1741,0.1713,0.1685,0.1657,0.1576,0.1543,0.1504,0.1396,0.1022,0.0442,-0.0361,-0.0579,-0.0898,-0.1762,-0.2196,-0.2301,-0.2296,-0.2529,-0.2623,-0.2691,-0.2691,-0.2693,-0.2663,-0.2691,-0.2691,-0.2691,-0.2691,-0.2691,-0.2691,-0.2691,-0.2691,-0.2691,-0.3079,-0.3469,-0.3633,-0.3968,-0.4245,0.9994,0.0,0.9838,0.9795,0.0,0.9682,0.9521,0.9282,0.9178,0.907,0.9001,0.8902,0.8859,0.885,0.8647,0.8548,0.8548,0.8434,0.8335,0.8236,0.8132,0.8033,0.7929,0.7854,0.761,0.725,0.6986,0.6664,0.6313,0.5933,0.5762,0.5729,0.5648,0.5696,0.5883,0.5586,0.5151,0.4657,0.4827,0.4901,0.4901,0.4901,0.523,0.5873,0.5704,0.0,0.0,0.0,0.0,0.0,0.0,0.0,0.0,0.0,0.0,0.4985,0.4756,0.4681,0.478,0.4789,0.4882,0.507,0.4625,0.4195,0.3791,0.3889,0.3736,0.3218,0.296,0.2646,0.2153,0.2104,0.2038,0.1821,0.1797,0.1797,0.18,0.1823,0.1867,0.1843,0.1894,0.1884,0.1824,0.1795,0.1777,0.1712,0.1446,0.1,0.0276,-0.03,-0.0911,-0.1703,-0.1939,-0.2028,-0.2058,-0.2173,-0.2305,-0.2279,-0.2382,-0.2482,-0.2471,-0.2579,-0.2691,-0.2691,-0.2691,-0.2691,-0.2691,-0.2691,-0.2691,-0.2719,-0.2886,-0.3051,-0.3081,-0.3552,-0.3993,1.0051,1.0047,1.0009,0.9994,0.9994,0.9994,0.9856,0.9639,0.0,0.0,0.0,0.9112,0.9077,0.9023,0.8855,0.876,0.8755,0.8713,0.8614,0.8458,0.842,0.8307,0.8177,0.8129,0.7785,0.722,0.7078,0.6679,0.6103,0.5973,0.5892,0.5892,0.5892,0.5821,0.5747,0.5701,0.5517,0.5203,0.5046,0.4958,0.5011,0.4956,0.5148,0.5704,0.565,0.5694,0.589,0.5944,0.5848,0.5675,0.5694,0.5678,0.5665,0.5665,0.5646,0.5613,0.5584,0.5623,0.5636,0.5661,0.56,0.5528,0.4854,0.4304,0.3973,0.3952,0.3582,0.2683,0.256,0.2322,0.1853,0.1797,0.1797,0.1797,0.1807,0.1813,0.1816,0.1891,0.1898,0.1932,0.1969,0.2002,0.1998,0.1997,0.2009,0.1986,0.1833,0.1558,0.0625,-0.0341,-0.1103,-0.1592,-0.1711,-0.1811,-0.1815,-0.1903,-0.186,-0.1875,-0.2065,-0.2183,-0.2279,-0.2505,-0.2665,-0.2691,-0.2691,-0.2691,-0.2691,-0.2691,-0.2691,-0.2691,-0.2691,-0.2691,-0.2747,-0.3246,-0.3716,1.0274,1.026,1.0075,0.9994,0.9994,0.9994,0.9975,0.9919,0.9493,0.9322,0.9322,0.9253,0.9244,0.923,0.9072,0.8982,0.8963,0.8789,0.8685,0.8652,0.8481,0.8387,0.8349,0.8165,0.8066,0.7922,0.7315,0.695,0.6805,0.6226,0.5892,0.5892,0.5892,0.591,0.5873,0.6193,0.6122,0.5626,0.5299,0.5248,0.5485,0.5093,0.5312,0.6064,0.5759,0.5694,0.5899,0.6059,0.6059,0.5887,0.6043,0.6036,0.5883,0.5838,0.5768,0.5603,0.5584,0.5684,0.5829,0.5868,0.5892,0.5873,0.5132,0.4631,0.4554,0.355,0.2856,0.2692,0.2261,0.188,0.1797,0.1798,0.1801,0.1802,0.1842,0.1898,0.1869,0.1952,0.199,0.199,0.1997,0.2008,0.1982,0.198,0.197,0.1975,0.1568,0.1162,0.049,-0.035,-0.096,-0.1142,-0.1326,-0.1447,-0.1456,-0.1725,-0.182,-0.1901,-0.186,-0.195,-0.2195,-0.2463,-0.2623,-0.2693,-0.2647,-0.2671,-0.2665,-0.2691,-0.2663,-0.2663,-0.2635,-0.2691,-0.2663,-0.283,-0.294,1.0371,1.0312,1.0213,1.0099,0.9994,0.9994,0.9994,0.998,0.979,0.9667,0.9653,0.9549,0.9456,0.9437,0.9239,0.9084,0.8981,0.8882,0.8817,0.8699,0.8609,0.8562,0.8557,0.8463,0.8359,0.8255,0.791,0.7649,0.7412,0.7072,0.6876,0.6782,0.6769,0.6773,0.6798,0.6947,0.688,0.6486,0.5646,0.526,0.5377,0.506,0.523,0.5845,0.5704,0.5751,0.6059,0.6153,0.6158,0.6064,0.6149,0.6158,0.6064,0.5868,0.5695,0.5584,0.5575,0.5641,0.5726,0.5948,0.607,0.6082,0.5367,0.4814,0.4598,0.3876,0.3209,0.2766,0.2432,0.2156,0.1826,0.1826,0.1843,0.1871,0.1925,0.1959,0.1968,0.2016,0.2052,0.2056,0.2084,0.1973,0.165,0.1616,0.1492,0.1283,0.0758,0.0364,0.0101,-0.0527,-0.0808,-0.0356,-0.0549,-0.0775,-0.084,-0.1196,-0.1414,-0.1395,-0.1531,-0.1659,-0.1847,-0.2124,-0.2409,-0.2479,-0.2456,-0.2441,-0.2428,-0.2579,-0.2549,-0.2296,-0.2521,-0.2607,-0.2493,-0.241,-0.2493,1.0694,1.0414,1.0407,1.0265,1.007,1.007,1.0042,0.9994,0.999,0.9994,0.9971,0.9781,0.9672,0.9649,0.9451,0.9268,0.9126,0.9028,0.8896,0.8784,0.8722,0.8703,0.8703,0.8703,0.8623,0.8472,0.8425,0.8231,0.7978,0.7864,0.7669,0.7512,0.7493,0.7493,0.7493,0.7391,0.7251,0.7021,0.6017,0.5512,0.5556,0.5265,0.5345,0.5737,0.5667,0.5814,0.6146,0.62,0.62,0.62,0.62,0.62,0.6173,0.59,0.5704,0.5618,0.5591,0.554,0.5454,0.5645,0.5786,0.5873,0.5199,0.4646,0.4349,0.3965,0.3408,0.271,0.2488,0.2273,0.1904,0.1882,0.1915,0.193,0.1987,0.2023,0.2028,0.2078,0.2117,0.2123,0.2159,0.2016,0.1648,0.1512,0.1342,0.0838,0.0235,-0.0101,-0.0168,-0.0504,-0.0336,0.0101,0.0034,-0.0301,-0.0336,-0.0637,-0.0864,-0.0849,-0.1164,-0.1368,-0.1496,-0.1776,-0.2019,-0.212,-0.2134,-0.208,-0.2121,-0.2269,-0.2262,-0.1967,-0.2184,-0.2354,-0.2184,-0.2127,-0.2212,1.1328,1.0858,1.0668,1.0478,1.0343,1.0284,1.0219,1.0057,1.0038,0.9994,1.0033,0.9971,0.9961,0.9937,0.9663,0.9555,0.9498,0.9155,0.9015,0.8929,0.8789,0.8703,0.8703,0.8703,0.8694,0.8647,0.8496,0.8382,0.8292,0.7992,0.7707,0.7512,0.7493,0.7498,0.7461,0.7031,0.6793,0.6743,0.6455,0.6397,0.6614,0.6113,0.6013,0.6388,0.5879,0.5786,0.6187,0.62,0.62,0.62,0.62,0.6205,0.6173,0.6146,0.5955,0.5618,0.5563,0.5426,0.5011,0.4591,0.4649,0.4901,0.4325,0.3858,0.3882,0.3274,0.2691,0.2355,0.2049,0.1905,0.1894,0.1912,0.1943,0.1992,0.2051,0.2087,0.2092,0.2141,0.2213,0.2179,0.2181,0.2188,0.2018,0.1918,0.1748,0.1109,0.0638,0.0269,0.0235,0.0168,0.0067,0.0302,0.0034,-0.0269,-0.0336,-0.0336,-0.0503,-0.05,-0.0787,-0.1132,-0.1346,-0.1304,-0.1286,-0.1852,-0.1779,-0.1705,-0.179,-0.1871,-0.1911,-0.1758,-0.18,-0.1874,-0.1846,-0.1846,-0.1959,1.2146,1.1774,1.1682,1.1564,1.1359,1.1225,1.1068,1.1014,1.0827,1.0766,1.0722,1.0467,1.0207,0.999,0.9861,0.9762,0.9597,0.9423,0.9211,0.9034,0.893,0.8788,0.8713,0.8703,0.8703,0.8703,0.8614,0.8514,0.8368,0.8103,0.7883,0.7702,0.7683,0.7622,0.7503,0.726,0.7167,0.7195,0.7085,0.7099,0.7155,0.6708,0.6513,0.6612,0.6311,0.6211,0.6337,0.6271,0.62,0.6178,0.5982,0.5841,0.5845,0.534,0.4956,0.4791,0.4759,0.4814,0.4873,0.4732,0.4704,0.4901,0.457,0.4294,0.4049,0.3696,0.3311,0.2852,0.2251,0.1858,0.1915,0.1975,0.2031,0.2062,0.2113,0.2182,0.215,0.2172,0.2188,0.2188,0.2188,0.2052,0.1715,0.1412,0.1109,0.084,0.0605,0.0403,0.0134,0.0034,-0.0101,-0.0336,-0.0403,-0.0302,-0.0336,-0.0605,-0.0706,-0.0805,-0.0933,-0.1158,-0.1187,-0.1186,-0.1206,-0.1621,-0.1454,-0.1411,-0.1526,-0.1722,-0.1796,-0.1542,-0.147,-0.1541,-0.1764,-0.1652,-0.1597,1.2801,1.2554,1.249,1.2361,1.2175,1.1962,1.1855,1.1763,1.1532,1.1424,1.1375,1.097,1.0641,1.0337,1.0125,0.9866,0.9691,0.9635,0.9446,0.9159,0.9042,0.894,0.8798,0.8727,0.8703,0.8703,0.8699,0.8595,0.8406,0.8255,0.8037,0.7854,0.7811,0.7707,0.7512,0.7358,0.726,0.726,0.7293,0.726,0.7219,0.7074,0.6962,0.6897,0.6581,0.6447,0.6501,0.6365,0.6261,0.6182,0.59,0.5732,0.5591,0.4956,0.4481,0.4233,0.4098,0.4184,0.4515,0.4543,0.4543,0.4543,0.4546,0.4421,0.4135,0.3932,0.3682,0.3337,0.2669,0.2265,0.2243,0.2323,0.2323,0.2281,0.2395,0.2421,0.2353,0.2321,0.2354,0.2354,0.2255,0.2052,0.158,0.1143,0.0806,0.0806,0.0605,0.0403,0.0034,-0.0034,-0.0202,-0.0605,-0.0403,-0.0336,-0.0336,-0.0538,-0.0873,-0.0941,-0.0939,-0.1106,-0.1109,-0.1109,-0.1107,-0.1342,-0.12,-0.1158,-0.1267,-0.1466,-0.1475,-0.1011,-0.0897,-0.1021,-0.0981,-0.0954,-0.087,1.319,1.2845,1.2791,1.2688,1.2418,1.2391,1.2272,1.2153,1.1829,1.1727,1.1678,1.1391,1.1241,1.1154,1.0424,0.9985,0.9952,0.9738,0.9639,0.9507,0.9178,0.903,0.8962,0.8803,0.8708,0.8727,0.8708,0.8604,0.8425,0.8392,0.8179,0.7854,0.7835,0.7717,0.7471,0.7077,0.6773,0.6835,0.6872,0.6806,0.6839,0.7237,0.7351,0.7144,0.6572,0.6358,0.6491,0.6501,0.6407,0.6214,0.6192,0.6018,0.565,0.554,0.5038,0.4263,0.383,0.3644,0.3699,0.3733,0.3736,0.3708,0.3809,0.3747,0.3848,0.3629,0.3505,0.3498,0.3243,0.3037,0.3037,0.2959,0.2906,0.2699,0.295,0.2956,0.2686,0.2688,0.2653,0.2619,0.242,0.222,0.2119,0.1648,0.1311,0.1176,0.0873,0.0538,0.0504,0.047,0.0403,0.0269,0.0,-0.0269,-0.0302,-0.0538,-0.0504,-0.0571,-0.0941,-0.1109,-0.1109,-0.1109,-0.1107,-0.114,-0.1108,-0.1097,-0.1042,-0.0957,-0.0812,-0.0548,-0.0357,-0.035,-0.023,0.0141,0.0141,1.3919,1.3769,1.3769,1.3711,1.3612,1.3455,1.3327,1.3228,1.2984,1.2736,1.2547,1.2174,1.1908,1.1709,1.1111,1.0679,1.0414,1.0297,1.0023,0.9644,0.9446,0.931,0.9159,0.9001,0.8868,0.8888,0.877,0.8666,0.8604,0.859,0.8458,0.8198,0.8072,0.7902,0.7678,0.7362,0.7228,0.7195,0.7228,0.7195,0.7228,0.7396,0.7451,0.738,0.7024,0.6885,0.6936,0.7042,0.6953,0.6717,0.6477,0.6193,0.5827,0.5117,0.446,0.3882,0.3691,0.3643,0.3709,0.372,0.3758,0.38,0.3779,0.3816,0.3843,0.3816,0.3823,0.384,0.3873,0.3868,0.3772,0.344,0.3123,0.305,0.3125,0.3192,0.3058,0.3025,0.3025,0.2989,0.2721,0.2455,0.2255,0.2018,0.1884,0.1849,0.1681,0.1445,0.1109,0.1008,0.0974,0.0605,0.0336,0.0067,-0.0302,-0.0638,-0.0806,-0.084,-0.1008,-0.1076,-0.1109,-0.1109,-0.1108,-0.1108,-0.1109,-0.1106,-0.1053,-0.0812,-0.0573,-0.0377,-0.0154,0.0181,0.0478,0.0644,0.058,1.4298,1.4298,1.4298,1.4298,1.4274,1.4105,1.4032,1.4002,1.3755,1.3538,1.3285,1.2845,1.2531,1.2319,1.192,1.1499,1.1063,1.089,1.056,1.0169,1.0095,0.9981,0.9823,0.9657,0.9478,0.9385,0.9038,0.8932,0.9046,0.8937,0.8858,0.8758,0.8636,0.8498,0.8299,0.813,0.8036,0.7976,0.7961,0.7931,0.7839,0.7819,0.7819,0.7804,0.7681,0.7477,0.7226,0.7298,0.7295,0.7109,0.6866,0.662,0.6295,0.528,0.4488,0.4235,0.3974,0.3835,0.3933,0.4042,0.4071,0.392,0.4055,0.4128,0.4021,0.4038,0.4094,0.4181,0.4243,0.4303,0.42,0.3828,0.3493,0.3426,0.3493,0.3493,0.3393,0.3393,0.3326,0.3192,0.2989,0.2757,0.2589,0.2557,0.2522,0.2522,0.2523,0.2321,0.2017,0.1915,0.1814,0.1444,0.131,0.1074,0.0705,0.0302,-0.0605,-0.0807,-0.0975,-0.1042,-0.1109,-0.1109,-0.1109,-0.1109,-0.1109,-0.1109,-0.0969,-0.0693,-0.0457,-0.0259,0.0063,0.0404,0.0706,0.0968,0.102,1.4298,1.4298,1.4298,1.4298,1.4292,1.4274,1.428,1.4226,1.4014,1.3876,1.3709,1.333,1.3093,1.3029,1.2732,1.2423,1.1963,1.1553,1.1273,1.1144,1.0974,1.0926,1.0883,1.0653,1.0397,1.0149,0.9625,0.9516,0.9771,0.9468,0.9355,0.9536,0.9478,0.9339,0.9252,0.9123,0.9066,0.887,0.8778,0.8704,0.8517,0.8425,0.8414,0.8447,0.8425,0.8036,0.7308,0.7288,0.7342,0.7385,0.7384,0.732,0.6993,0.6117,0.5517,0.5355,0.4732,0.4299,0.4303,0.4647,0.4654,0.432,0.4476,0.4637,0.4356,0.4225,0.4208,0.4257,0.4289,0.4303,0.4303,0.4233,0.4097,0.3894,0.3997,0.403,0.3861,0.3792,0.3658,0.336,0.3224,0.3192,0.3192,0.3105,0.3074,0.3062,0.3103,0.3036,0.2898,0.2868,0.3066,0.3003,0.2586,0.2125,0.1799,0.1344,0.0235,-0.0674,-0.0909,-0.1043,-0.1076,-0.1109,-0.1109,-0.1109,-0.1109,-0.1109,-0.1008,-0.0731,-0.0397,-0.0131,0.0226,0.0767,0.114,0.1503,0.1672,1.4298,1.4298,1.4298,1.4298,1.4298,1.4298,1.4298,1.4292,1.4201,1.4075,1.39,1.3737,1.3568,1.3363,1.3071,1.2857,1.2715,1.242,1.1929,1.1397,1.1246,1.1251,1.1165,1.1019,1.07,1.032,1.0085,0.9958,0.9911,0.9781,0.9761,0.9793,0.9668,0.956,0.955,0.9368,0.9232,0.9167,0.8976,0.8852,0.8776,0.8597,0.8517,0.8517,0.8517,0.8345,0.8121,0.8084,0.7906,0.7567,0.7793,0.772,0.7225,0.6858,0.6554,0.625,0.6024,0.5649,0.5364,0.5724,0.5844,0.5485,0.5621,0.5585,0.5176,0.4888,0.4647,0.4395,0.4303,0.4303,0.4303,0.4303,0.4233,0.4167,0.4233,0.4267,0.4167,0.4131,0.3995,0.3692,0.3625,0.3525,0.3307,0.3269,0.3366,0.329,0.3353,0.334,0.3119,0.3325,0.3429,0.3515,0.3262,0.3091,0.2677,0.2235,0.1401,0.0305,-0.027,-0.0808,-0.0941,-0.1042,-0.1076,-0.1008,-0.1008,-0.0941,-0.0873,-0.0637,-0.02,0.03,0.0893,0.1347,0.1766,0.1975,0.2012,1.4298,1.4298,1.4298,1.4298,1.4298,1.4298,1.4298,1.4298,1.4298,1.4195,1.4063,1.3942,1.3821,1.3628,1.3387,1.3218,1.3115,1.2891,1.2494,1.1897,1.18,1.18,1.1761,1.1595,1.1348,1.1055,1.0801,1.0634,1.0482,1.0351,1.0307,1.0308,1.0205,1.0163,1.0152,1.0022,0.9944,0.9831,0.9689,0.9451,0.9276,0.9113,0.8995,0.8889,0.8873,0.8802,0.87,0.8668,0.8441,0.8096,0.8285,0.8261,0.7906,0.7747,0.7552,0.7317,0.6993,0.6626,0.6379,0.6755,0.6876,0.6453,0.6433,0.633,0.5906,0.5517,0.5027,0.4694,0.4595,0.4498,0.4367,0.4303,0.4303,0.4303,0.4303,0.4303,0.4303,0.4303,0.4233,0.4038,0.403,0.3912,0.3803,0.3802,0.3844,0.38,0.383,0.3862,0.3663,0.3797,0.3942,0.4077,0.4015,0.3795,0.3528,0.303,0.2539,0.1542,0.0575,-0.0169,-0.0639,-0.0841,-0.0943,-0.074,-0.0672,-0.0403,-0.0302,0.0,0.0368,0.0974,0.1311,0.147,0.1657,0.1984,0.2095,1.4298,1.4298,1.4298,1.4298,1.4298,1.4298,1.4298,1.4298,1.4298,1.4286,1.4226,1.4057,1.3942,1.3876,1.3658,1.3417,1.3131,1.3059,1.2891,1.263,1.2571,1.2528,1.2492,1.2314,1.2165,1.2052,1.1589,1.1408,1.1358,1.1066,1.0994,1.1033,1.0968,1.1062,1.0952,1.1056,1.0838,1.0653,1.0593,1.0336,0.9948,0.9904,0.9739,0.9479,0.9467,0.9321,0.906,0.8952,0.8829,0.8598,0.8763,0.8907,0.893,0.8721,0.8506,0.8446,0.7754,0.7421,0.7384,0.77,0.7675,0.713,0.6929,0.6671,0.6433,0.5815,0.5289,0.509,0.5057,0.4891,0.4498,0.44,0.4406,0.4311,0.4311,0.4303,0.4303,0.4308,0.4297,0.431,0.4406,0.448,0.4415,0.4517,0.4565,0.456,0.4565,0.4504,0.4499,0.4462,0.4626,0.4658,0.4549,0.4433,0.4135,0.3923,0.3375,0.2669,0.1741,0.0991,0.0068,-0.0236,-0.037,-0.0235,-0.0168,0.0067,0.0269,0.0504,0.0672,0.0907,0.1143,0.1244,0.1576,0.2004,0.22,1.4298,1.4298,1.4298,1.4298,1.4298,1.4298,1.4298,1.4298,1.4298,1.4298,1.4274,1.4232,1.4183,1.4159,1.3918,1.3658,1.3423,1.3173,1.2976,1.2735,1.2705,1.2705,1.2705,1.2638,1.2493,1.2289,1.2123,1.1949,1.1778,1.1492,1.1349,1.1381,1.122,1.1123,1.1117,1.1117,1.105,1.0985,1.0767,1.0671,1.0472,1.0268,1.0063,0.9829,0.9805,0.967,0.9379,0.9119,0.8985,0.8888,0.8926,0.9119,0.9285,0.9215,0.9183,0.9134,0.8997,0.8612,0.8361,0.8692,0.8692,0.8151,0.7777,0.7456,0.6985,0.6108,0.5554,0.5359,0.5326,0.5256,0.499,0.4897,0.4767,0.45,0.4399,0.4322,0.433,0.4376,0.4428,0.4473,0.4569,0.4627,0.4665,0.47,0.4754,0.4744,0.4732,0.4779,0.477,0.4779,0.4795,0.489,0.4854,0.4876,0.4768,0.4614,0.423,0.3661,0.3,0.2414,0.151,0.0774,0.0706,0.0739,0.0504,0.0604,0.0672,0.084,0.0907,0.1276,0.1546,0.195,0.1951,0.2214,0.2281,1.4298,1.4298,1.4298,1.4298,1.4298,1.4298,1.4298,1.4298,1.4298,1.4298,1.4298,1.4298,1.4298,1.428,1.4135,1.3924,1.367,1.3411,1.3145,1.2892,1.2765,1.2711,1.2705,1.2699,1.262,1.2499,1.2475,1.233,1.2067,1.1886,1.1718,1.1495,1.1371,1.1238,1.1117,1.1117,1.1117,1.1087,1.0912,1.0846,1.0677,1.0545,1.0334,1.0124,1.0063,0.9943,0.9676,0.9376,0.9119,0.8894,0.8926,0.9081,0.9253,0.942,0.9478,0.9478,0.9478,0.9312,0.9087,0.928,0.9312,0.892,0.8533,0.8009,0.7484,0.6695,0.6108,0.5984,0.5951,0.5914,0.5826,0.56,0.5269,0.4999,0.4659,0.4482,0.4484,0.4545,0.4575,0.4608,0.4681,0.4727,0.4732,0.4836,0.4857,0.4844,0.4874,0.4893,0.4893,0.4906,0.4923,0.4985,0.5007,0.4966,0.4917,0.4766,0.4675,0.4182,0.3919,0.344,0.2594,0.1739,0.1585,0.145,0.1211,0.1175,0.1411,0.1679,0.2049,0.2351,0.2522,0.2555,0.2555,0.2456,0.249,1.4298,1.4298,1.4298,1.4298,1.4298,1.4298,1.4298,1.4298,1.4298,1.4298,1.4298,1.4298,1.4298,1.4298,1.4262,1.4135,1.3876,1.3658,1.333,1.3091,1.2856,1.2705,1.2705,1.2705,1.2687,1.2662,1.2693,1.256,1.2373,1.2312,1.2018,1.17,1.1555,1.1357,1.1226,1.1148,1.1117,1.1117,1.1093,1.0985,1.0803,1.0731,1.0593,1.037,1.0256,1.016,0.9949,0.9703,0.9382,0.8728,0.8927,0.9087,0.9119,0.9382,0.9484,0.9478,0.9478,0.9478,0.9484,0.9446,0.9478,0.9318,0.8818,0.8398,0.7944,0.7321,0.6778,0.6564,0.6766,0.6941,0.6931,0.6423,0.6021,0.5796,0.5318,0.498,0.4834,0.4751,0.4706,0.4714,0.4779,0.4804,0.4844,0.4901,0.501,0.4934,0.4963,0.4961,0.4963,0.4969,0.4977,0.5002,0.4999,0.4936,0.4884,0.4831,0.4822,0.4638,0.4535,0.4121,0.3303,0.2594,0.2365,0.2206,0.2183,0.2341,0.2621,0.2922,0.3064,0.3025,0.2891,0.3025,0.3125,0.2958,0.2926,1.4298,1.4298,1.4298,1.4298,1.4298,1.4298,1.4298,1.4298,1.4298,1.4298,1.4298,1.4298,1.4298,1.4298,1.4286,1.4153,1.3942,1.3815,1.3534,1.3071,1.2831,1.2711,1.2705,1.2705,1.2705,1.2705,1.2705,1.2662,1.2584,1.2415,1.227,1.2073,1.1712,1.1471,1.1399,1.1244,1.1117,1.1117,1.1117,1.1087,1.1039,1.0997,1.0888,1.0611,1.0412,1.0292,1.0226,1.016,1.0027,0.9864,0.961,0.9415,0.9417,0.947,0.9496,0.9478,0.9478,0.9478,0.9484,0.9496,0.9484,0.9476,0.9036,0.849,0.8366,0.7774,0.7215,0.7037,0.7495,0.7967,0.8013,0.7445,0.7038,0.6817,0.6544,0.6125,0.5708,0.5147,0.4875,0.4819,0.4893,0.4936,0.4936,0.4982,0.5018,0.5018,0.5018,0.5018,0.5018,0.5018,0.5018,0.5018,0.501,0.4952,0.4936,0.4931,0.4904,0.4863,0.4822,0.4758,0.3944,0.3561,0.3353,0.3268,0.3232,0.3415,0.3494,0.336,0.3372,0.3318,0.3299,0.3368,0.3404,0.3332,0.3362,1.4298,1.4298,1.4298,1.4298,1.4298,1.4298,1.4298,1.4298,1.4298,1.4298,1.4298,1.4298,1.4298,1.4298,1.4292,1.4208,1.4087,1.3942,1.3622,1.3149,1.2952,1.2837,1.2705,1.2705,1.2705,1.2705,1.2705,1.2705,1.2656,1.256,1.2439,1.2318,1.197,1.1814,1.1651,1.1411,1.1297,1.1242,1.1172,1.1117,1.1117,1.1111,1.1075,1.0882,1.0623,1.0478,1.0472,1.0346,1.0304,1.0232,1.0039,0.9817,0.9721,0.9697,0.9648,0.9502,0.9478,0.9478,0.949,0.9624,0.9703,0.9703,0.9429,0.9181,0.8924,0.8493,0.8263,0.8078,0.8339,0.8623,0.8883,0.8365,0.7964,0.7705,0.7259,0.6745,0.6349,0.5755,0.5184,0.5005,0.4974,0.5004,0.5018,0.5135,0.5057,0.5057,0.5018,0.5018,0.5018,0.5018,0.5018,0.5018,0.5018,0.5015,0.5015,0.5002,0.4996,0.4966,0.4939,0.4923,0.4584,0.4453,0.4395,0.4196,0.3921,0.3947,0.3991,0.3841,0.3799,0.389,0.391,0.3811,0.3749,0.3806,0.3832,1.4298,1.4298,1.4298,1.4298,1.4298,1.4298,1.4298,1.4298,1.4298,1.4298,1.4298,1.4298,1.4298,1.4298,1.4298,1.4298,1.422,1.4014,1.3652,1.3318,1.3145,1.2988,1.2831,1.2747,1.2705,1.2705,1.2705,1.2705,1.2705,1.2687,1.2572,1.2397,1.2312,1.2109,1.191,1.1694,1.1549,1.1558,1.1309,1.122,1.1184,1.116,1.1099,1.1039,1.0906,1.0749,1.0707,1.0581,1.0442,1.0412,1.0412,1.0274,1.0094,0.9961,0.9889,0.9654,0.9616,0.9622,0.9727,0.9811,0.9895,0.9955,1.0107,1.0014,0.9592,0.9395,0.9219,0.9078,0.9065,0.9088,0.952,0.9275,0.8869,0.8595,0.7846,0.7361,0.7053,0.6588,0.6153,0.5544,0.558,0.5667,0.5479,0.5443,0.5287,0.5132,0.5057,0.5018,0.5018,0.5018,0.5018,0.5018,0.5018,0.5018,0.5018,0.5018,0.5018,0.5015,0.4965,0.4963,0.4999,0.4873,0.4715,0.4609,0.446,0.4447,0.4457,0.4372,0.4366,0.4545,0.4423,0.4172,0.4196,0.4286,0.4241,1.4298,1.4298,1.4298,1.4298,1.4298,1.4298,1.4298,1.4298,1.4298,1.4298,1.4298,1.4298,1.4298,1.4298,1.4298,1.4298,1.4232,1.4051,1.3863,1.3646,1.3387,1.3071,1.2957,1.2831,1.2729,1.2705,1.2705,1.2705,1.2705,1.2693,1.2662,1.259,1.2433,1.2288,1.2157,1.1958,1.182,1.1823,1.1561,1.1461,1.1383,1.122,1.1117,1.1111,1.1033,1.1021,1.1027,1.0997,1.0979,1.0985,1.0979,1.0822,1.0557,1.0352,1.0226,1.0088,0.9931,0.9901,1.0045,0.9997,1.0057,1.0172,1.0316,1.0328,1.0154,1.009,0.9895,0.9533,0.9495,0.9707,1.0258,1.0043,0.9964,0.9679,0.9344,0.8922,0.8304,0.7965,0.7548,0.6822,0.6668,0.6402,0.6173,0.5902,0.5747,0.5518,0.5326,0.5132,0.5018,0.5018,0.5018,0.5018,0.5018,0.5018,0.5018,0.5018,0.5018,0.5018,0.5012,0.5012,0.5012,0.5015,0.4909,0.4812,0.4755,0.4699,0.4701,0.4742,0.4701,0.4671,0.4594,0.4512,0.4454,0.4374,0.4319,1.4298,1.4298,1.4298,1.4298,1.4298,1.4298,1.4298,1.4298,1.4298,1.4298,1.4298,1.4298,1.4298,1.4298,1.4298,1.4298,1.4256,1.4189,1.4032,1.3863,1.3646,1.33,1.3125,1.2976,1.2831,1.2747,1.2705,1.2705,1.2705,1.2705,1.2705,1.2674,1.256,1.2518,1.2451,1.2258,1.2143,1.2071,1.1878,1.1621,1.1483,1.1256,1.1129,1.1117,1.1117,1.1117,1.1117,1.1117,1.1111,1.1105,1.1111,1.1039,1.0918,1.0791,1.0569,1.034,1.0184,1.0148,1.031,1.0268,1.0388,1.0485,1.0599,1.0695,1.0737,1.0659,1.0411,1.0123,1.0165,1.0395,1.047,1.0513,1.04,1.025,1.0067,0.9685,0.9339,0.9188,0.8694,0.8012,0.7361,0.6976,0.6749,0.6518,0.6247,0.5977,0.5673,0.5404,0.5135,0.5018,0.5018,0.5018,0.5018,0.5018,0.5018,0.5018,0.5018,0.5018,0.5018,0.5018,0.5057,0.5054,0.5043,0.4911,0.4912,0.4984,0.4893,0.4876,0.4819,0.476,0.4703,0.4629,0.4545,0.446,0.4405,1.449,1.449,1.434,1.4298,1.4298,1.4298,1.4298,1.4298,1.4298,1.4298,1.4298,1.4298,1.4298,1.4298,1.4298,1.4298,1.4298,1.4286,1.4165,1.4026,1.3894,1.364,1.3387,1.3095,1.2963,1.285,1.2717,1.2705,1.2705,1.2705,1.2705,1.2693,1.2699,1.2705,1.2626,1.2481,1.2409,1.2312,1.2131,1.186,1.1507,1.1236,1.1117,1.1117,1.1117,1.1117,1.1117,1.1117,1.1117,1.1117,1.1117,1.1111,1.1111,1.1111,1.0912,1.0527,1.0406,1.0394,1.0497,1.0539,1.0641,1.0791,1.0979,1.1069,1.1087,1.099,1.0926,1.0743,1.0812,1.085,1.0588,1.0588,1.0588,1.0475,1.0288,1.0105,1.0024,0.9873,0.969,0.8965,0.805,0.7668,0.7591,0.7169,0.6938,0.6556,0.6212,0.598,0.5673,0.5096,0.5018,0.5018,0.5018,0.5018,0.5018,0.5018,0.5018,0.5018,0.5018,0.5018,0.5093,0.5168,0.5196,0.53,0.5262,0.531,0.5201,0.5015,0.4939,0.4876,0.4814,0.4747,0.4664,0.4593,0.4563,1.5289,1.5194,1.458,1.4298,1.4298,1.4298,1.4298,1.4298,1.4298,1.4298,1.4298,1.4298,1.4298,1.4298,1.4298,1.4298,1.4298,1.4292,1.4268,1.4183,1.4026,1.3888,1.3725,1.3302,1.3149,1.3037,1.2837,1.2717,1.2729,1.2729,1.2705,1.2705,1.2705,1.2705,1.2693,1.2632,1.2662,1.2602,1.2385,1.2029,1.1606,1.1266,1.1166,1.1141,1.1123,1.1117,1.1117,1.1117,1.1117,1.1117,1.1117,1.1117,1.1117,1.1117,1.1099,1.093,1.0821,1.0737,1.09,1.0852,1.084,1.0972,1.1093,1.1111,1.1117,1.1117,1.108,1.1074,1.1074,1.0962,1.0738,1.0856,1.0781,1.0775,1.07,1.0588,1.0519,1.0406,1.0255,0.9954,0.9112,0.8775,0.8623,0.8089,0.7629,0.7207,0.6826,0.6556,0.6173,0.5595,0.5018,0.5018,0.5057,0.5057,0.5249,0.521,0.5326,0.5249,0.5287,0.5287,0.5479,0.5709,0.5747,0.5857,0.5825,0.5712,0.5556,0.5359,0.5118,0.5049,0.5108,0.4984,0.4779,0.474,0.4827,1.6183,1.5391,1.5057,1.4675,1.4346,1.4298,1.4298,1.4298,1.4298,1.4298,1.4298,1.4298,1.4298,1.4298,1.4298,1.4298,1.4298,1.4298,1.4298,1.4298,1.4165,1.4045,1.3882,1.3676,1.3525,1.329,1.3103,1.297,1.2904,1.2783,1.2705,1.2705,1.2705,1.2705,1.2705,1.2705,1.2699,1.262,1.2445,1.2204,1.1926,1.1594,1.1353,1.1335,1.1202,1.1148,1.1141,1.1117,1.1117,1.1117,1.1117,1.1117,1.1117,1.1117,1.1111,1.1099,1.1015,1.096,1.1069,1.0991,1.1021,1.1057,1.1117,1.1117,1.1117,1.1117,1.1117,1.1111,1.1117,1.0999,1.0887,1.0999,1.0962,1.0962,1.0962,1.0962,1.0893,1.0856,1.0706,1.0481,1.0218,0.9798,0.9387,0.9003,0.8394,0.7744,0.7361,0.7092,0.663,0.6015,0.5479,0.5018,0.5057,0.5135,0.544,0.5634,0.598,0.6018,0.6212,0.6212,0.6209,0.6363,0.6402,0.644,0.6479,0.6286,0.6018,0.5783,0.5586,0.5529,0.547,0.5416,0.54,0.5408,0.5555,1.7178,1.5994,1.5764,1.5391,1.4873,1.4873,1.4771,1.458,1.458,1.449,1.4346,1.4298,1.4298,1.4298,1.4298,1.4298,1.4298,1.4298,1.4298,1.4298,1.428,1.4177,1.4039,1.393,1.3773,1.3604,1.3344,1.323,1.3157,1.3037,1.2898,1.2717,1.2705,1.2705,1.2705,1.2705,1.2699,1.2681,1.2445,1.23,1.2192,1.1808,1.1639,1.1531,1.1443,1.131,1.131,1.1335,1.1341,1.1238,1.1206,1.1188,1.1141,1.1117,1.1117,1.1111,1.1075,1.1087,1.1111,1.1087,1.1111,1.1117,1.1117,1.1117,1.1117,1.1117,1.1117,1.1117,1.1117,1.1117,1.1117,1.1074,1.1074,1.1074,1.1074,1.1117,1.1117,1.1043,1.0968,1.0812,1.0588,1.0438,1.0062,0.9765,0.9193,0.8432,0.7974,0.7629,0.713,0.6553,0.6209,0.575,0.5712,0.5789,0.598,0.6247,0.6556,0.6749,0.6942,0.6903,0.6784,0.6861,0.7019,0.7053,0.713,0.713,0.698,0.6556,0.6131,0.6157,0.6136,0.6145,0.6129,0.6108,0.6254,1.8265,1.7505,1.681,1.6487,1.6346,1.6447,1.5967,1.5248,1.5248,1.4867,1.4346,1.4298,1.4298,1.4298,1.4298,1.4298,1.4298,1.4298,1.4298,1.4298,1.4292,1.4268,1.4171,1.4045,1.3918,1.3839,1.3616,1.3501,1.3471,1.3387,1.3103,1.2783,1.2801,1.2741,1.2705,1.2705,1.2705,1.2662,1.2475,1.2367,1.2241,1.203,1.1908,1.189,1.1872,1.1826,1.1854,1.1754,1.1651,1.1465,1.1459,1.1381,1.1298,1.1256,1.1256,1.1256,1.125,1.1256,1.125,1.116,1.1117,1.1117,1.1117,1.1117,1.1117,1.1123,1.1123,1.1178,1.1238,1.1226,1.119,1.1129,1.125,1.1262,1.1304,1.1286,1.1244,1.1092,1.1049,1.1037,1.0925,1.0738,1.0625,1.0325,0.9846,0.9084,0.8699,0.8389,0.774,0.7203,0.7053,0.6822,0.6672,0.671,0.6788,0.6976,0.7092,0.7246,0.7399,0.7284,0.7092,0.7284,0.7629,0.7744,0.7859,0.7897,0.7863,0.7399,0.7053,0.6903,0.685,0.6778,0.6806,0.6847,0.6987,1.8635,1.8357,1.8079,1.7426,1.6588,1.6588,1.6157,1.5486,1.5391,1.4962,1.4346,1.4298,1.4298,1.4346,1.4298,1.4298,1.4298,1.4298,1.4298,1.4298,1.4298,1.4298,1.4244,1.4261,1.4147,1.4128,1.3928,1.3755,1.3749,1.3784,1.3459,1.3212,1.3099,1.2843,1.2771,1.2711,1.2705,1.2687,1.2614,1.2554,1.2499,1.2312,1.2161,1.2161,1.1962,1.1898,1.1874,1.188,1.1814,1.1799,1.173,1.1679,1.1588,1.1525,1.1525,1.1564,1.1519,1.1558,1.1486,1.1323,1.1123,1.1117,1.1117,1.1135,1.119,1.1262,1.1347,1.1413,1.1498,1.1534,1.1606,1.1573,1.1597,1.1588,1.154,1.1498,1.1437,1.1291,1.1254,1.1315,1.1176,1.0999,1.0925,1.0844,1.0331,0.9771,0.9458,0.9036,0.8428,0.7931,0.7778,0.7548,0.7361,0.7403,0.748,0.7553,0.7591,0.7744,0.7936,0.7931,0.7893,0.8008,0.8318,0.847,0.847,0.8432,0.8318,0.8165,0.7897,0.7591,0.7476,0.7429,0.7479,0.7522,0.7644,1.9012,1.905,1.9196,1.845,1.7333,1.7239,1.6803,1.619,1.6136,1.5669,1.4962,1.4777,1.4634,1.4627,1.4627,1.4442,1.4394,1.4298,1.4298,1.4394,1.4532,1.449,1.4538,1.4717,1.5019,1.4721,1.4763,1.4765,1.4852,1.4528,1.431,1.4087,1.375,1.3465,1.288,1.2735,1.2705,1.2705,1.2705,1.2705,1.2662,1.2536,1.2427,1.2415,1.2276,1.2222,1.2222,1.2228,1.2149,1.2036,1.1982,1.1946,1.1904,1.1886,1.1886,1.1932,1.1932,1.1938,1.1811,1.1591,1.1359,1.1425,1.1407,1.1395,1.1407,1.1534,1.1591,1.1621,1.1772,1.1892,1.1904,1.182,1.1796,1.173,1.1745,1.1709,1.1697,1.1591,1.1573,1.1573,1.1399,1.123,1.1205,1.1135,1.0767,1.0252,0.9803,0.9496,0.9188,0.877,0.8546,0.8237,0.7931,0.805,0.8169,0.8293,0.845,0.8589,0.8742,0.8927,0.8965,0.9003,0.8889,0.8899,0.8899,0.8894,0.878,0.8589,0.8399,0.8165,0.8089,0.805,0.8071,0.8119,0.8158,1.9546,1.9646,2.0011,1.9608,1.8735,1.8735,1.8257,1.7451,1.7365,1.6951,1.6251,1.5676,1.5391,1.5391,1.5384,1.5153,1.4675,1.4484,1.4436,1.458,1.4914,1.486,1.5057,1.5397,1.5825,1.5676,1.5758,1.6068,1.6297,1.6013,1.5651,1.5133,1.4688,1.4114,1.3171,1.2837,1.2717,1.2705,1.2705,1.2705,1.2693,1.2656,1.2638,1.2614,1.2578,1.253,1.2524,1.253,1.2445,1.2295,1.2306,1.2269,1.2199,1.2047,1.2075,1.2218,1.2119,1.2021,1.1984,1.1914,1.1838,1.1754,1.1715,1.1757,1.1802,1.1868,1.1874,1.1886,1.2005,1.1999,1.1968,1.1934,1.1976,1.2035,1.2023,1.2023,1.2023,1.1902,1.1872,1.1808,1.1639,1.1483,1.1483,1.142,1.1115,1.0716,1.0187,0.9906,0.9802,0.9582,0.9322,0.9129,0.8784,0.8808,0.8971,0.9161,0.9309,0.9408,0.943,0.9506,0.9539,0.9463,0.9392,0.9322,0.9316,0.9311,0.9165,0.8975,0.8894,0.8813,0.8703,0.8627,0.8661,0.8685,0.8718,1.9271,1.9592,1.9783,1.9828,1.9791,1.9791,1.9034,1.7777,1.7178,1.681,1.6588,1.6251,1.6197,1.6197,1.6197,1.6008,1.5724,1.5153,1.5057,1.5105,1.5432,1.5242,1.5439,1.6008,1.6494,1.6346,1.6541,1.673,1.6527,1.6777,1.6553,1.604,1.5338,1.4294,1.3358,1.2868,1.2705,1.2705,1.2705,1.2705,1.2705,1.2705,1.2705,1.2705,1.2705,1.2705,1.2705,1.2705,1.2638,1.2554,1.2536,1.2655,1.2777,1.2723,1.2819,1.3287,1.3424,1.307,1.2945,1.2748,1.2252,1.2048,1.1934,1.194,1.1892,1.206,1.2109,1.2181,1.2306,1.2349,1.2457,1.2451,1.2475,1.2481,1.2481,1.2475,1.2433,1.2204,1.2083,1.2071,1.1922,1.1778,1.1724,1.1742,1.154,1.1423,1.1023,1.084,1.0735,1.0384,1.0079,1.0005,0.981,0.9712,0.9752,0.9913,0.9897,0.9903,0.9834,0.9771,0.9809,0.996,0.9814,0.9744,0.9738,0.9733,0.9582,0.9468,0.9544,0.9506,0.9349,0.9273,0.9273,0.9273,0.9226,1.9279,1.9637,1.9957,2.0048,2.0102,2.0246,1.96,1.8527,1.7645,1.7372,1.7559,1.7419,1.7138,1.7044,1.6958,1.6723,1.6588,1.6109,1.5818,1.5866,1.6136,1.6048,1.6244,1.6756,1.7232,1.7192,1.7286,1.7426,1.7527,1.738,1.7217,1.6804,1.5942,1.4996,1.3963,1.3341,1.2874,1.285,1.2807,1.2705,1.2705,1.2705,1.2705,1.2705,1.2705,1.2705,1.2705,1.2705,1.2705,1.2705,1.279,1.3045,1.3307,1.3476,1.3639,1.4188,1.4356,1.3928,1.3571,1.3347,1.281,1.2288,1.2198,1.2192,1.2204,1.2367,1.2427,1.2506,1.2626,1.2656,1.2687,1.2705,1.2699,1.2693,1.2693,1.2674,1.2632,1.2397,1.2349,1.233,1.2228,1.206,1.1946,1.2,1.1988,1.1934,1.188,1.1703,1.1531,1.111,1.0808,1.0762,1.0627,1.0443,1.0455,1.0583,1.0534,1.0418,1.0407,1.0363,1.0477,1.0686,1.0443,1.0165,1.0154,1.0105,1.003,0.9992,1.0105,1.0067,0.9916,0.9879,0.9922,0.9809,0.9657,1.9637,1.9774,2.0637,2.0501,1.9866,2.0238,2.0283,2.0147,1.8988,1.8904,1.95,1.8665,1.8203,1.7831,1.7731,1.7419,1.6911,1.6723,1.6676,1.6864,1.7225,1.7091,1.7419,1.8064,1.8257,1.821,1.8257,1.845,1.8735,1.8411,1.8118,1.7593,1.66,1.5734,1.4865,1.4051,1.3447,1.3249,1.2935,1.2863,1.29,1.2741,1.2699,1.2705,1.2705,1.2705,1.2705,1.2705,1.2705,1.2699,1.2784,1.3173,1.3519,1.3737,1.4153,1.4524,1.4734,1.4321,1.4068,1.3893,1.3336,1.2855,1.2777,1.276,1.265,1.2602,1.2608,1.262,1.2681,1.2687,1.2705,1.2705,1.2705,1.2699,1.2699,1.2699,1.2699,1.2638,1.2632,1.2572,1.2439,1.2271,1.2192,1.2204,1.23,1.23,1.2246,1.2169,1.1951,1.1571,1.1373,1.1569,1.1358,1.106,1.1129,1.1227,1.1204,1.1089,1.1281,1.1331,1.1417,1.1304,1.1012,1.076,1.0602,1.0481,1.0443,1.055,1.0738,1.0663,1.0443,1.0368,1.0368,1.0105,0.9992,2.0275,2.0637,2.0907,2.1042,2.106,2.0907,2.0772,2.0682,2.0048,1.992,2.0065,1.95,1.9134,1.9034,1.8673,1.8357,1.8032,1.7746,1.7692,1.7878,1.8203,1.8288,1.8711,1.9225,1.9417,1.9225,1.918,1.9142,1.8866,1.8827,1.8781,1.8319,1.724,1.6514,1.5863,1.5042,1.445,1.3882,1.3498,1.3343,1.3254,1.3125,1.2985,1.2881,1.2869,1.2869,1.2875,1.2875,1.2833,1.2784,1.3215,1.373,1.4321,1.4447,1.4692,1.5235,1.5068,1.4734,1.4859,1.4237,1.3561,1.3343,1.33,1.3088,1.2875,1.2705,1.2705,1.2705,1.2705,1.2705,1.2747,1.279,1.2833,1.2875,1.2875,1.2875,1.2833,1.2747,1.2747,1.2674,1.2542,1.2518,1.2403,1.2433,1.2524,1.2566,1.256,1.2493,1.2355,1.1975,1.1863,1.2057,1.2028,1.1717,1.1735,1.1822,1.1809,1.1802,1.193,1.1952,1.1774,1.1603,1.1465,1.1272,1.0953,1.0859,1.085,1.0962,1.0999,1.1037,1.0856,1.0812,1.0738,1.0519,1.0406,2.0473,2.0727,2.0952,2.1275,2.1597,2.1365,2.1275,2.1177,2.0781,2.0555,2.0546,2.0275,1.9957,1.9546,1.9417,1.9279,1.9058,1.895,1.8942,1.908,1.9126,1.9309,1.9766,2.0056,2.0011,1.992,1.9683,1.9417,1.9096,1.8874,1.8781,1.8689,1.7707,1.738,1.6919,1.6415,1.5906,1.5304,1.4767,1.4342,1.409,1.3923,1.3707,1.3459,1.3447,1.3447,1.3447,1.3447,1.3476,1.3464,1.3977,1.4398,1.5026,1.5318,1.5567,1.6023,1.5858,1.5401,1.511,1.4566,1.3935,1.347,1.3385,1.3088,1.2875,1.2705,1.2705,1.2705,1.2705,1.2705,1.2833,1.2918,1.3003,1.3088,1.3088,1.3088,1.3003,1.2833,1.279,1.2705,1.2687,1.2681,1.2681,1.2705,1.2699,1.2668,1.2656,1.2632,1.2578,1.2433,1.2332,1.2415,1.2409,1.2308,1.2355,1.2294,1.2253,1.2212,1.2301,1.2288,1.2113,1.1892,1.1736,1.1513,1.1246,1.1175,1.1071,1.1055,1.1074,1.1117,1.1117,1.1005,1.0925,1.085,1.085,2.0428,2.051,2.0862,2.132,2.1687,2.1687,2.1642,2.1642,2.123,2.1042,2.1042,2.0997,2.0492,2.0002,2.0011,1.9874,1.9783,1.9783,1.9911,2.0292,2.0184,2.0275,2.0419,2.0428,2.0518,2.0283,2.0011,1.982,1.9509,1.9234,1.8966,1.8827,1.8496,1.8071,1.7529,1.7368,1.7009,1.6713,1.6303,1.594,1.5459,1.5311,1.5176,1.4817,1.4733,1.4733,1.4712,1.4726,1.4727,1.4734,1.4866,1.5117,1.5733,1.6188,1.6484,1.6443,1.627,1.594,1.536,1.4817,1.4104,1.3464,1.2869,1.3045,1.3088,1.279,1.2705,1.2705,1.2705,1.2705,1.279,1.296,1.3088,1.3307,1.3434,1.3434,1.3349,1.3088,1.2747,1.2705,1.2705,1.2705,1.2705,1.2705,1.2705,1.2705,1.2705,1.2705,1.2681,1.2632,1.2632,1.2644,1.2614,1.2584,1.259,1.2554,1.2608,1.2638,1.262,1.256,1.2373,1.2168,1.1962,1.1805,1.1621,1.1357,1.1236,1.1202,1.1135,1.1117,1.1117,1.1117,1.1074,1.1037,1.1074,2.1374,2.1374,2.1463,2.1597,2.1687,2.1687,2.1687,2.1687,2.1597,2.1499,2.1454,2.1186,2.0862,2.0637,2.0419,2.0283,2.0238,2.0374,2.0555,2.0727,2.0817,2.0961,2.123,2.1195,2.1105,2.0907,2.0637,2.0229,1.9737,1.9463,1.9142,1.8781,1.8488,1.8017,1.7878,1.7831,1.7756,1.765,1.7728,1.7221,1.658,1.5994,1.56,1.5573,1.5566,1.5618,1.5561,1.5347,1.5247,1.5148,1.5378,1.5797,1.6435,1.6607,1.6689,1.6607,1.6312,1.6064,1.5775,1.5151,1.4398,1.4314,1.4013,1.3808,1.3519,1.3003,1.2747,1.2747,1.2705,1.2705,1.279,1.296,1.3222,1.3476,1.373,1.373,1.373,1.3215,1.2747,1.2705,1.2705,1.2705,1.2705,1.2705,1.2705,1.2705,1.2705,1.2705,1.2705,1.2674,1.2668,1.2681,1.2687,1.2674,1.2705,1.2705,1.2705,1.2705,1.2668,1.2632,1.2596,1.2415,1.221,1.2174,1.2047,1.1694,1.1399,1.1232,1.1178,1.1184,1.1117,1.1117,1.1117,1.1074,1.1074,2.1687,2.1687,2.1687,2.1687,2.1687,2.1687,2.1687,2.1687,2.1687,2.1687,2.1687,2.141,2.1221,2.1132,2.0916,2.0736,2.069,2.0871,2.1096,2.1275,2.1311,2.1463,2.1642,2.1687,2.1553,2.132,2.1042,2.0591,2.0011,1.9637,1.9317,1.905,1.8481,1.8164,1.8164,1.8164,1.8156,1.8203,1.8643,1.8308,1.758,1.7153,1.6832,1.6787,1.6676,1.6683,1.6668,1.6452,1.6384,1.6182,1.6198,1.6219,1.6566,1.6689,1.6689,1.6607,1.6402,1.6196,1.5982,1.5443,1.4608,1.4482,1.4321,1.3779,1.3815,1.3392,1.347,1.3428,1.279,1.2705,1.2875,1.3045,1.3349,1.361,1.3984,1.4146,1.3724,1.3173,1.2833,1.2705,1.2705,1.2705,1.2705,1.2705,1.2705,1.2705,1.2705,1.2705,1.2705,1.2705,1.2705,1.2705,1.2705,1.2705,1.2705,1.2705,1.2705,1.2705,1.2705,1.2681,1.2644,1.2572,1.2475,1.2349,1.2198,1.198,1.1663,1.1467,1.1315,1.1327,1.1244,1.1117,1.1123,1.1141,1.1129,2.1687,2.1687,2.1687,2.1687,2.1687,2.1687,2.1687,2.1687,2.1687,2.1687,2.1687,2.1687,2.141,2.1365,2.1454,2.132,2.1275,2.1329,2.1597,2.1642,2.1642,2.1642,2.1642,2.1687,2.1642,2.1553,2.132,2.0916,2.0419,2.0093,1.9866,1.9592,1.9234,1.8874,1.8827,1.8781,1.8689,1.8635,1.8781,1.8781,1.8631,1.8541,1.8211,1.8025,1.8037,1.8037,1.8089,1.8028,1.7892,1.7405,1.7036,1.6929,1.681,1.6876,1.6689,1.6648,1.6648,1.636,1.5982,1.5276,1.4566,1.411,1.3906,1.3906,1.3984,1.4195,1.4279,1.4019,1.3421,1.3003,1.3173,1.3222,1.3525,1.3779,1.4153,1.4566,1.3971,1.3385,1.3167,1.2997,1.2912,1.2912,1.2833,1.2833,1.2705,1.2705,1.2705,1.2705,1.2705,1.2705,1.2705,1.2705,1.2705,1.2705,1.2705,1.2705,1.2705,1.2705,1.2705,1.2705,1.2687,1.2632,1.2536,1.2397,1.224,1.2113,1.1922,1.1712,1.1621,1.1543,1.1483,1.1407,1.1262,1.1262,1.114,2.1687,2.1687,2.1687,2.1687,2.1687,2.1687,2.1687,2.1687,2.1687,2.1687,2.1687,2.1687,2.1597,2.1544,2.1642,2.1597,2.1553,2.1696,2.1696,2.1687,2.1687,2.1687,2.1687,2.1687,2.1687,2.1642,2.1508,2.1275,2.0871,2.0682,2.032,1.9729,1.9592,1.9234,1.8819,1.8827,1.8874,1.8827,1.8781,1.8781,1.8781,1.8786,1.9015,1.9092,1.9257,1.9484,1.965,1.954,1.914,1.8559,1.7808,1.7543,1.7316,1.7113,1.6844,1.6689,1.6689,1.6607,1.6105,1.536,1.4734,1.4615,1.4531,1.4524,1.4734,1.511,1.5193,1.5318,1.4727,1.4013,1.3935,1.3688,1.3822,1.3948,1.4195,1.4776,1.4768,1.4391,1.4139,1.3886,1.3639,1.3555,1.3392,1.3137,1.2705,1.2705,1.2705,1.2705,1.2705,1.2705,1.2705,1.2705,1.2705,1.2705,1.2705,1.2705,1.2705,1.2705,1.2705,1.2705,1.2705,1.2705,1.2608,1.2499,1.2403,1.2294,1.2097,1.1982,1.188,1.1808,1.1808,1.1757,1.1564,1.1389,1.131]}]]